GFSCGP_sfc_dewp_000.txt.gz
Dewpoint
27 23 19 19 20 19 19 18 18 18 18 16 23 26 28 36 40 39 41 43 43 42 43 46 47 47 46 47 47 50 50 51 43 46 46 49 44 43 42 42 45 45 45 45
24 22 22 23 26 26 24 22 22 21 21 17 24 25 31 36 37 38 40 42 42 42 42 43 44 47 47 45 47 48 46 45 45 48 48 47 44 43 43 46 44 45 46 43
24 22 25 27 27 26 29 24 24 23 22 20 25 24 29 31 32 34 36 40 42 42 42 42 44 43 41 40 41 41 40 41 45 46 43 44 44 44 44 42 42 43 42 41
23 27 28 28 26 28 28 30 27 24 22 13 20 21 26 31 33 35 38 40 41 42 43 42 42 42 41 40 39 39 39 39 40 41 41 43 43 41 43 43 41 38 39 40
27 29 29 27 28 29 29 31 29 28 24 23 23 23 25 31 30 33 36 39 41 42 42 42 42 42 41 41 40 39 39 39 39 39 40 42 39 39 41 41 37 36 38 39
27 30 28 29 30 30 30 32 31 30 29 24 27 27 27 30 31 34 35 37 39 40 41 42 43 42 41 40 39 37 36 38 39 39 39 41 37 37 38 35 35 35 37 37
28 29 29 30 29 30 28 30 29 25 24 23 31 30 31 32 33 36 37 37 38 39 41 42 41 41 41 41 39 39 39 38 38 39 39 38 37 37 34 33 34 33 36 37
27 27 27 28 29 27 28 28 26 22 22 24 26 26 27 32 36 37 37 37 38 38 40 41 41 39 39 41 41 40 38 35 38 37 36 37 38 38 36 35 33 36 37 37
29 27 30 28 28 31 30 23 26 27 27 24 26 27 29 30 31 31 32 36 37 37 37 39 39 40 40 40 40 39 36 33 35 36 37 37 39 38 39 38 37 39 37 37
30 25 27 26 32 31 22 27 27 27 19 18 22 26 28 30 30 30 33 35 37 38 38 38 39 39 40 40 39 40 38 35 34 36 38 38 38 38 39 37 37 35 35 36
34 28 26 32 28 28 28 28 29 28 26 21 20 22 29 33 32 33 34 36 36 37 38 38 38 38 37 35 36 37 37 38 37 36 37 37 36 36 36 36 35 34 34 35
33 30 25 27 28 29 28 29 29 24 26 26 23 22 30 31 32 35 35 36 36 38 38 38 37 35 34 33 33 31 35 36 36 37 38 38 38 36 34 34 32 33 33 33
32 28 25 27 31 30 27 28 34 31 26 22 20 21 32 34 33 35 35 37 38 38 37 36 35 33 32 30 28 25 27 26 27 30 34 37 37 38 33 30 31 30 30 28
39 34 26 26 26 26 22 24 32 30 24 25 25 24 32 34 35 36 37 37 36 36 35 34 33 31 28 25 23 24 26 27 25 24 27 27 29 33 32 30 31 34 34 34
36 29 30 28 30 28 26 25 26 24 27 25 26 27 34 35 36 37 37 36 35 34 34 33 32 29 22 22 23 23 25 26 26 25 25 32 36 34 33 34 34 36 36 34
39 29 29 27 33 33 27 27 28 27 25 25 32 33 36 36 38 37 36 34 34 34 33 32 30 22 21 22 21 22 23 25 27 25 30 35 36 36 35 34 35 35 35 24
34 29 26 24 32 30 22 26 29 28 32 27 25 34 36 36 37 35 34 34 33 32 32 31 25 20 21 20 21 19 21 24 25 26 32 33 35 35 35 36 36 35 25 17
33 32 26 20 21 11 29 31 31 36 36 36 35 35 35 36 37 35 33 32 32 32 30 27 17 17 19 19 18 20 21 22 25 31 31 33 33 33 34 35 33 31 24 20
36 27 26 18 21 19 25 30 29 27 35 38 37 37 36 37 34 33 34 33 31 29 25 21 18 18 18 18 19 20 21 22 24 30 31 32 33 32 33 33 34 34 26 19
37 29 25 27 12 8 23 33 34 32 27 39 38 37 36 34 28 32 36 35 31 23 21 18 18 17 17 17 19 21 22 24 25 31 32 32 33 33 33 33 32 30 20 24
27 24 23 23 15 23 28 33 34 26 25 40 39 38 37 34 33 34 38 35 23 21 19 20 19 17 18 20 22 23 23 24 26 30 31 32 33 32 32 32 26 20 24 24
27 25 23 23 18 20 33 34 28 32 39 40 40 39 38 37 37 37 35 25 23 18 18 19 20 20 22 23 24 23 23 25 27 29 29 29 29 27 24 22 22 23 23 22
26 29 28 30 29 32 34 35 38 42 41 41 39 39 39 37 37 30 25 22 20 18 18 19 19 21 23 24 24 23 24 27 28 28 27 27 26 26 25 22 20 21 21 19
33 38 32 32 35 36 37 43 44 43 42 41 40 39 39 36 30 24 22 21 19 18 18 19 21 22 24 25 25 26 27 27 27 27 27 26 26 27 25 22 22 21 19 17
32 36 33 33 35 39 41 42 43 42 42 41 41 40 39 27 22 21 20 20 20 20 21 23 24 25 25 26 28 29 29 29 26 27 27 26 26 25 25 21 22 23 20 20
38 33 32 31 35 36 38 43 42 41 40 41 40 26 22 22 20 21 21 22 22 23 24 23 25 26 27 28 27 29 30 30 29 27 27 27 25 23 25 25 25 26 25 23

GFSCGP_sfc_dewp_003.txt.gz
Dewpoint
26 21 17 18 20 18 17 16 14 17 18 27 29 32 37 39 42 43 41 41 41 42 43 45 46 47 45 49 50 53 52 51 50 51 50 49 48 47 46 44 45 44 43 42
22 21 22 26 28 25 22 20 21 21 27 29 32 30 34 36 39 42 41 40 40 41 41 44 44 45 45 46 47 48 48 46 46 48 48 50 48 47 47 44 42 41 41 40
21 23 24 26 27 27 28 24 22 21 28 29 30 28 28 32 35 38 40 41 41 41 43 44 42 39 38 39 40 40 41 43 44 49 48 44 43 43 41 40 40 38 41 39
24 30 27 27 25 27 26 29 26 24 26 25 26 25 28 32 35 38 40 41 42 42 41 40 39 38 37 37 37 37 37 38 39 40 40 40 40 39 41 41 36 36 39 38
27 29 28 26 27 29 29 30 26 25 22 22 25 25 28 32 34 36 38 40 41 41 40 40 40 39 39 39 37 37 38 38 38 38 40 41 39 37 40 37 34 35 38 38
28 30 28 28 30 29 28 31 31 31 28 23 26 26 27 30 32 34 36 39 40 40 41 41 41 40 39 38 37 36 37 37 38 38 38 39 36 37 34 32 33 34 36 38
27 27 27 30 29 30 29 29 27 24 22 23 28 28 29 30 33 35 36 37 39 40 41 42 40 39 39 39 39 39 38 38 38 37 37 37 36 33 32 33 34 34 36 37
25 24 25 26 27 26 27 27 26 20 21 22 27 26 28 32 35 36 37 37 38 41 40 39 39 39 39 38 35 33 34 34 34 34 34 36 35 36 36 36 37 37 36 37
26 25 27 27 27 30 28 23 27 27 26 24 25 27 29 32 35 35 36 37 36 37 38 38 38 38 38 38 38 35 31 31 32 34 35 36 37 37 38 37 37 36 36 37
28 21 26 25 30 29 25 28 25 26 17 17 23 26 27 29 32 30 32 36 36 36 37 37 37 35 34 35 36 37 36 34 34 35 36 37 37 36 37 37 36 36 35 37
33 25 24 29 27 26 27 26 27 28 25 19 18 24 27 30 30 32 35 36 36 36 36 36 35 33 32 31 31 33 33 30 29 31 34 36 35 35 36 36 36 35 34 34
33 28 25 25 28 30 27 28 25 21 24 25 21 20 29 32 33 35 35 36 36 36 36 34 33 32 31 27 25 26 26 24 26 28 31 31 33 33 34 34 33 34 32 31
31 27 24 27 29 28 26 29 31 28 26 25 17 19 32 33 34 35 36 36 36 36 35 34 32 30 26 25 25 25 25 23 23 23 25 27 30 32 33 30 29 31 32 33
37 32 24 24 26 26 20 25 30 27 22 23 23 22 31 33 34 35 36 36 35 34 34 33 31 27 23 23 23 23 24 25 24 23 26 31 33 32 30 28 30 32 34 34
33 26 30 29 30 27 25 23 28 27 27 24 25 26 30 34 35 36 36 35 34 33 32 31 29 23 20 22 22 21 23 24 25 24 28 31 33 33 33 32 32 32 33 32
34 29 27 28 32 31 25 24 25 25 25 28 30 32 35 36 37 36 35 34 32 31 31 30 26 19 19 20 19 20 22 23 26 25 29 32 32 33 34 34 34 35 34 33
31 29 22 17 29 27 16 24 27 26 31 29 29 32 35 36 36 35 34 34 32 31 30 28 22 16 18 20 20 20 21 23 25 26 30 32 33 33 33 34 35 33 32 21
33 28 23 19 19 7 20 29 30 30 35 35 34 35 35 36 36 35 34 32 31 29 29 27 17 13 18 19 19 20 20 22 24 26 31 31 32 32 32 34 33 32 33 30
34 27 26 17 18 17 19 31 34 30 30 36 35 34 35 36 34 33 34 32 31 30 28 23 15 12 15 17 18 19 21 22 24 26 30 31 32 32 32 32 32 31 30 22
33 27 23 24 9 5 17 32 33 31 26 38 36 36 35 34 28 32 34 32 32 30 17 16 15 16 16 17 19 20 22 23 24 26 29 31 32 32 32 32 31 30 19 23
27 22 18 17 12 21 25 32 33 25 24 39 38 37 36 34 34 32 36 36 29 17 17 19 19 19 19 21 23 23 23 24 25 27 29 29 30 30 29 29 25 19 24 23
29 26 24 25 18 18 31 32 29 32 36 39 39 38 37 36 36 37 36 22 18 18 18 19 20 21 22 23 24 24 23 24 25 27 28 28 28 26 24 22 20 23 22 20
26 27 27 28 27 31 32 34 36 38 39 39 39 39 38 37 37 36 22 19 18 17 17 19 20 22 23 24 25 24 25 26 27 27 27 26 25 25 24 21 20 20 20 18
33 35 30 30 32 33 34 37 42 42 40 41 40 39 39 37 33 22 21 20 19 18 19 20 21 22 24 25 26 28 28 28 28 27 27 26 26 26 25 21 21 20 19 18
33 36 33 32 34 37 38 41 42 42 41 41 40 39 38 33 21 21 21 20 20 20 21 22 22 24 25 26 28 27 28 30 28 27 27 26 27 25 21 20 21 22 19 20
36 33 30 30 33 36 34 39 42 41 41 41 40 33 25 22 21 21 21 22 21 22 22 22 24 25 26 28 27 27 29 30 29 30 30 28 31 26 23 23 23 25 24 25

GFSCGP_sfc_dewp_006.txt.gz
Dewpoint
25 21 16 17 17 12 13 12 12 16 24 32 34 35 36 41 42 40 41 41 42 42 46 47 48 51 51 52 52 53 53 54 52 50 49 48 47 50 51 44 43 42 41 40
22 19 22 27 26 23 21 20 22 26 30 33 33 30 32 35 38 41 40 40 41 42 42 44 43 45 48 51 52 52 50 48 48 48 48 50 50 48 43 41 39 40 40 39
21 22 27 28 26 26 27 21 21 25 31 32 31 30 31 34 39 40 41 41 41 42 42 41 39 38 40 44 44 42 43 43 45 48 48 44 43 43 39 40 36 38 39 39
28 30 27 26 25 26 24 28 26 29 28 26 28 27 29 33 37 39 40 40 41 41 39 37 36 36 36 36 37 38 39 39 40 40 40 39 39 38 40 37 35 37 38 38
27 28 26 25 26 29 27 28 26 24 22 23 26 27 27 34 35 37 39 40 41 41 39 38 38 38 39 38 37 38 38 38 38 39 41 40 37 39 38 35 34 34 37 37
28 29 28 27 29 28 30 30 30 30 27 22 24 25 26 31 33 36 37 39 40 40 40 40 40 39 38 38 37 37 39 39 39 38 39 38 37 35 33 34 35 35 35 37
26 26 27 29 28 29 30 28 25 23 21 23 28 26 26 31 34 37 37 38 40 40 40 41 39 38 37 36 36 37 36 35 36 36 36 36 35 32 33 34 35 36 37 37
24 22 25 26 27 25 26 28 25 19 21 23 27 25 28 31 33 37 37 38 39 40 39 39 38 37 37 37 33 32 32 32 34 35 35 35 35 36 37 38 37 37 36 36
25 24 26 26 28 29 26 24 27 26 25 23 25 27 30 35 35 36 36 37 39 37 38 38 37 36 36 37 36 33 33 33 34 35 36 36 36 35 36 36 37 37 37 37
29 21 26 26 30 29 26 28 22 24 17 17 22 25 27 31 34 35 36 36 37 37 37 36 33 33 34 34 36 34 30 27 28 29 31 30 30 31 33 34 34 35 36 36
29 25 24 28 26 25 26 25 27 27 24 18 17 23 29 31 34 33 35 36 36 36 35 33 32 31 29 29 28 26 24 23 25 27 28 29 30 31 32 32 34 35 34 35
31 28 24 23 28 31 27 26 23 18 18 24 20 19 29 31 32 35 36 36 36 35 33 32 31 29 25 24 24 23 22 22 24 25 28 28 30 30 30 31 31 32 32 31
30 27 25 24 24 26 25 30 28 26 26 25 19 19 32 34 35 35 35 36 35 35 34 33 31 26 24 24 24 24 23 21 22 22 24 28 30 31 30 29 28 30 30 30
36 29 23 21 22 25 23 28 27 24 21 22 22 19 31 33 34 36 36 35 35 33 33 32 30 25 23 24 25 24 23 24 23 22 25 28 30 31 31 31 30 30 31 33
30 26 27 29 30 27 23 22 28 24 24 22 22 23 24 33 34 36 36 35 34 33 32 32 29 23 22 23 23 22 23 24 24 24 24 28 31 31 31 32 33 33 33 34
32 26 26 28 31 29 25 24 24 26 26 27 27 26 34 35 36 36 35 35 34 32 31 31 28 22 21 21 21 20 21 23 25 25 25 29 31 32 32 33 33 33 36 33
28 28 20 13 27 22 17 22 24 25 26 27 26 27 35 35 36 36 35 34 33 31 30 30 26 22 19 20 21 20 20 22 24 25 26 30 31 31 31 32 32 33 31 28
29 26 21 19 18 7 19 26 28 27 30 33 32 34 35 36 36 36 35 35 34 31 29 29 28 21 16 19 19 21 20 21 23 24 26 30 30 30 31 31 31 31 31 31
31 26 23 17 17 16 15 32 31 29 26 35 33 35 35 35 35 34 35 34 33 31 29 29 26 15 14 16 18 18 20 21 22 24 25 28 30 30 30 31 30 30 30 27
31 26 22 16 9 5 17 26 32 30 26 36 35 35 35 34 29 33 35 34 32 30 25 18 15 15 15 17 20 21 22 23 24 25 26 28 29 29 30 30 29 29 22 22
27 25 17 15 12 19 22 31 32 24 25 37 36 35 35 33 35 34 35 33 31 23 17 19 19 18 19 21 23 22 23 24 25 26 26 28 28 28 28 26 25 21 22 21
29 25 23 21 14 14 28 31 28 32 33 37 37 37 36 35 34 35 35 27 19 18 18 19 19 20 22 23 24 24 24 25 26 27 27 27 27 26 25 24 20 22 22 20
26 26 25 24 24 28 31 33 34 35 34 37 38 38 38 36 36 36 26 20 19 17 18 19 20 21 22 23 25 25 26 27 27 28 28 27 27 25 25 23 20 20 19 17
32 32 28 29 29 32 33 34 37 39 37 39 40 39 38 37 37 29 21 20 19 18 19 20 20 20 22 25 26 28 27 27 28 29 27 27 26 26 26 22 21 20 18 17
32 34 31 31 33 34 35 39 38 40 41 40 40 40 39 37 28 22 21 21 20 20 21 21 21 22 24 26 27 28 27 28 28 30 29 28 26 26 25 21 21 22 20 20
35 32 30 29 32 32 32 34 40 40 41 41 40 38 31 30 22 22 22 23 22 22 22 21 23 25 26 27 28 27 28 28 28 29 27 28 28 31 27 22 23 25 25 24

GFSCGP_sfc_dewp_009.txt.gz
Dewpoint
27 22 19 19 17 12 14 13 14 20 31 35 35 35 38 41 41 42 43 44 45 46 48 50 53 56 57 58 58 57 57 57 56 52 51 51 50 50 47 41 43 43 43 42
25 23 22 27 26 22 22 21 25 30 33 34 34 36 38 39 40 42 43 44 45 45 46 47 51 54 56 56 56 56 54 52 49 49 50 52 52 47 41 40 42 41 42 40
25 23 28 27 27 27 25 24 25 27 33 33 33 33 37 39 41 42 43 43 44 44 44 45 48 51 53 51 51 50 49 49 48 49 48 46 46 45 42 38 38 39 40 38
29 29 27 26 27 27 26 27 31 32 29 26 28 21 33 38 39 41 41 42 43 41 40 39 40 40 42 42 44 44 44 43 43 44 44 45 42 41 42 38 38 39 41 40
28 29 27 27 27 30 28 32 30 26 24 25 27 26 29 36 38 39 40 41 41 39 38 37 38 39 39 42 43 43 42 42 42 44 44 42 42 41 38 39 40 40 41 41
29 29 28 28 30 30 33 31 31 30 28 25 25 24 26 33 36 38 40 41 40 40 40 40 40 40 40 41 43 42 39 38 41 42 42 43 42 38 38 39 39 39 40 40
27 27 27 31 29 30 31 30 27 26 27 24 28 26 27 31 35 38 39 40 41 41 41 40 39 38 39 40 40 38 36 36 39 39 39 39 39 40 40 39 38 38 37 36
23 24 24 28 28 27 28 29 30 23 25 24 28 27 26 31 34 37 38 40 41 41 42 40 38 38 36 36 36 37 36 36 37 38 37 36 33 30 28 30 30 30 31 33
28 24 25 28 29 29 26 25 29 28 26 25 25 27 30 33 33 37 38 39 40 41 41 39 38 38 37 36 38 36 30 27 29 31 30 31 30 30 29 31 31 30 34 36
31 24 27 27 30 30 28 29 25 27 22 18 20 25 26 32 33 35 37 39 40 40 39 38 36 37 38 37 33 31 27 25 27 27 29 28 29 30 31 31 31 32 34 38
28 30 28 28 27 27 28 27 28 27 26 18 18 19 31 33 34 35 37 38 39 39 38 34 33 34 36 31 27 26 25 24 25 25 28 30 29 31 31 31 31 32 35 36
31 32 29 24 28 31 28 27 26 25 20 25 26 21 30 33 33 37 36 38 38 38 34 32 31 29 27 26 24 25 25 24 24 26 28 28 30 31 31 31 31 34 33 35
33 31 28 25 24 27 27 29 27 27 30 26 32 20 31 34 34 35 36 37 37 35 33 32 28 25 24 24 25 25 25 22 23 23 24 27 29 31 31 31 33 33 34 33
37 29 28 25 23 26 26 29 26 26 27 24 28 23 25 32 34 35 36 37 36 34 33 32 29 24 24 25 25 26 27 26 24 22 23 27 30 31 32 32 33 34 35 35
33 29 28 29 29 28 23 27 27 23 25 27 24 24 24 30 34 36 36 36 34 33 33 32 30 24 23 25 27 27 26 26 26 25 24 27 31 32 32 33 33 34 36 36
33 30 29 30 30 28 26 24 26 28 27 25 26 27 29 34 35 36 36 35 34 34 33 32 30 25 24 24 28 25 25 25 25 25 27 27 30 32 32 32 33 34 35 35
31 31 26 22 26 23 24 26 25 27 27 29 28 28 35 35 35 36 36 35 35 35 34 32 32 28 25 25 27 24 23 24 24 25 26 27 29 31 32 31 30 32 33 34
31 27 25 27 24 21 22 28 26 26 27 28 30 31 34 35 36 36 37 36 36 35 33 32 31 29 27 23 22 24 21 21 23 23 25 27 28 29 30 30 29 32 33 32
31 29 25 28 22 19 18 24 31 31 25 32 31 33 35 36 37 37 37 37 38 37 34 31 31 29 21 18 20 20 21 22 23 24 25 26 28 29 29 29 30 30 30 31
31 30 30 24 24 20 23 22 35 31 27 32 35 36 36 36 37 35 38 38 37 35 32 29 23 16 17 19 22 23 23 23 23 26 27 27 28 29 29 29 28 29 28 21
32 30 28 20 28 25 24 30 32 27 28 35 37 37 37 36 39 36 37 36 35 30 20 20 19 19 21 24 24 22 24 24 26 27 27 27 29 29 29 28 26 25 23 24
30 29 28 23 24 23 27 32 33 36 36 36 38 38 38 38 36 35 35 30 24 19 19 20 21 22 24 24 24 22 23 26 27 27 28 29 28 28 27 27 26 23 23 24
29 32 31 28 30 32 31 37 36 36 35 37 38 38 39 38 35 36 31 22 20 18 18 19 20 22 22 23 24 23 25 28 28 28 29 29 29 27 26 26 25 22 22 23
33 32 32 33 31 31 33 34 35 36 37 38 39 39 39 38 37 33 22 20 19 18 19 20 20 18 20 24 25 27 29 28 28 28 29 30 29 29 27 25 22 22 24 24
34 34 33 33 34 34 34 37 39 38 40 41 41 41 40 39 36 27 22 21 19 24 27 20 20 21 22 25 26 28 28 28 28 29 27 27 28 28 29 28 23 22 22 24
35 34 35 35 34 35 35 34 38 40 40 42 42 40 37 35 29 23 22 24 31 30 22 20 22 23 25 26 27 28 28 29 30 29 28 29 29 28 29 30 26 26 27 25

GFSCGP_sfc_dewp_012.txt.gz
Dewpoint
27 20 16 16 13 11 11 11 10 18 31 28 27 27 31 39 43 44 44 45 46 47 49 53 56 58 59 60 60 61 61 61 59 56 53 49 49 49 47 44 44 44 43 42
24 19 22 24 19 16 14 12 19 26 31 30 29 31 34 35 40 43 44 45 46 48 50 53 56 58 59 59 60 59 59 58 56 53 49 50 51 48 43 43 44 41 41 39
19 24 27 24 22 20 21 18 25 20 29 30 29 29 33 37 39 41 43 44 46 47 50 53 55 56 56 56 56 54 52 51 50 51 49 49 48 45 43 41 40 41 41 39
26 27 25 24 24 25 23 25 25 28 24 18 28 15 31 36 38 41 43 45 46 48 49 48 48 50 49 49 50 49 48 47 46 44 45 47 43 42 42 42 41 40 43 43
27 26 25 24 26 28 26 29 29 27 24 25 25 21 30 36 36 40 43 45 45 45 44 42 42 42 43 46 46 45 44 43 45 45 46 44 43 41 40 41 41 42 42 42
28 29 28 28 30 29 31 30 28 28 26 23 22 22 19 32 34 38 42 42 43 42 40 38 39 40 41 44 46 45 43 42 43 43 44 44 42 40 39 39 36 33 31 29
26 27 28 30 29 31 30 27 23 20 24 23 27 24 21 28 34 38 41 40 41 41 39 40 39 39 41 44 44 42 40 40 41 42 40 40 38 34 30 27 25 26 23 24
18 24 24 28 28 25 29 26 23 17 22 15 27 20 20 31 33 38 40 38 39 40 41 40 40 40 41 42 41 41 39 38 36 34 31 30 27 24 23 26 27 25 26 26
23 21 26 29 29 28 27 27 29 28 29 27 20 25 29 32 32 35 38 37 38 39 41 40 40 40 40 40 42 39 33 29 29 30 29 29 29 29 29 30 30 27 29 26
29 24 27 28 29 30 27 28 26 29 24 18 16 21 18 31 32 35 36 37 38 39 41 41 40 40 39 39 36 35 30 28 28 27 28 27 28 29 31 31 30 29 30 31
28 28 28 30 27 25 27 25 25 25 28 15 12 10 29 30 33 35 36 38 38 40 41 41 39 39 39 35 33 30 29 28 27 26 28 30 30 30 30 30 30 29 32 30
31 31 32 26 29 30 28 25 22 21 20 28 30 14 27 33 34 35 36 37 39 41 41 39 37 38 36 33 29 29 29 27 25 26 27 28 29 29 29 30 29 31 31 32
33 32 29 26 28 28 27 27 23 28 32 26 32 15 27 32 33 34 36 37 39 41 40 37 35 34 32 30 28 28 29 27 24 22 23 26 27 28 29 30 31 30 31 32
36 32 30 27 22 26 28 27 25 22 26 20 24 12 20 25 30 33 36 38 39 40 37 35 33 31 29 27 28 29 32 30 24 21 22 24 28 28 30 31 31 31 31 32
35 31 29 27 27 26 24 25 25 22 23 24 15 17 13 20 25 30 36 37 38 38 36 35 33 31 28 27 30 33 31 29 27 24 22 25 28 29 30 31 30 31 33 32
35 34 31 30 29 27 26 24 25 25 24 24 20 21 22 27 30 33 36 36 36 36 35 35 34 32 28 27 31 29 29 27 26 25 25 26 28 28 30 29 31 30 30 30
36 36 29 24 28 28 33 28 24 24 25 26 24 24 29 31 32 33 35 36 36 36 35 35 35 33 29 27 29 29 26 26 25 24 24 25 27 28 28 27 28 27 29 31
35 32 32 33 29 30 18 25 24 24 23 24 24 27 28 29 33 35 36 36 37 36 36 36 35 33 30 27 27 28 23 22 22 22 24 24 24 25 26 27 27 29 29 29
32 33 33 37 25 21 11 18 23 26 18 24 24 25 30 35 36 36 37 38 38 38 38 38 35 33 29 27 26 22 21 21 23 22 19 21 25 25 25 26 29 29 28 28
31 33 35 31 35 33 22 22 34 31 22 29 31 32 35 36 38 25 38 39 39 39 38 36 32 30 26 22 21 21 22 22 18 20 23 24 23 24 25 27 29 29 29 26
36 37 36 32 36 28 24 27 33 24 25 33 35 36 37 37 36 37 38 39 39 39 37 33 26 23 22 22 23 23 21 17 20 24 24 23 24 26 27 27 28 28 27 26
32 35 36 32 35 30 26 33 32 35 38 35 36 38 40 39 39 37 37 38 38 36 29 25 22 23 25 26 23 16 15 20 24 24 25 25 27 27 26 29 29 28 27 26
31 34 35 31 31 31 31 36 36 37 38 37 38 36 39 39 39 37 35 34 33 28 22 20 23 26 26 20 18 16 19 25 26 26 27 27 29 28 27 28 28 27 25 26
34 33 36 33 29 30 31 32 33 34 36 36 36 37 38 39 39 38 35 30 27 21 19 21 25 24 19 21 21 22 24 26 27 27 27 28 27 28 29 28 27 26 27 27
36 35 34 33 33 32 33 34 35 36 38 40 40 41 42 41 40 39 32 27 22 24 29 29 27 19 18 22 23 25 26 26 26 27 27 27 28 27 27 27 29 29 27 26
35 34 37 36 30 34 33 35 39 40 40 41 42 42 39 40 39 35 27 24 34 33 29 25 23 23 23 24 26 27 27 27 29 29 28 28 29 28 27 27 28 30 27 27

GFSCGP_sfc_dewp_015.txt.gz
Dewpoint
28 23 19 18 18 14 12 8 6 9 14 11 11 19 21 32 33 35 36 40 43 45 49 51 53 56 55 57 58 61 61 62 60 58 56 52 50 50 49 46 46 46 44 42
25 24 20 16 14 11 10 9 13 16 18 23 15 18 24 30 32 35 36 38 40 44 48 52 55 57 57 58 59 61 60 60 57 54 51 50 50 50 45 44 45 43 44 42
25 20 21 19 13 12 14 10 18 16 21 23 19 22 28 30 33 38 39 39 41 45 48 52 55 56 57 58 59 58 57 55 52 51 51 51 50 46 43 43 41 43 44 42
30 25 19 16 15 16 19 21 19 17 22 17 20 13 25 31 33 35 39 41 43 45 48 52 54 55 55 55 55 53 51 49 50 48 45 45 44 43 44 42 42 42 43 43
25 23 21 18 22 25 28 25 23 21 20 22 19 16 31 31 29 33 37 40 43 47 50 49 48 48 48 50 50 49 46 44 45 46 47 45 44 42 41 42 41 41 37 33
31 27 24 24 27 26 28 26 26 24 21 23 16 18 20 28 28 33 38 42 45 46 45 43 43 44 44 46 47 47 44 44 45 46 46 46 43 40 37 33 28 26 25 25
22 22 27 27 25 28 25 25 20 17 21 21 20 19 19 21 29 31 38 41 44 44 41 39 39 39 43 45 46 45 43 42 44 43 41 39 34 32 28 27 25 26 25 25
18 24 25 27 25 23 25 22 21 15 18 12 23 17 15 27 26 30 38 40 43 41 39 38 39 41 43 45 44 42 42 41 39 35 32 31 28 29 26 27 28 26 26 27
19 20 26 27 27 24 23 24 25 25 27 24 16 14 21 30 29 32 37 40 40 39 38 39 40 41 43 43 43 44 40 35 32 32 32 32 34 31 30 30 30 27 29 25
22 20 23 27 29 29 28 26 23 23 19 18 12 14 10 27 28 32 37 39 39 39 38 39 41 42 42 42 43 41 36 32 33 31 32 32 31 30 31 31 30 29 30 30
22 23 27 28 26 21 27 23 23 24 28 21 14 12 21 19 28 31 34 38 39 39 39 40 41 41 41 42 40 37 33 34 31 30 30 32 30 30 30 30 30 29 31 30
24 27 31 26 28 28 28 26 25 26 20 25 29 16 22 26 28 32 33 36 38 39 39 41 41 41 41 40 36 34 35 32 30 29 30 30 31 29 29 29 29 30 30 30
32 27 28 25 28 27 23 23 23 21 31 22 29 18 23 26 27 28 32 35 37 39 39 41 41 40 40 37 35 33 33 31 29 28 26 27 28 29 29 29 30 30 29 29
37 28 27 27 24 25 28 22 22 23 26 24 23 15 15 21 23 24 29 32 36 38 40 41 40 39 39 37 34 32 34 33 32 23 23 24 27 29 29 29 30 30 29 29
36 31 28 26 26 23 22 20 22 20 20 24 19 9 9 12 17 21 25 30 32 37 40 41 39 38 37 35 33 32 35 36 28 24 23 26 28 29 28 28 29 29 30 28
37 34 33 33 28 26 24 21 18 19 20 17 15 15 15 21 20 24 26 31 32 36 38 39 38 36 35 33 31 32 35 32 28 27 26 26 27 27 27 28 30 29 29 27
37 39 33 24 29 29 32 30 23 20 19 21 22 21 22 25 25 26 27 31 33 35 37 38 37 37 35 34 32 33 31 29 27 26 25 25 26 25 26 25 24 25 28 28
40 37 35 31 31 28 17 22 19 22 20 19 19 20 20 24 29 30 31 31 34 35 36 37 37 37 37 34 30 32 29 26 26 24 23 25 23 21 22 23 23 26 28 28
33 36 33 37 24 20 16 14 19 21 18 17 22 19 20 28 33 32 33 34 35 36 37 37 38 38 37 33 30 28 26 23 22 24 23 17 20 22 22 22 24 27 28 28
32 37 34 31 34 32 26 24 30 28 19 24 24 25 25 32 35 26 34 33 35 35 37 37 38 38 36 32 28 26 23 28 23 21 18 20 20 20 21 23 26 27 28 27
37 38 37 33 36 31 23 24 30 23 28 31 32 28 30 31 31 38 38 36 35 36 37 39 39 36 33 27 25 29 25 24 18 20 22 20 20 22 25 26 26 27 28 28
33 35 37 36 36 31 24 29 29 37 34 34 33 33 37 37 37 37 38 37 37 37 37 37 34 29 26 27 29 27 24 20 23 23 23 22 24 25 25 28 28 28 28 29
32 33 36 31 32 33 30 29 31 35 36 35 36 35 36 36 36 36 37 37 36 37 33 29 25 26 30 30 26 22 24 24 23 24 25 25 26 27 27 28 28 28 27 28
33 33 35 33 25 26 28 29 31 32 34 34 35 36 37 38 39 39 38 36 34 29 23 23 30 31 29 31 28 23 26 27 26 26 27 28 28 27 27 27 28 28 28 28
36 34 31 32 29 27 29 31 34 35 38 39 39 40 41 41 40 40 38 32 28 23 32 33 33 32 29 25 24 26 27 27 27 28 28 28 31 30 27 26 27 29 30 30
35 28 37 35 34 35 33 37 40 40 41 42 41 40 37 38 38 37 28 28 33 33 34 34 32 28 24 26 26 27 28 28 29 30 30 30 30 30 28 28 28 30 31 31

GFSCGP_sfc_dewp_018.txt.gz
Dewpoint
29 25 22 25 24 19 18 15 13 12 16 15 12 18 24 28 32 36 39 42 44 45 47 50 54 55 57 59 60 62 62 62 60 59 58 58 55 54 54 49 50 49 47 46
22 22 23 24 21 20 14 14 11 12 10 12 9 15 18 26 29 34 36 41 43 45 48 51 54 57 58 59 61 62 61 61 60 59 56 54 53 54 49 49 48 48 48 46
28 32 32 19 20 15 14 16 19 13 13 8 26 14 17 22 28 30 33 36 38 44 48 51 54 57 59 61 61 59 60 61 60 55 53 53 51 50 48 48 47 47 47 45
26 31 24 18 12 12 19 25 21 18 21 16 24 18 22 31 25 28 33 36 38 42 47 51 54 57 58 59 60 59 59 56 53 53 52 52 48 46 48 47 47 46 45 43
26 31 21 17 26 25 25 28 25 19 16 29 29 24 30 35 34 30 35 39 41 45 47 50 53 56 56 57 57 55 52 50 50 50 52 50 48 47 46 45 43 40 37 36
29 29 27 28 27 25 29 28 25 19 20 30 28 28 27 32 33 34 33 38 42 45 49 51 52 52 51 52 53 52 47 46 49 49 49 48 45 42 37 36 35 34 34 34
23 20 20 26 18 24 21 19 21 28 27 26 19 23 32 32 36 46 45 38 43 48 49 48 46 46 48 49 50 49 46 45 47 47 45 42 39 38 37 33 34 33 33 33
26 25 20 21 19 28 28 17 25 27 29 22 26 21 17 32 33 42 40 41 45 46 46 44 43 44 45 47 47 46 44 44 44 41 37 38 37 36 36 36 32 33 33 33
33 28 31 25 23 21 17 22 23 23 35 27 17 13 23 26 27 25 38 41 43 44 42 41 41 43 45 46 47 47 44 42 38 37 38 39 37 36 37 36 34 34 34 29
39 34 30 26 25 25 25 23 26 26 25 21 14 14 21 27 27 29 35 40 42 43 41 39 40 44 45 46 45 48 44 38 36 37 38 36 37 38 36 35 34 32 33 34
23 28 25 27 24 16 25 21 22 19 32 31 27 16 21 22 26 30 33 41 41 42 40 40 40 43 45 45 45 46 40 35 36 35 37 37 37 37 37 34 34 32 34 34
25 25 34 23 24 24 24 27 22 36 27 34 36 22 23 25 24 31 32 36 41 41 41 40 41 43 43 44 44 41 38 36 36 35 36 36 37 36 34 33 32 33 33 33
29 28 30 24 26 27 25 19 21 25 37 33 34 27 23 22 23 26 31 34 38 41 40 40 42 42 42 43 42 39 38 37 34 33 32 32 35 34 34 33 33 33 33 32
41 28 25 30 24 27 28 23 19 21 36 33 28 17 16 21 23 24 29 32 34 39 39 39 42 42 42 42 40 38 38 39 34 32 30 31 35 33 33 33 33 34 33 32
35 30 27 23 23 25 26 22 21 18 23 25 25 17 16 16 20 25 27 30 30 31 37 39 42 42 41 42 40 38 37 37 38 36 27 32 33 32 33 34 33 34 34 32
36 36 37 36 28 26 25 24 23 20 18 19 18 18 18 24 24 25 25 26 31 29 32 38 42 43 41 40 40 37 36 38 39 33 31 31 31 30 33 32 34 34 34 32
39 43 39 34 29 31 30 32 26 25 20 20 22 24 21 21 24 28 29 27 33 32 34 37 41 42 41 40 40 37 36 39 36 32 31 31 31 32 32 31 29 28 30 31
43 42 41 37 33 29 21 20 20 21 20 20 17 19 19 26 30 28 29 30 32 36 36 38 40 41 41 40 38 36 35 35 32 30 28 29 31 27 26 27 26 30 30 31
38 42 39 37 31 24 21 18 18 19 20 24 23 23 23 28 29 30 32 35 36 36 37 37 39 40 41 40 38 34 33 32 29 28 28 26 26 25 26 26 28 30 31 31
32 43 42 35 35 31 31 25 27 25 24 25 25 28 27 28 41 35 38 37 37 34 35 36 38 39 40 40 36 33 29 27 29 28 27 27 25 25 25 27 30 31 30 30
39 41 37 36 37 36 25 25 27 28 33 34 33 32 33 35 38 39 42 40 37 36 36 39 39 34 34 29 30 28 30 30 27 32 31 27 26 25 28 29 29 29 30 31
36 39 37 40 36 32 26 27 32 40 41 36 36 37 40 39 40 38 36 37 37 36 37 34 29 30 31 30 31 31 29 29 33 33 27 27 30 28 27 31 30 31 30 31
36 38 41 36 38 38 31 32 34 37 38 37 37 35 37 37 36 38 38 39 36 34 27 27 29 32 30 29 30 32 33 32 30 30 30 30 29 29 29 29 28 30 30 31
34 34 40 39 26 26 29 29 31 31 36 35 37 38 39 41 41 40 39 37 30 25 25 30 31 32 34 32 31 30 30 29 30 31 31 31 31 30 29 28 28 29 31 32
38 34 32 32 31 30 28 34 38 38 39 40 41 41 39 39 39 39 30 28 29 32 33 33 33 33 32 30 27 28 30 30 30 31 30 31 32 31 30 29 29 30 29 30
35 33 42 42 37 39 37 40 41 41 39 38 38 34 33 33 30 33 33 33 34 34 34 33 31 29 28 28 28 29 29 30 31 31 31 32 33 33 30 30 30 30 31 31

GFSCGP_sfc_dewp_021.txt.gz
Dewpoint
31 26 25 27 25 24 19 16 16 16 18 21 22 24 30 41 42 43 45 48 45 45 47 47 49 49 58 58 58 61 60 60 60 58 58 57 54 53 49 47 46 46 45 46
27 26 29 27 25 25 23 21 19 17 15 14 20 22 25 41 43 43 47 45 45 45 48 50 52 54 59 60 60 60 60 60 58 58 58 55 52 50 47 47 46 45 45 43
28 31 31 30 29 24 25 25 20 17 12 11 20 18 22 26 29 39 44 42 42 46 49 51 53 55 60 61 60 60 59 59 59 59 52 50 47 46 45 45 44 44 44 43
29 31 30 29 27 21 19 27 27 23 22 16 24 20 29 29 28 30 38 45 44 48 49 52 54 58 60 60 60 60 60 60 60 55 49 45 44 44 46 46 45 40 35 33
29 29 30 29 26 24 24 26 28 27 24 27 26 22 27 33 25 29 32 36 40 47 49 52 55 58 59 59 59 59 58 54 51 50 50 47 44 44 41 38 33 30 33 32
29 28 31 31 28 24 29 29 31 29 25 24 27 27 29 30 27 33 35 37 40 46 50 52 56 56 56 55 53 49 47 47 46 45 45 43 41 33 32 30 30 30 32 34
27 25 31 34 28 29 30 24 25 22 26 25 31 28 28 33 32 35 37 36 41 49 51 52 52 51 50 48 46 44 46 45 43 40 35 34 34 31 29 29 31 30 30 31
26 27 33 33 25 27 29 26 27 23 27 27 32 28 27 29 33 36 39 40 45 48 49 48 47 48 47 46 45 44 45 43 42 38 34 33 31 32 32 32 31 32 31 31
31 31 34 34 34 28 26 26 30 34 35 32 31 25 27 33 37 40 39 40 45 46 45 45 45 46 45 45 45 44 43 41 36 34 33 33 33 34 33 32 32 32 31 28
38 31 36 36 36 27 27 27 26 30 23 20 18 20 27 30 31 35 40 41 44 44 42 42 43 44 45 46 46 44 42 37 36 35 35 33 33 34 33 33 32 31 31 30
37 36 36 36 31 24 26 24 24 25 29 24 23 20 22 26 29 31 39 42 43 43 40 40 41 44 45 45 45 45 40 35 34 33 35 34 34 36 34 35 31 31 31 31
37 36 31 30 28 26 25 31 33 26 20 28 26 23 23 21 26 29 31 41 43 42 40 39 41 43 45 44 44 44 36 34 34 34 35 34 35 35 34 32 32 32 31 31
35 27 25 22 27 31 26 25 23 33 32 25 22 23 23 22 21 25 28 32 41 42 40 39 41 43 44 43 44 42 36 35 33 33 33 35 36 35 33 32 32 32 31 31
39 31 27 24 25 29 29 27 26 26 26 25 26 25 21 22 23 24 25 27 37 41 40 39 41 42 42 43 42 40 38 35 33 32 31 33 35 34 33 32 32 32 32 31
35 28 29 31 32 29 28 28 27 23 27 25 25 25 25 23 24 24 28 28 28 31 38 40 41 41 41 42 41 41 40 37 34 33 32 33 36 34 33 33 32 32 32 31
36 34 33 32 32 31 29 28 27 27 26 23 23 22 22 25 25 24 23 27 28 29 31 37 42 42 41 42 41 40 38 37 36 37 35 33 34 33 33 32 31 32 33 32
36 34 30 28 29 27 22 24 27 28 27 26 21 22 25 27 28 28 28 29 29 31 34 36 41 42 41 42 40 38 37 38 38 37 33 34 34 32 31 29 29 28 28 29
36 34 31 27 26 13 24 25 22 26 24 24 24 29 28 27 30 33 30 33 34 34 34 35 37 40 41 41 40 38 37 38 35 31 31 31 30 28 28 28 27 29 30 30
43 34 31 24 25 25 23 26 27 24 24 27 27 27 29 30 34 37 38 37 34 33 33 34 36 39 40 38 38 36 35 32 29 28 29 31 31 29 30 30 31 31 31 30
35 36 29 27 24 17 29 28 29 27 24 33 31 31 31 30 30 36 38 38 37 37 34 30 31 29 31 34 31 28 27 31 33 33 31 31 31 31 30 31 32 31 30 29
30 30 26 25 23 29 34 28 30 19 25 35 33 34 35 35 38 37 39 38 36 32 30 31 31 30 31 31 30 29 31 33 34 34 33 33 32 32 33 31 30 30 30 29
31 30 27 30 29 26 33 29 24 36 36 35 34 35 35 36 37 39 39 36 29 28 31 30 29 30 32 33 34 34 34 33 33 34 34 34 34 32 29 30 30 30 29 29
31 36 32 33 32 38 31 31 37 34 33 33 35 38 39 42 41 41 34 27 27 30 29 32 33 33 34 34 34 33 33 34 34 34 33 33 32 31 30 29 28 28 29 27
35 36 34 31 31 32 30 30 36 39 39 41 42 40 40 40 35 29 29 32 31 31 32 34 33 31 31 31 31 31 31 31 31 31 31 31 31 31 30 29 29 29 27 25
37 34 33 33 32 38 40 41 41 41 41 36 35 34 34 31 30 31 32 33 33 33 33 33 33 32 31 30 29 29 30 30 29 30 31 31 29 30 30 30 29 29 28 28
36 34 32 30 38 40 40 39 39 37 36 36 36 36 36 35 34 34 34 34 34 34 33 32 30 29 29 29 28 29 29 29 29 29 29 29 29 29 30 29 29 31 30 30

GFSCGP_sfc_dewp_024.txt.gz
Dewpoint
33 25 24 25 27 26 24 23 16 16 20 22 24 37 41 43 43 42 44 46 45 45 47 51 56 56 56 58 58 59 59 59 57 58 57 56 54 53 51 46 46 45 46 45
29 27 28 29 29 28 29 22 21 21 19 17 24 33 41 41 40 40 43 46 47 46 46 47 51 55 56 58 58 59 59 59 56 56 58 56 53 49 46 45 45 44 44 43
25 26 31 31 27 28 27 23 24 21 11 18 19 20 38 40 42 41 44 45 45 45 46 50 52 55 57 57 59 59 59 58 57 56 56 51 48 46 44 43 43 44 44 40
27 31 30 31 29 29 24 24 26 23 20 12 21 17 27 32 38 41 42 45 42 46 47 51 55 57 58 58 59 60 59 58 58 57 53 50 47 44 44 44 44 38 34 35
26 30 29 29 28 27 24 28 26 26 24 24 23 20 21 30 27 38 42 44 41 43 48 52 58 59 59 59 59 59 59 59 59 52 50 47 45 45 45 41 33 32 33 34
27 30 29 28 31 27 27 28 30 31 28 24 29 22 22 29 25 29 37 43 43 44 49 53 58 60 59 59 59 58 57 52 52 51 48 45 41 38 35 32 31 32 34 34
26 27 30 33 28 28 28 24 21 20 23 22 31 27 26 29 32 30 32 36 40 47 51 55 56 58 58 57 56 52 47 44 43 42 41 38 34 32 30 30 31 32 32 32
24 24 32 35 30 28 28 25 23 17 23 24 32 28 26 29 31 34 35 39 47 49 52 54 54 52 52 51 48 47 43 40 36 35 34 34 32 32 32 33 33 33 32 32
29 29 36 36 35 33 29 25 29 31 34 30 29 29 27 33 35 34 39 42 48 49 51 51 50 49 48 45 46 45 42 38 35 33 33 32 33 34 34 33 33 34 33 31
33 28 35 35 34 34 31 27 25 29 25 24 20 21 27 31 33 36 39 39 46 48 48 49 48 47 45 44 44 44 41 36 34 34 34 34 34 33 34 34 33 33 33 32
36 29 32 36 32 29 28 24 25 27 27 22 22 20 21 30 31 31 36 40 45 46 46 47 47 46 45 44 44 43 39 34 32 32 33 34 34 35 35 34 34 34 32 32
35 34 31 32 31 32 30 27 28 24 19 27 25 22 25 25 28 33 38 40 45 45 45 45 45 46 45 45 44 43 39 34 32 33 34 33 34 35 35 34 33 34 33 32
34 29 24 24 24 32 26 25 30 31 29 24 21 22 24 22 21 27 32 41 44 44 42 42 43 44 45 45 45 43 39 35 33 33 33 33 34 34 34 33 33 33 33 31
38 29 24 21 21 27 27 28 27 29 25 25 25 23 24 23 22 22 27 36 42 43 41 40 41 43 44 44 44 43 38 36 33 33 32 33 34 34 34 33 33 33 32 32
34 27 28 27 31 30 28 27 28 25 26 24 24 25 23 23 22 24 26 28 38 41 40 39 40 42 43 44 44 40 39 38 35 33 32 34 35 35 34 33 32 33 33 31
36 29 32 30 31 30 27 27 27 27 26 27 24 24 25 25 24 26 27 28 28 31 35 39 41 42 42 43 43 43 40 37 36 33 32 33 37 34 34 32 31 31 31 32
34 32 29 26 28 26 25 25 25 26 27 26 23 25 29 29 29 28 30 30 31 34 37 42 42 42 42 43 44 43 41 37 34 34 36 36 34 33 32 30 29 29 29 30
34 32 29 26 24 17 27 27 26 26 25 27 27 27 32 34 36 35 33 33 33 33 34 36 41 42 42 42 42 40 38 36 37 34 33 32 31 31 31 31 33 33 33 31
41 34 30 23 24 25 24 25 22 22 26 29 28 28 32 35 36 36 37 37 36 35 34 32 32 36 38 40 38 37 35 30 29 31 31 31 32 32 33 34 34 34 32 31
38 35 31 27 21 16 25 29 28 27 25 32 31 31 30 30 31 35 37 36 31 31 30 30 31 30 28 30 32 33 33 32 32 32 31 32 33 34 35 36 35 33 31 29
28 28 24 22 20 25 30 31 27 17 21 33 34 35 35 34 36 37 34 31 31 31 30 31 31 31 31 33 34 33 33 32 32 33 36 37 37 36 37 34 32 30 30 29
28 28 25 30 24 21 35 28 23 28 35 35 34 34 39 40 40 34 31 30 30 29 31 32 32 33 33 33 33 32 33 36 37 37 37 38 37 34 31 30 30 29 28 27
27 31 29 30 29 34 32 33 37 35 34 34 38 40 41 40 34 29 30 30 30 32 32 33 32 32 34 34 33 33 34 35 37 36 33 32 31 31 31 30 29 27 27 25
34 38 34 32 33 35 35 40 39 40 41 40 40 41 38 31 30 31 31 31 32 33 33 32 31 31 31 31 30 31 31 31 31 30 30 31 30 30 30 30 29 28 25 25
35 34 33 32 38 39 41 41 39 36 36 36 35 33 32 32 33 33 32 32 33 33 33 33 31 31 30 29 29 29 30 30 28 29 29 30 28 29 29 29 29 29 29 28
35 33 31 29 35 37 38 39 38 36 36 36 35 35 34 34 33 33 33 33 33 31 31 29 29 29 29 28 28 28 29 28 28 28 29 28 27 27 29 29 29 31 31 31

GFSCGP_sfc_dewp_027.txt.gz
Dewpoint
31 26 24 25 26 27 25 24 22 20 21 32 32 28 39 43 46 45 46 46 47 54 55 56 57 59 59 59 59 59 57 57 57 56 56 54 52 53 51 48 46 46 46 45
29 27 27 29 29 29 28 26 24 23 20 23 24 30 40 43 44 44 44 46 44 51 51 55 57 58 57 57 58 59 58 57 56 56 56 55 53 50 46 46 45 45 44 43
25 25 30 29 26 27 27 26 24 23 16 22 24 25 39 41 41 41 41 44 44 46 47 50 55 56 56 56 57 59 58 57 56 57 56 51 48 45 44 43 43 43 44 40
27 29 30 30 28 28 25 27 25 24 17 13 18 14 25 39 40 40 40 43 45 44 46 47 53 55 56 56 58 59 59 58 57 56 56 52 50 45 43 43 43 35 36 35
26 28 28 27 26 28 25 27 26 27 23 23 25 20 21 35 37 39 39 40 45 45 45 47 49 54 56 57 58 59 59 59 58 57 56 53 49 45 45 42 34 33 35 35
26 29 28 27 30 29 27 29 28 30 27 22 27 22 21 28 32 36 39 39 43 42 47 52 55 56 57 58 58 58 58 58 58 56 54 51 45 43 40 33 32 34 34 34
26 27 29 33 28 29 27 24 19 18 22 21 29 26 25 25 29 30 33 36 42 44 48 55 57 57 57 57 58 58 57 54 54 52 50 46 43 42 38 31 32 33 32 32
23 23 29 34 29 28 29 24 22 14 21 21 31 27 27 30 31 32 31 35 39 45 48 55 57 58 58 58 57 57 53 48 47 45 43 38 37 38 34 32 33 34 33 33
27 26 35 35 35 31 30 25 28 30 31 27 25 29 23 30 33 38 38 44 45 48 51 54 57 57 57 56 53 50 46 41 41 40 36 35 35 34 34 34 33 34 34 33
29 23 33 35 35 34 30 30 25 28 23 22 23 21 21 29 30 38 39 42 47 49 52 53 54 53 53 51 49 44 41 38 38 36 36 34 34 34 33 33 32 32 34 34
33 25 26 34 31 26 28 25 26 27 26 20 20 21 23 26 30 30 32 39 46 49 51 52 52 51 50 48 46 43 39 35 34 34 34 35 34 35 33 32 33 33 33 33
33 29 26 26 31 31 30 29 27 24 19 26 25 22 24 24 28 30 31 37 41 48 49 50 50 48 45 45 45 43 40 36 33 36 37 34 33 34 33 33 33 34 32 33
34 29 25 24 27 29 28 27 30 29 27 24 21 21 23 24 22 23 31 32 41 47 47 48 48 47 45 44 44 43 41 37 33 35 33 33 33 34 34 32 32 33 32 32
35 29 26 24 24 27 27 28 29 28 26 24 24 22 23 24 24 24 23 30 41 45 45 45 45 46 46 45 45 45 43 40 38 37 34 35 35 33 33 33 33 33 33 32
34 27 26 25 24 29 27 27 28 26 26 24 24 25 26 25 23 24 25 29 38 43 42 41 42 44 45 47 46 45 42 41 39 37 34 35 37 35 35 34 34 33 33 32
35 27 30 29 30 29 26 27 26 27 26 26 25 24 26 26 27 28 26 29 32 38 41 40 40 43 43 45 45 42 41 40 37 35 35 35 38 36 35 34 34 33 32 32
32 30 28 24 28 27 24 25 26 25 25 26 23 25 28 29 29 30 30 32 34 37 39 40 41 41 43 43 44 42 41 39 37 37 38 38 36 33 32 31 31 31 32 33
31 29 28 25 24 18 27 29 26 26 26 27 27 29 32 33 34 34 33 33 33 34 35 34 35 41 42 43 43 41 38 37 36 35 34 33 32 32 33 33 34 34 35 36
37 31 28 24 24 25 25 24 26 24 24 29 30 33 34 35 35 35 37 34 32 32 31 31 30 31 33 36 37 33 31 31 31 32 32 33 33 33 34 35 36 37 37 33
34 34 31 25 21 19 27 27 27 28 24 30 30 32 34 31 29 35 35 32 31 31 31 31 31 33 33 33 33 32 31 31 31 31 32 35 36 36 36 37 37 37 33 30
29 28 27 22 21 23 26 29 24 20 23 33 33 33 32 32 34 36 33 31 30 32 32 33 33 33 32 32 33 32 32 33 35 37 39 40 40 39 38 37 36 33 30 29
30 28 24 25 20 20 31 30 22 28 34 35 35 36 37 38 34 32 31 30 31 32 32 32 33 33 33 32 33 33 35 38 39 39 39 39 39 37 36 34 31 29 29 27
26 30 29 29 28 32 33 29 31 36 35 34 35 39 40 33 31 31 30 31 32 32 32 31 31 31 32 33 34 34 35 37 37 35 34 33 32 31 31 30 29 29 27 25
33 36 32 30 33 35 34 39 38 36 37 39 41 41 36 30 31 30 31 32 32 32 31 31 30 30 30 30 31 31 31 30 30 29 29 30 29 29 30 30 30 28 26 25
35 36 34 32 38 38 40 39 37 36 36 34 33 33 32 32 31 32 32 32 32 32 31 31 30 29 28 29 29 29 29 29 28 28 29 29 28 28 28 28 29 29 29 29
36 34 32 31 37 35 38 38 37 36 35 34 33 33 33 32 32 32 32 32 31 31 30 29 29 29 28 28 29 30 31 30 29 29 29 28 27 27 28 28 28 30 31 31

GFSCGP_sfc_dewp_030.txt.gz
Dewpoint
31 26 23 22 25 25 25 25 24 22 23 35 35 33 39 43 47 49 50 52 54 55 55 55 54 57 59 59 59 59 57 56 56 56 54 52 52 52 50 48 47 48 46 44
28 27 26 27 29 28 27 25 23 23 20 31 31 33 38 43 46 48 47 48 50 52 55 54 55 58 59 59 59 58 58 57 56 55 54 53 53 51 48 46 46 45 45 44
26 24 30 29 26 26 25 25 25 23 18 23 26 26 39 41 42 43 45 46 47 47 53 54 56 57 58 58 59 59 58 57 56 56 54 50 50 46 44 43 43 43 44 42
29 28 28 28 26 27 24 27 27 24 17 15 21 15 22 38 41 41 41 42 44 45 50 52 55 57 57 58 58 59 58 57 56 57 54 51 51 47 46 43 43 37 37 36
26 28 28 27 26 28 25 28 27 26 23 23 24 20 20 36 38 40 42 41 42 45 45 49 51 56 57 56 57 58 58 57 56 57 55 53 51 50 47 43 34 35 35 35
26 28 28 26 29 28 29 28 24 28 25 21 25 23 22 27 35 39 41 42 41 43 45 46 48 53 55 56 56 58 59 58 57 56 54 52 49 48 44 40 35 37 34 35
26 26 28 32 27 29 27 22 18 16 22 21 28 26 25 25 27 34 38 39 40 42 45 49 51 53 55 56 57 58 59 57 57 56 54 52 50 47 43 35 34 32 33 35
22 20 29 31 27 24 27 24 21 12 19 17 29 23 21 29 30 32 31 32 37 43 43 50 53 54 55 56 56 58 58 57 56 55 53 51 48 46 42 35 33 32 33 33
24 23 33 34 34 29 28 24 26 28 29 26 24 25 23 28 33 36 36 38 37 44 44 49 54 55 56 56 56 58 56 56 54 53 50 47 45 43 38 40 35 34 34 33
28 21 31 33 34 33 29 31 25 27 21 21 22 21 20 22 29 35 37 40 41 45 48 51 54 56 56 56 57 56 54 52 50 49 45 43 43 43 41 36 36 37 37 33
29 23 22 33 29 24 27 26 26 27 25 20 19 20 24 22 27 30 33 38 40 47 49 52 54 55 55 54 52 52 48 44 43 43 41 40 41 40 40 38 38 34 34 36
31 26 22 24 29 30 28 27 28 25 21 26 24 22 25 22 24 27 27 31 38 45 49 51 51 51 51 51 50 49 44 40 39 39 40 41 40 40 37 34 33 34 34 35
32 26 22 21 24 29 28 28 28 28 27 24 21 22 22 25 24 24 25 30 37 43 48 49 50 49 49 49 48 48 44 41 42 40 41 39 37 33 32 33 33 34 34 34
34 29 23 20 20 25 27 27 30 28 25 24 24 22 22 23 24 24 24 24 29 41 47 48 48 48 47 46 48 46 44 40 41 39 38 36 34 33 33 34 34 34 34 33
30 24 26 25 24 26 26 26 28 26 26 24 25 24 25 26 25 25 25 25 31 41 45 45 46 46 47 47 47 46 43 42 42 40 37 34 35 35 35 37 35 35 34 33
33 27 27 28 29 29 28 26 27 27 27 26 25 24 27 26 28 29 27 33 36 40 43 42 42 43 45 47 47 46 43 41 41 40 37 39 39 39 37 35 35 35 34 33
30 30 27 24 29 26 24 26 27 27 27 26 25 26 26 28 30 30 31 35 36 36 36 38 41 41 42 44 45 43 43 41 39 38 38 40 40 38 36 34 32 32 32 34
29 28 28 24 25 17 25 29 27 26 26 26 26 27 28 31 33 34 34 33 33 33 32 32 33 36 38 42 42 40 38 37 37 37 38 38 35 33 34 34 34 35 36 38
35 30 27 24 24 23 25 25 25 25 23 27 27 33 34 35 34 35 32 32 32 32 31 31 33 33 33 32 32 32 32 32 33 33 34 34 35 35 36 36 37 38 38 38
33 32 29 23 21 19 27 28 27 26 22 29 33 34 34 33 25 32 32 32 31 32 32 33 33 33 33 32 32 31 31 32 32 34 36 37 37 37 37 38 38 38 37 34
29 28 26 21 20 26 29 27 26 20 23 31 33 34 34 28 29 33 32 31 32 32 33 33 32 32 32 32 32 33 35 36 38 38 39 40 40 39 39 38 37 37 36 32
32 30 25 25 20 24 29 29 24 28 33 33 33 34 34 35 33 31 31 31 31 31 32 33 33 33 34 34 35 36 36 38 38 39 39 39 39 38 37 35 33 30 29 28
28 32 30 30 29 32 32 30 31 33 34 34 35 37 38 33 32 31 31 31 31 31 30 31 31 32 33 34 35 35 35 34 33 32 31 31 30 30 30 30 29 29 28 25
33 33 30 30 31 32 34 36 35 34 34 36 37 39 35 32 31 31 31 31 30 30 29 30 29 29 29 30 30 30 30 29 28 28 28 29 29 29 29 28 29 28 26 26
33 34 33 30 36 38 38 38 36 36 37 36 34 33 32 31 31 31 32 31 31 30 30 29 28 28 28 29 30 30 29 29 29 29 29 29 27 27 28 28 28 28 28 28
36 34 33 31 35 34 32 37 37 36 35 34 33 32 32 32 32 32 32 31 30 30 29 29 28 29 30 30 30 29 29 28 28 27 27 27 26 25 27 27 25 29 30 30

GFSCGP_sfc_dewp_033.txt.gz
Dewpoint
32 27 24 23 27 24 25 24 23 23 23 34 35 33 42 50 52 52 52 53 53 52 52 55 56 56 56 58 58 60 61 61 60 58 57 57 57 57 55 53 53 52 49 48
30 29 28 26 28 27 27 25 23 24 23 31 29 33 38 45 49 49 50 52 52 53 54 55 56 55 57 57 59 60 61 60 59 58 57 57 56 56 52 50 52 49 49 47
29 25 29 29 28 27 26 25 25 24 20 24 25 26 37 41 44 46 48 50 51 52 53 55 55 55 56 57 59 60 61 60 59 59 57 54 54 53 49 47 48 47 47 46
29 30 28 28 26 26 24 27 25 25 20 16 23 16 20 39 42 43 45 48 49 50 51 54 55 55 56 58 60 61 60 59 59 58 57 54 54 52 51 49 48 46 47 45
28 28 29 28 27 28 26 29 27 25 22 25 25 19 21 35 38 42 44 45 47 48 49 51 54 55 56 58 60 61 60 59 59 58 58 57 56 54 51 48 46 43 42 40
29 28 29 28 29 29 29 28 24 28 27 23 25 23 22 24 31 37 42 45 45 45 47 48 52 55 57 60 60 61 60 59 59 58 58 57 55 51 49 45 43 40 39 38
26 27 28 32 27 29 27 25 22 16 23 21 29 26 25 26 27 32 36 41 45 46 46 47 48 52 56 58 59 60 59 59 58 58 58 56 53 50 48 43 43 41 38 36
22 21 28 31 28 26 28 27 25 15 19 16 29 25 18 28 30 31 32 33 36 44 46 46 47 49 53 57 58 59 59 58 57 58 57 56 53 52 48 45 45 42 39 35
26 22 31 34 33 28 27 26 27 29 31 27 25 25 25 24 27 35 37 38 37 36 42 44 46 49 52 56 57 59 58 58 59 58 57 56 54 52 49 46 45 43 39 35
30 23 31 33 34 34 29 30 28 29 22 21 22 23 21 23 24 31 34 37 40 42 43 45 48 52 53 56 57 59 58 57 58 58 57 56 55 52 51 48 45 41 39 36
31 28 25 32 30 26 29 29 28 28 28 23 21 21 28 27 25 32 32 35 39 43 47 47 50 54 56 56 57 58 58 58 57 57 56 55 54 52 50 46 45 42 40 37
32 32 27 25 29 29 29 30 30 30 24 27 27 23 27 29 27 28 31 30 35 40 46 50 52 55 56 56 56 57 57 56 55 54 52 52 51 49 47 46 44 43 38 37
33 28 24 22 25 30 29 29 29 29 29 27 31 24 24 26 27 28 28 28 32 40 46 50 52 53 54 54 54 53 52 51 48 48 49 49 47 47 46 45 44 40 37 37
34 30 27 21 23 28 29 28 29 30 29 28 27 25 25 27 26 27 29 29 28 31 43 48 50 51 51 51 52 52 50 47 46 45 46 46 45 45 45 42 38 37 36 35
35 28 29 25 23 27 27 28 29 27 29 29 28 25 26 28 28 29 28 29 30 36 43 46 48 49 49 49 49 49 48 45 45 42 41 43 41 39 39 38 38 37 37 35
34 29 29 27 28 27 27 27 29 28 27 27 26 26 29 29 27 29 30 36 39 40 42 42 43 45 47 48 48 47 46 44 43 42 41 39 39 37 39 39 38 37 36 35
34 33 30 25 29 30 29 30 28 29 29 29 28 29 29 28 30 30 36 37 36 36 37 39 41 42 43 45 47 46 45 44 42 41 39 40 39 38 39 38 35 34 35 36
33 33 31 29 28 26 28 29 28 29 29 28 27 28 28 29 34 34 35 35 33 33 34 35 37 38 39 40 40 40 39 39 39 39 39 38 37 35 34 35 36 38 40 40
35 33 29 30 27 27 24 27 28 28 24 28 27 29 32 35 34 32 32 33 33 33 34 35 34 35 35 35 35 35 35 35 35 35 35 35 35 36 38 38 39 39 40 40
33 34 35 27 27 25 31 29 29 27 25 30 30 33 34 35 35 33 32 33 32 33 34 34 34 33 33 33 34 34 34 35 36 36 36 37 37 38 39 39 40 39 39 38
33 32 31 27 32 30 30 28 29 26 28 33 33 36 36 32 33 35 33 33 33 33 33 33 33 32 33 35 36 36 36 36 37 38 38 39 39 39 39 39 38 38 38 36
34 32 32 29 32 28 31 27 29 35 33 35 37 38 38 35 33 33 32 32 32 32 32 33 34 34 36 36 36 36 37 38 39 38 36 36 35 33 32 33 32 31 31 31
34 35 34 34 35 38 33 35 34 34 34 36 37 37 37 34 32 32 32 32 32 31 32 33 34 35 35 34 33 30 30 30 30 30 30 30 30 30 30 30 30 30 30 30
34 34 35 35 35 34 35 34 36 35 36 36 37 37 36 34 32 32 31 30 30 31 31 31 30 29 29 29 29 29 29 29 30 30 30 29 28 27 27 26 26 26 27 27
37 35 33 33 33 38 38 38 37 37 39 38 37 37 35 33 32 31 30 30 30 30 29 29 29 29 30 29 29 29 29 29 27 26 25 24 23 21 20 20 22 23 23 26
36 36 34 34 34 36 36 38 38 37 37 36 34 33 33 33 32 31 30 30 30 29 29 29 30 29 28 26 24 25 25 24 22 20 20 22 22 22 20 19 18 23 23 24

GFSCGP_sfc_dewp_036.txt.gz
Dewpoint
32 25 21 17 19 22 21 20 18 21 26 29 26 26 38 46 47 46 47 47 44 45 47 50 51 53 52 54 55 56 57 60 62 58 54 54 57 59 60 60 59 58 55 53
30 24 21 22 23 25 25 20 20 22 23 26 24 23 30 43 48 48 47 48 48 48 46 50 53 52 53 53 55 57 57 59 60 58 54 56 58 59 58 57 57 56 54 52
26 25 28 26 27 25 25 22 21 23 22 24 23 22 30 37 43 46 47 47 47 47 49 51 52 55 54 53 55 55 57 59 61 59 56 56 58 59 56 54 54 53 53 50
28 28 27 27 24 26 22 24 24 24 22 17 23 14 23 30 37 41 44 45 47 46 47 49 53 54 55 55 56 56 56 58 60 60 57 56 54 56 57 55 52 51 51 50
25 27 27 26 24 26 23 28 26 25 23 24 22 15 20 28 30 34 41 43 44 46 46 48 49 53 54 55 56 58 58 58 60 61 60 58 57 58 58 54 52 52 52 50
25 28 27 24 27 27 29 27 26 28 25 22 20 20 17 20 21 23 31 40 44 45 46 47 49 51 54 56 57 59 59 58 60 61 61 60 59 58 57 53 51 50 49 49
26 25 26 28 26 30 28 25 21 18 21 20 26 23 20 20 21 25 28 30 39 44 46 47 48 50 52 55 58 59 59 59 60 61 60 60 59 59 56 54 52 49 46 46
20 21 24 27 26 24 26 24 23 17 18 14 26 18 18 22 26 30 33 33 34 40 44 46 47 49 51 55 58 59 60 59 60 60 60 60 60 59 56 55 50 46 45 44
22 18 26 29 28 26 27 25 25 26 31 24 19 20 22 21 25 28 31 35 35 35 36 42 45 47 50 53 58 59 59 58 60 59 57 58 59 58 56 54 49 47 47 45
24 20 27 32 33 33 29 28 26 28 22 18 17 19 16 19 19 23 24 27 34 38 38 40 42 45 48 51 55 59 59 58 59 56 58 57 58 57 57 55 51 50 49 46
23 24 29 32 30 25 29 27 28 26 27 21 19 18 22 21 21 23 26 30 32 35 41 43 45 47 50 51 54 56 58 57 58 56 58 59 59 58 58 56 53 52 50 46
26 26 26 23 28 30 25 24 27 27 22 27 29 21 23 25 27 27 29 28 32 36 39 45 48 51 53 53 54 55 56 56 57 58 59 58 58 58 57 55 53 52 48 46
29 26 24 22 25 28 25 25 25 27 30 26 31 22 24 26 27 27 28 28 29 35 38 45 49 52 53 54 55 56 57 57 57 57 57 57 56 55 55 53 51 49 48 46
35 25 24 22 20 20 26 24 25 25 28 26 27 22 22 24 24 26 29 30 29 30 34 43 48 51 52 54 55 55 56 56 54 53 53 54 53 51 51 50 49 49 48 45
33 24 24 20 18 17 18 18 22 24 25 25 25 23 24 23 26 25 29 29 31 32 37 43 47 50 51 53 53 53 53 53 52 51 50 51 51 50 50 49 47 45 43 39
33 26 26 25 21 22 21 20 19 24 23 24 25 24 24 26 29 29 29 32 36 40 42 45 47 48 49 50 50 50 49 49 49 47 46 45 44 44 43 41 40 39 38 36
34 33 30 24 29 27 29 28 23 24 26 28 25 26 24 26 28 30 32 36 38 41 42 42 43 44 45 46 48 47 47 46 45 44 43 42 41 40 40 37 36 35 35 37
36 34 33 29 33 31 23 28 27 26 26 27 27 25 27 26 29 33 36 38 37 38 39 40 41 42 42 43 43 44 43 43 42 42 41 40 39 38 37 36 36 38 40 40
38 36 33 36 28 25 24 27 28 28 26 27 27 26 27 31 33 34 35 36 36 38 38 38 39 39 40 39 40 39 38 38 38 37 37 37 38 37 38 39 40 40 40 40
36 37 38 32 29 31 26 26 30 29 26 26 28 29 30 33 34 31 35 35 36 36 36 36 37 37 37 37 37 37 37 38 37 37 36 37 38 38 38 39 40 40 40 39
35 35 36 34 35 29 29 29 29 27 30 31 30 31 34 35 33 36 36 36 35 35 35 36 36 36 37 37 38 37 37 36 37 37 38 38 39 39 40 40 39 38 37 35
34 35 36 35 36 33 32 29 29 34 37 34 36 35 38 37 37 36 35 35 34 34 34 35 36 36 37 36 36 35 36 37 38 36 34 33 32 30 28 29 29 28 29 31
35 36 35 34 32 35 34 34 34 37 34 36 36 36 39 36 36 35 35 34 34 33 34 35 35 36 36 36 35 35 35 33 32 30 29 29 29 29 29 29 29 28 29 29
36 36 37 36 32 35 36 34 35 34 35 33 35 37 38 36 35 35 34 34 33 33 33 34 33 32 31 30 29 30 29 28 29 29 28 28 27 26 24 22 20 20 22 23
36 36 35 36 35 35 36 36 35 34 36 36 35 38 37 36 35 34 34 33 32 32 33 32 31 30 29 29 28 28 28 27 26 26 24 23 22 18 17 16 20 20 22 24
35 35 38 38 35 37 34 36 37 36 37 37 37 38 37 35 34 34 33 33 32 31 31 31 30 29 27 27 26 26 25 25 23 20 18 22 22 20 16 15 17 23 22 21

GFSCGP_sfc_dewp_042.txt.gz
Dewpoint
26 22 19 21 22 17 15 19 22 28 32 30 32 40 45 46 40 40 37 36 41 45 48 53 51 51 50 51 49 49 50 52 54 55 55 55 54 55 57 60 60 62 60 59
24 24 25 23 22 18 16 15 18 17 24 22 20 20 37 38 40 41 41 40 41 45 48 48 51 51 53 51 51 53 51 54 56 57 54 55 54 54 56 60 62 61 61 58
23 23 26 24 20 17 16 16 17 22 24 22 20 18 20 38 37 40 42 42 41 42 48 47 49 51 52 51 51 52 54 55 57 57 55 53 54 53 54 57 61 60 61 59
24 24 23 23 21 17 15 16 19 22 21 17 22 19 21 32 33 38 39 41 40 40 44 48 48 50 51 52 53 52 53 53 55 57 57 53 50 51 56 58 58 59 60 59
24 24 22 24 17 15 17 26 26 23 19 23 19 17 14 23 25 35 40 41 41 42 42 45 48 49 50 53 54 54 54 54 56 58 59 58 53 57 60 59 59 58 59 58
23 24 23 24 20 19 21 26 27 24 22 23 21 17 22 26 29 27 33 40 41 41 42 42 47 49 51 52 54 56 56 55 56 59 59 59 57 57 59 59 58 58 57 56
22 22 22 22 20 22 22 23 21 21 23 24 22 17 20 30 30 29 27 29 40 42 42 42 43 46 49 52 54 55 55 55 56 59 60 60 59 59 58 58 59 58 56 56
21 21 21 23 22 22 24 22 25 28 30 26 28 19 16 24 22 22 22 27 33 40 42 42 42 45 47 51 53 54 54 54 55 58 59 60 60 59 60 59 59 57 56 57
23 21 20 22 22 24 23 23 24 34 36 32 33 22 16 20 18 19 21 27 32 33 40 42 42 43 48 50 54 55 55 54 55 56 60 61 60 59 59 59 59 58 57 56
25 24 23 22 23 24 22 25 27 28 27 27 19 17 18 22 18 21 21 26 34 37 35 40 40 42 45 50 53 56 55 55 55 58 61 61 61 59 58 59 59 58 56 51
24 27 27 24 22 20 22 23 28 29 27 28 26 22 32 32 34 24 24 27 31 35 40 40 41 43 45 46 49 55 56 56 57 58 62 61 60 59 60 60 60 59 52 51
25 29 27 25 23 24 23 24 26 29 26 32 37 27 26 30 30 28 30 28 30 34 36 40 44 45 45 46 49 56 57 58 58 60 61 60 60 58 58 58 58 55 52 51
27 26 27 24 24 25 23 22 24 27 30 30 33 28 24 24 23 25 26 26 29 31 32 39 44 47 48 49 50 53 57 57 59 60 60 60 57 58 58 58 57 54 52 51
38 28 26 26 24 26 24 21 27 30 31 31 32 28 29 26 29 31 28 26 27 32 31 34 43 48 50 52 53 53 57 58 59 60 59 58 58 57 56 55 54 53 53 51
35 29 27 26 22 21 24 22 20 24 28 26 27 23 22 24 32 35 32 30 29 29 30 33 40 48 51 54 55 55 58 59 58 58 57 57 56 55 54 53 53 51 51 50
36 30 31 29 25 21 21 20 21 20 20 19 20 22 24 24 32 32 31 24 28 28 28 31 37 48 51 54 54 56 56 56 56 55 54 55 55 53 54 53 52 49 46 42
32 33 31 29 28 26 25 24 20 22 20 19 19 23 23 22 25 30 28 25 26 30 36 40 42 49 52 53 55 54 54 54 53 50 49 51 50 49 47 44 42 41 40 40
33 32 32 32 35 24 24 24 22 21 19 20 20 20 21 22 23 27 30 33 34 37 40 44 48 51 51 52 51 51 50 48 47 46 45 45 44 42 40 39 38 39 39 39
38 39 38 33 29 26 21 23 25 24 23 24 22 21 21 21 26 34 34 39 40 42 44 46 47 48 48 47 46 45 44 44 43 43 42 42 41 39 39 39 39 39 39 39
33 36 37 37 29 27 31 27 26 25 24 27 25 26 26 27 36 33 36 40 41 42 43 43 44 44 43 43 43 42 40 40 40 40 40 40 40 40 40 41 42 41 41 40
35 37 35 36 33 33 30 28 26 25 30 33 32 31 31 35 36 38 39 40 40 40 40 41 41 40 40 40 40 39 39 39 39 40 39 40 40 40 40 40 40 40 39 39
35 35 36 37 34 31 34 32 27 35 35 38 35 36 42 40 41 39 39 39 39 38 38 39 39 39 39 39 39 38 37 38 39 39 39 40 40 39 38 39 36 35 34 34
34 34 36 37 37 40 41 36 37 39 39 39 38 37 39 40 40 39 38 38 37 37 37 37 38 39 39 39 38 37 38 39 39 39 38 37 33 31 30 31 31 31 32 31
29 37 35 36 34 35 40 40 39 37 40 38 35 37 40 40 40 39 38 37 37 36 36 37 38 38 38 38 38 39 38 37 37 33 30 29 28 27 27 22 24 28 28 28
33 36 35 35 34 32 33 36 40 40 40 39 37 38 38 39 39 38 37 37 36 35 37 37 38 38 37 37 37 36 35 32 31 30 28 27 27 24 23 21 24 25 22 25
31 31 35 35 35 42 40 41 41 41 39 38 40 39 37 37 40 38 38 37 36 36 37 37 38 37 35 35 33 31 31 30 28 26 26 29 28 25 22 22 21 26 23 22

GFSCGP_sfc_dewp_045.txt.gz
Dewpoint
29 26 23 22 23 23 22 18 17 27 31 32 37 38 37 39 46 42 46 44 51 51 51 49 49 50 50 50 51 51 50 51 48 49 48 47 49 50 53 55 59 56 56 59
27 24 24 23 22 23 24 20 17 23 29 31 29 37 38 42 45 40 38 45 45 49 51 48 48 49 49 49 50 50 49 49 49 50 49 50 51 53 53 58 59 58 58 60
25 26 25 24 25 23 21 18 17 20 26 25 23 24 38 42 45 41 37 39 42 46 51 49 47 48 49 47 48 49 49 49 50 50 53 54 54 52 53 56 58 58 60 60
26 26 24 23 24 23 19 19 22 25 24 21 22 21 37 41 42 41 39 38 39 45 48 49 49 50 50 49 48 48 49 49 50 54 54 52 51 49 51 55 58 59 60 59
24 25 25 24 24 24 23 26 26 29 26 22 21 23 25 37 38 40 41 41 41 43 48 48 49 51 50 49 49 50 51 50 53 55 55 56 51 51 53 55 58 59 59 58
24 25 24 24 25 25 21 30 30 30 27 22 22 22 22 31 30 37 39 41 41 43 48 47 49 50 51 49 49 50 51 52 53 55 57 57 55 52 56 57 57 57 58 57
25 24 24 25 24 26 22 24 24 22 23 22 32 30 25 27 29 36 35 40 41 41 46 47 47 48 49 50 50 50 50 51 52 53 56 57 57 56 56 56 57 57 56 56
24 22 23 24 23 22 23 23 26 21 26 29 34 29 24 27 28 28 30 40 41 40 41 46 47 48 48 49 51 51 51 51 52 54 55 57 57 56 57 57 57 57 57 57
24 22 24 22 24 23 26 24 28 35 36 31 33 33 32 27 25 19 20 24 37 40 40 41 46 48 49 49 50 52 53 53 54 56 57 57 58 57 57 57 57 58 57 55
28 25 25 24 23 24 23 27 27 34 28 28 30 31 28 26 27 25 20 21 26 33 40 40 42 47 48 50 51 52 52 54 53 55 58 58 58 58 58 58 57 56 55 53
24 25 27 30 27 23 25 23 27 32 32 27 23 25 31 30 33 29 25 28 30 31 36 40 45 48 49 55 56 54 54 55 56 56 57 58 59 58 58 57 57 57 53 51
25 28 24 24 28 28 25 24 27 30 28 31 29 27 31 30 30 26 26 25 28 31 35 39 46 48 50 53 54 53 54 57 57 57 57 60 60 59 58 58 58 57 53 51
26 24 22 24 24 28 24 24 25 28 33 30 27 28 31 30 30 29 25 25 29 27 29 40 42 44 45 46 52 53 56 56 57 58 60 60 59 59 59 58 56 53 52 51
33 26 22 21 24 28 27 26 25 24 28 27 31 30 31 30 31 27 33 35 34 29 29 39 43 46 47 49 52 55 57 58 59 60 60 59 57 57 56 55 54 53 52 50
37 26 26 22 26 27 27 26 24 22 25 29 31 30 28 29 28 30 35 37 37 30 29 34 43 47 50 51 54 57 57 58 60 60 58 55 54 54 53 53 53 52 51 50
40 30 30 28 27 24 24 25 24 25 28 31 29 28 30 30 32 33 33 33 34 28 25 29 46 50 53 54 56 55 56 56 58 57 56 55 54 53 53 52 51 50 48 45
39 36 31 25 29 28 26 27 24 26 26 26 26 26 24 25 30 31 31 29 28 29 30 32 43 51 53 54 54 54 54 54 54 54 54 53 53 52 50 46 44 42 41 40
39 38 34 28 30 26 27 27 26 26 24 23 21 23 22 22 23 28 30 29 30 35 39 42 50 52 53 53 53 53 52 49 50 50 49 49 46 43 41 41 40 39 39 39
41 38 33 29 27 28 29 25 25 25 24 26 23 23 23 22 24 32 32 34 37 40 44 48 50 51 51 51 50 49 47 46 45 44 44 42 40 39 38 38 38 38 38 38
40 39 34 31 27 24 30 31 30 28 24 27 28 29 29 27 29 30 35 41 43 44 46 46 46 46 46 45 45 44 43 43 42 42 41 40 39 38 39 39 38 39 38 38
33 32 32 31 32 31 33 30 30 25 25 30 32 32 33 30 35 36 41 42 43 43 44 44 43 43 42 42 42 40 40 40 40 41 40 41 41 40 40 40 40 40 39 38
33 32 32 34 31 28 39 38 30 36 36 35 35 33 36 38 38 39 40 41 41 41 41 41 41 40 40 40 39 38 39 39 40 40 40 40 40 39 39 39 39 38 37 35
31 35 35 36 35 41 40 42 42 42 40 40 39 37 37 40 39 40 39 39 39 39 39 39 39 39 39 39 38 37 38 39 40 39 39 39 39 39 39 36 33 33 33 30
32 36 35 36 36 36 36 40 44 45 42 40 40 41 41 40 40 39 39 38 38 38 37 38 39 39 39 39 38 39 39 39 38 38 37 35 31 29 25 27 28 26 26 26
32 36 35 34 33 34 36 40 46 43 45 39 43 42 38 42 40 39 39 38 37 37 38 39 39 38 38 38 38 37 38 37 33 31 29 28 26 23 24 25 23 22 24 26
34 33 34 32 37 39 39 40 42 42 42 42 41 41 38 38 40 39 38 38 37 37 38 38 38 37 37 36 36 35 34 32 29 26 26 27 26 23 21 22 21 24 23 22

GFSCGP_sfc_dewp_048.txt.gz
Dewpoint
29 26 24 24 25 24 24 23 21 20 28 35 35 34 35 43 45 43 45 49 51 51 49 50 51 51 51 52 52 52 53 52 51 50 49 49 49 50 49 49 53 55 57 59
26 25 26 27 26 24 23 22 22 20 28 31 32 35 38 39 43 42 44 49 51 50 48 49 50 50 51 51 52 51 51 50 49 48 47 48 48 49 48 48 52 56 56 57
23 26 27 26 24 23 23 22 21 17 25 27 30 29 35 39 42 43 43 46 50 51 49 48 49 49 50 50 51 51 50 48 49 48 47 47 48 48 47 47 52 56 56 55
27 25 25 26 24 23 21 25 21 24 24 21 22 19 34 37 39 43 41 43 46 51 50 48 48 48 48 49 50 50 49 49 49 50 48 47 47 47 48 49 52 56 57 58
29 27 26 25 24 25 24 28 24 24 23 23 23 21 25 35 40 42 39 39 43 50 51 48 47 48 48 48 48 49 49 48 48 49 50 50 52 53 52 52 54 57 58 59
28 27 25 25 26 26 26 28 28 28 27 23 26 24 24 38 38 41 42 37 38 44 51 50 47 48 48 48 47 47 48 48 48 49 51 53 54 52 52 53 54 55 58 59
23 25 26 26 24 26 24 26 23 22 23 23 32 30 29 28 38 39 41 41 39 40 46 51 48 48 49 49 46 47 47 48 48 49 51 53 55 54 52 52 53 55 57 57
22 24 25 27 25 24 24 24 24 20 24 24 32 26 27 31 34 31 40 41 42 41 43 47 49 49 51 50 49 47 48 50 49 50 52 54 54 56 55 53 55 56 56 56
25 24 26 25 25 24 24 23 26 32 35 30 29 32 30 29 27 26 33 37 41 42 43 47 47 49 50 50 49 48 47 50 50 51 53 54 55 56 55 56 56 57 57 56
27 24 26 25 26 25 24 28 27 32 26 23 28 31 29 30 25 26 24 34 40 41 42 47 47 48 50 51 50 50 49 48 49 51 52 53 54 55 56 56 56 57 57 55
23 25 25 28 26 22 25 24 29 32 31 26 25 25 29 30 30 29 26 25 29 39 41 42 47 48 49 50 50 51 52 52 52 54 53 54 55 56 58 57 57 57 56 55
26 26 22 22 26 27 25 25 27 29 28 30 28 26 30 31 31 30 28 26 30 35 38 41 42 46 49 50 50 50 52 53 53 54 55 55 58 58 58 58 58 57 56 54
37 26 23 23 23 25 25 26 26 30 32 29 27 28 32 32 31 28 29 28 28 30 36 42 44 45 47 49 50 50 51 52 54 55 55 57 58 58 58 59 60 60 55 53
41 32 24 21 23 26 26 27 26 26 26 25 28 26 30 30 29 30 30 33 32 29 30 41 43 46 47 47 50 52 53 54 54 56 57 57 58 58 59 59 59 57 54 52
43 35 31 26 23 25 24 22 26 26 26 25 25 30 30 31 30 31 31 34 34 32 29 35 43 44 47 49 52 50 53 53 56 57 57 58 59 59 58 57 54 53 52 52
43 37 36 28 27 24 23 28 25 26 27 25 25 28 32 32 30 31 33 33 33 33 30 31 42 47 50 53 56 56 56 55 57 57 57 59 57 57 55 54 53 52 50 49
39 38 35 27 28 27 24 26 26 26 26 29 29 31 31 30 29 31 32 33 32 32 27 29 41 48 52 55 55 55 56 58 58 58 57 55 55 55 53 52 50 48 47 46
38 36 36 30 28 23 26 26 25 25 26 26 25 25 26 27 25 28 32 32 32 32 31 31 46 51 54 54 54 53 54 55 55 55 54 53 52 50 49 48 45 44 44 44
40 36 32 30 30 29 28 29 28 26 25 27 25 23 23 23 25 26 30 32 33 32 34 39 49 53 53 53 53 51 51 52 51 50 49 48 47 45 44 43 43 41 40 39
38 38 33 32 28 27 29 30 32 29 24 27 28 28 28 28 25 27 31 35 37 41 46 50 51 51 52 50 49 47 46 46 45 44 45 44 42 41 39 39 38 38 38 37
32 32 30 30 29 33 36 37 34 26 26 39 39 34 31 29 31 30 36 41 43 45 47 48 49 50 48 46 46 44 44 43 42 41 40 39 39 39 38 38 37 37 37 37
30 30 30 32 31 26 41 36 32 37 41 40 41 39 38 37 36 37 40 42 43 44 44 45 45 44 43 43 43 41 41 41 41 41 40 40 39 39 39 38 38 38 38 35
29 33 32 34 31 39 42 37 42 42 41 42 40 39 41 39 38 39 40 42 43 43 42 42 42 40 40 40 41 39 39 40 40 40 39 39 39 39 39 38 37 37 35 32
27 37 35 36 33 36 36 41 43 44 43 43 42 41 42 40 41 41 41 41 40 39 39 39 39 39 38 38 39 39 40 40 39 39 38 38 35 30 30 29 31 31 29 29
31 35 33 35 34 35 35 37 41 41 41 39 40 42 42 43 41 41 41 40 39 38 39 39 39 38 38 38 38 39 39 38 36 33 29 26 27 26 22 22 23 25 26 26
38 38 35 33 40 38 36 37 42 39 40 40 40 41 41 40 39 40 40 38 38 38 39 38 38 37 37 37 37 35 34 32 29 26 25 24 25 23 18 19 21 25 26 27

GFSCGP_sfc_dewp_051.txt.gz
Dewpoint
27 24 24 24 24 24 24 23 22 22 22 29 29 33 34 41 44 46 45 48 49 50 50 50 51 51 52 53 53 55 55 55 55 54 53 53 53 52 48 48 52 53 55 58
26 24 25 26 26 25 24 22 21 22 23 31 30 32 35 42 42 44 43 47 49 50 48 50 50 51 51 52 52 53 53 53 53 54 53 53 53 52 48 48 50 53 55 55
27 25 27 26 26 25 24 22 22 21 22 30 30 25 30 38 41 43 44 46 49 50 49 49 49 50 50 51 51 51 52 51 50 50 50 49 51 50 48 48 49 51 55 55
27 27 25 26 24 25 22 24 24 24 23 20 24 20 22 33 39 42 42 45 49 51 50 48 49 49 49 50 51 51 51 50 49 49 47 47 47 46 47 48 48 49 53 56
30 28 25 24 24 26 24 28 26 26 24 23 23 20 21 35 37 39 42 43 46 51 51 48 48 48 49 50 51 51 50 50 49 49 48 47 47 48 48 49 49 51 54 56
29 29 27 26 27 27 27 27 27 29 26 23 23 22 24 29 33 37 40 42 44 49 51 49 48 48 49 49 49 50 49 49 49 49 49 49 48 49 50 51 51 52 53 56
23 26 27 28 26 28 26 25 22 20 22 23 27 30 29 28 33 36 40 41 42 45 51 50 48 47 48 48 48 49 49 49 49 49 49 49 49 51 52 52 52 52 53 55
20 21 23 27 26 25 25 25 24 19 22 21 31 26 26 30 31 35 39 42 39 41 49 50 49 47 47 48 47 47 48 48 48 48 48 49 50 52 54 53 53 52 53 54
23 21 25 25 26 26 25 23 25 28 32 29 27 29 29 30 29 31 31 41 41 38 42 49 50 48 47 48 48 46 47 47 48 48 48 48 49 51 53 55 54 53 54 55
26 24 27 26 26 26 24 28 26 29 24 24 25 29 25 28 28 25 23 37 41 41 39 42 49 49 48 49 49 48 47 46 47 48 48 48 50 52 53 54 56 55 55 55
23 25 23 26 26 23 24 24 29 29 28 22 22 23 32 32 31 28 26 26 35 42 43 42 45 49 49 51 51 50 47 48 50 50 49 49 50 53 54 55 55 56 56 57
28 27 23 21 24 27 24 24 28 25 26 29 28 24 29 30 31 30 28 28 27 36 42 43 45 47 49 50 51 50 50 48 48 50 52 52 52 53 54 56 57 57 57 57
37 30 22 22 23 25 22 24 27 31 31 27 26 26 31 32 31 31 29 29 27 31 36 41 43 47 47 49 50 51 51 49 50 49 50 52 53 55 55 57 57 58 57 57
40 36 30 24 24 25 26 24 26 26 26 25 27 26 27 29 30 30 30 29 28 29 31 39 41 43 47 48 49 50 51 52 52 51 51 52 53 55 57 57 58 58 58 57
41 36 36 36 35 32 24 24 26 24 26 24 25 27 27 29 30 30 30 31 32 33 29 37 43 44 44 47 49 49 50 51 52 53 53 53 54 56 57 57 57 58 57 55
42 35 37 33 35 30 26 24 23 23 28 26 25 26 30 31 31 31 31 31 32 33 33 29 40 43 46 47 48 49 51 52 52 52 53 54 55 57 57 57 58 56 54 53
38 35 32 30 34 34 26 26 24 25 28 28 27 28 30 31 32 32 31 31 31 32 33 32 33 43 45 46 47 48 49 52 54 54 54 55 57 57 57 56 53 53 51 50
37 35 34 30 30 27 30 28 27 26 27 28 27 28 29 30 30 30 31 32 33 33 32 32 31 43 46 50 53 53 55 55 55 55 56 57 57 56 54 52 51 48 47 46
38 34 30 25 27 27 24 31 30 34 31 29 27 27 25 25 25 23 25 31 34 34 34 33 31 46 52 53 53 53 55 55 55 55 54 54 53 51 50 48 47 45 44 43
37 36 29 31 26 22 21 24 31 36 30 37 39 35 30 30 27 27 28 30 32 34 34 41 49 52 53 51 52 52 53 53 53 52 50 50 49 48 46 45 43 43 42 41
31 33 31 29 28 29 32 33 39 29 31 39 40 39 37 31 32 31 33 33 37 40 45 49 51 51 51 50 50 49 48 49 48 48 46 45 44 44 42 40 40 39 38 37
29 30 30 31 28 24 39 39 33 37 40 40 41 40 39 40 40 38 38 39 42 44 48 49 49 47 47 47 47 45 44 42 42 41 40 40 39 39 39 39 38 37 36 34
28 30 30 32 30 35 42 38 40 40 42 41 42 43 42 41 40 40 39 41 42 44 45 46 45 42 42 43 44 42 41 41 40 39 39 39 39 38 38 37 36 35 33 33
28 34 32 33 26 32 35 40 40 40 42 43 44 41 41 42 43 41 40 40 41 41 41 41 41 40 39 40 40 40 40 40 39 39 38 36 33 30 30 31 33 32 31 31
30 34 34 32 36 39 35 39 40 41 44 43 41 40 40 40 41 41 42 41 42 41 40 40 40 39 39 39 39 39 39 39 36 32 30 29 27 26 25 26 27 27 28 31
37 35 34 32 39 39 40 40 40 40 40 40 40 40 40 40 40 40 42 42 40 41 40 39 39 38 38 37 35 36 37 34 31 28 28 26 24 23 22 22 23 28 29 29

GFSCGP_sfc_dewp_054.txt.gz
Dewpoint
31 27 25 24 25 23 20 21 21 21 22 22 22 24 25 40 46 47 48 47 47 48 50 50 51 52 52 53 54 54 56 56 56 56 56 55 54 52 51 53 56 57 57 59
26 25 26 26 26 24 23 22 21 21 22 23 25 28 32 37 43 45 47 46 47 48 48 50 50 51 52 52 53 54 55 56 56 56 55 55 55 54 54 51 53 55 56 58
26 26 26 25 26 24 24 22 22 20 23 25 29 27 26 35 41 43 45 45 46 48 48 49 49 50 51 52 52 54 54 54 54 54 55 55 54 53 53 51 49 52 54 54
28 29 26 26 24 24 22 25 24 23 23 21 27 24 22 25 35 41 43 44 45 49 49 49 49 49 49 50 51 52 52 51 52 53 53 53 53 50 51 50 48 49 53 55
28 28 27 25 25 25 24 27 25 25 24 23 22 20 21 34 33 36 40 43 44 47 50 49 49 49 49 50 51 50 51 51 49 49 50 52 52 52 52 49 49 50 51 54
28 30 27 27 27 26 27 27 27 27 25 22 22 21 21 22 29 30 36 41 43 46 50 50 49 49 49 50 51 50 50 50 49 49 49 49 49 48 49 49 49 49 51 52
23 27 28 27 25 28 26 24 21 20 23 23 25 24 24 27 28 31 32 38 42 44 49 50 48 48 48 49 49 50 50 50 50 49 49 48 48 48 48 48 49 50 50 51
20 19 25 27 26 25 25 25 23 19 21 19 31 27 26 30 31 32 33 38 42 44 48 50 49 48 48 48 49 50 50 50 50 49 49 49 48 48 48 49 49 51 51 51
22 21 25 25 27 26 25 24 25 27 30 27 26 27 27 28 29 28 31 40 40 43 46 49 50 48 48 48 48 49 49 49 49 49 49 49 49 49 48 49 52 52 52 53
26 23 26 26 26 27 25 28 26 27 23 22 24 27 22 23 24 29 26 35 42 40 42 47 50 49 48 48 48 49 48 48 49 49 49 49 49 49 50 51 52 53 53 53
24 25 24 25 25 23 24 24 28 27 27 21 20 22 30 28 30 30 28 25 36 42 39 41 48 50 49 49 49 49 48 49 48 49 49 48 48 49 50 51 52 54 54 54
33 26 22 19 23 26 24 25 29 25 23 28 25 22 27 31 30 31 31 29 27 40 43 40 41 48 49 48 49 49 48 47 47 49 49 49 49 49 50 51 53 54 55 56
35 32 23 24 24 25 23 23 25 30 29 25 24 23 30 30 31 31 31 29 30 28 37 43 43 45 49 49 49 49 49 47 48 49 49 50 50 50 51 52 53 54 55 55
40 35 32 28 31 35 32 29 25 25 24 24 25 25 26 28 29 28 30 31 30 29 30 39 43 45 47 49 50 51 51 51 49 48 48 49 51 51 51 52 53 54 55 55
39 30 36 36 36 35 33 31 27 25 25 24 23 26 27 28 29 29 30 31 31 30 30 32 40 43 46 48 49 50 51 51 51 50 49 49 50 51 52 53 54 55 56 56
39 32 34 32 34 30 29 31 27 26 25 27 26 25 28 29 30 30 30 31 31 31 31 31 33 41 43 46 48 49 50 51 52 51 50 50 50 51 51 53 54 55 56 57
36 33 30 26 31 29 26 28 25 29 28 27 25 27 28 28 30 31 31 31 31 32 32 33 32 33 42 44 47 49 50 50 51 52 52 52 52 52 53 54 56 56 56 56
35 33 31 28 28 21 24 29 33 30 29 24 25 33 29 29 29 31 32 32 33 33 33 33 34 33 38 44 47 48 49 51 51 51 51 52 53 54 54 56 56 56 53 51
38 34 27 24 24 26 24 28 33 29 25 22 32 38 38 34 27 25 26 28 31 32 33 34 34 34 37 45 48 50 52 51 52 53 53 53 54 54 53 52 51 49 47 46
35 34 30 29 21 18 20 22 34 34 25 37 38 39 39 38 29 29 30 31 31 31 32 33 35 43 46 50 52 52 53 53 53 53 52 52 52 51 49 47 45 44 45 42
31 32 30 28 27 27 30 34 38 28 18 36 39 39 40 38 36 38 41 40 37 36 39 40 45 47 49 50 51 52 53 52 49 48 48 49 48 46 44 42 42 42 40 37
29 27 26 29 28 21 36 36 30 32 35 38 38 36 40 41 41 41 41 40 42 43 46 48 47 47 47 48 48 48 46 46 45 45 44 42 41 40 40 40 39 37 35 33
27 29 28 29 28 32 40 35 36 39 37 37 38 37 40 41 41 42 41 40 42 43 44 45 44 43 44 45 46 43 41 42 43 40 40 39 38 38 39 38 36 35 34 32
29 34 31 31 30 33 37 39 39 40 39 38 39 38 41 41 40 40 40 42 41 41 43 43 42 41 40 41 41 42 42 41 41 38 36 35 34 33 33 33 34 34 33 31
27 33 31 31 35 37 39 41 38 40 40 40 42 42 38 36 37 39 40 41 42 42 42 41 39 39 38 40 40 41 41 38 34 33 31 30 30 29 28 28 29 30 31 32
36 33 30 28 37 38 37 40 36 38 36 34 33 32 31 30 36 39 37 36 37 37 36 35 34 32 31 31 32 34 35 34 33 30 29 28 28 27 26 26 26 30 30 29

GFSCGP_sfc_dewp_057.txt.gz
Dewpoint
33 30 26 24 26 23 22 20 19 21 22 21 23 23 24 28 46 48 49 50 50 50 50 51 52 54 54 55 55 56 57 57 57 57 57 57 57 57 57 56 57 58 56 56
29 29 30 26 26 24 22 22 21 22 22 22 21 23 27 32 37 43 46 49 50 49 50 51 52 53 53 53 54 55 57 57 57 57 57 58 56 56 58 57 57 57 57 55
27 27 29 26 25 24 24 23 23 20 22 23 26 25 24 28 38 41 45 47 48 48 49 50 50 52 53 53 54 54 56 56 57 58 58 58 57 55 55 54 55 56 58 58
27 28 26 25 24 25 23 25 24 22 20 17 26 20 25 24 27 35 39 44 45 47 48 50 50 50 51 53 54 55 55 56 56 57 56 55 54 52 54 54 52 54 56 56
27 29 26 24 23 26 22 27 25 24 23 24 23 21 22 27 26 27 32 40 44 46 48 49 50 50 50 52 52 54 54 54 55 56 56 55 53 54 53 53 52 52 53 55
25 31 28 25 27 26 28 25 27 28 26 23 23 22 21 21 23 25 29 34 42 45 48 49 50 51 50 51 52 53 54 52 53 54 54 54 54 53 52 53 52 51 52 54
27 27 27 28 26 28 26 26 21 21 24 21 25 22 24 25 27 28 30 31 39 45 47 49 50 50 50 50 51 52 52 53 52 52 53 54 53 54 53 52 52 52 51 52
22 21 27 29 28 26 26 24 23 21 21 20 30 24 22 30 31 33 32 34 37 43 47 49 49 50 50 50 51 51 51 52 52 52 51 52 54 53 53 53 52 53 51 51
22 20 24 27 29 27 26 25 27 26 31 27 26 27 26 26 27 29 30 30 35 41 46 48 49 50 50 50 51 51 51 51 52 52 52 52 52 52 52 53 54 53 53 53
27 22 25 25 27 27 27 28 25 27 19 20 23 25 22 24 24 27 31 29 35 41 44 48 50 50 50 50 50 52 51 50 51 52 53 52 52 51 52 52 53 53 54 54
27 26 24 28 24 23 25 25 28 27 27 22 20 22 32 30 29 30 32 32 31 34 42 45 49 50 50 50 50 50 50 50 51 52 52 52 52 52 53 52 53 53 54 54
34 27 24 21 24 25 25 26 27 26 23 29 28 22 28 32 33 34 33 34 33 31 39 43 46 50 50 50 50 49 50 50 51 52 52 53 53 53 53 53 53 54 54 55
38 32 25 23 24 29 26 25 27 31 30 27 28 24 28 32 32 32 33 34 34 34 32 42 43 47 50 50 50 49 50 50 50 50 51 52 52 52 51 51 52 53 53 54
40 35 30 25 29 35 33 33 32 27 26 24 26 25 26 28 30 32 33 34 34 35 33 35 43 44 47 50 50 50 51 51 50 50 50 51 52 52 51 52 52 52 53 53
39 31 32 35 35 35 31 30 30 28 26 25 25 26 26 29 29 30 32 32 32 33 34 34 37 42 45 47 50 50 50 51 51 49 49 50 52 52 52 52 53 53 54 53
31 34 34 30 31 32 28 28 24 27 26 26 26 26 29 32 31 30 32 32 31 32 33 34 35 38 43 46 48 50 51 52 52 51 50 50 51 51 52 52 53 54 54 55
29 34 30 23 31 28 24 29 26 29 29 29 25 23 25 36 36 34 32 32 33 34 34 34 35 36 40 44 48 49 51 52 53 52 52 51 51 51 52 52 52 53 54 55
28 32 31 28 29 17 21 30 29 30 29 27 23 23 36 38 39 38 35 32 34 34 34 36 36 38 38 39 44 49 49 51 52 52 52 52 52 52 51 51 52 54 55 56
34 33 31 28 26 25 20 24 32 29 21 31 34 38 38 39 39 36 37 40 41 41 37 34 35 37 38 38 42 46 49 49 50 51 52 52 53 53 53 54 54 55 54 51
37 37 33 30 24 20 22 24 34 30 20 34 36 37 37 38 37 37 39 42 43 41 40 38 37 36 37 39 45 47 48 49 50 51 52 53 53 54 55 54 52 47 47 44
32 32 30 29 28 28 30 31 35 22 22 33 37 38 37 37 38 39 42 42 41 42 44 47 48 46 48 49 51 50 52 51 52 53 53 52 51 49 47 45 44 42 40 38
28 28 29 30 28 23 32 37 31 36 38 37 38 37 38 39 41 41 41 40 41 42 44 46 47 47 49 51 53 51 48 48 48 47 45 44 44 43 42 41 41 38 36 33
29 30 29 30 29 33 39 39 39 40 40 41 40 39 40 42 42 41 39 40 41 42 43 44 44 44 43 45 48 46 44 44 43 42 41 40 40 40 39 38 36 35 34 33
32 34 32 32 31 34 39 40 38 39 38 36 38 35 34 33 35 37 40 40 40 41 41 41 41 41 41 42 43 43 43 42 40 38 37 36 35 34 34 34 35 33 32 31
29 32 32 32 33 36 39 38 37 36 36 35 34 32 30 29 30 34 31 32 32 32 33 35 35 36 35 36 36 37 38 37 36 34 33 32 31 30 30 30 31 31 31 32
36 34 33 31 36 36 36 36 34 35 33 32 30 30 29 28 28 28 27 28 28 29 29 29 29 29 29 30 31 32 33 34 33 31 30 30 30 29 28 27 27 30 29 29

GFSCGP_sfc_dewp_060.txt.gz
Dewpoint
33 28 23 21 23 18 15 16 13 11 18 22 21 20 20 22 30 37 41 44 46 48 48 49 51 53 55 56 57 57 58 58 58 56 56 57 57 56 58 58 58 57 53 55
32 29 26 24 23 21 17 16 14 14 20 20 15 14 20 22 26 30 37 42 45 48 48 49 50 52 54 54 56 56 57 57 57 57 56 57 57 58 57 57 56 57 57 55
27 25 28 28 22 21 20 17 17 15 18 19 19 18 19 21 28 31 37 39 43 46 48 49 50 51 53 53 54 55 56 57 57 57 57 57 58 57 57 57 53 54 56 56
21 20 26 27 23 20 18 18 19 20 20 10 20 13 18 21 22 23 26 39 42 45 47 48 50 50 52 53 54 54 55 57 57 58 56 57 54 53 54 55 56 54 57 57
22 21 20 23 23 21 20 20 23 21 21 18 13 14 15 20 21 21 23 27 41 43 47 48 50 50 50 53 54 54 54 56 57 57 57 56 55 53 53 54 56 56 57 57
25 27 23 20 21 24 23 23 23 23 20 19 16 17 14 16 20 18 19 23 33 41 45 47 50 51 50 52 53 53 53 54 57 57 57 57 55 54 54 55 55 55 55 57
21 24 27 27 19 24 23 22 19 17 20 18 19 20 21 21 23 23 23 24 34 41 44 47 49 50 50 51 52 53 53 53 55 57 57 57 56 55 54 54 54 54 55 55
15 19 24 27 25 22 25 23 18 18 19 17 24 20 20 23 26 28 29 30 32 39 44 46 48 50 50 51 51 52 53 52 54 56 56 57 57 55 53 54 54 53 53 53
18 16 24 26 27 24 25 23 23 21 28 25 22 23 25 23 22 24 23 26 29 32 42 45 48 50 51 51 51 52 51 52 54 54 55 56 56 56 55 54 54 54 55 52
22 18 20 26 28 27 27 26 24 24 19 19 19 21 20 21 22 22 26 28 29 35 40 45 47 50 51 52 51 52 51 51 53 54 56 55 56 55 55 55 55 54 55 54
22 26 25 25 26 25 26 26 26 24 23 20 19 20 25 24 27 28 28 30 32 32 40 45 46 49 51 52 51 51 51 50 52 54 54 54 54 54 55 54 55 55 56 55
22 26 22 22 24 24 24 24 25 24 23 25 26 21 26 29 28 31 31 30 33 33 36 42 47 49 50 51 51 51 51 50 50 52 54 54 55 54 54 55 54 57 56 56
36 22 17 14 17 24 23 23 24 26 26 25 28 23 24 27 27 27 28 31 32 33 33 40 43 47 49 50 51 51 51 50 50 50 52 54 55 55 55 55 55 55 55 55
40 34 21 18 17 26 28 26 29 26 25 24 23 23 23 24 24 27 29 31 30 32 33 34 40 43 47 49 50 50 51 52 51 50 51 52 54 55 55 55 55 55 54 53
36 31 31 30 30 30 29 28 27 27 27 25 23 22 23 25 29 32 32 31 30 31 30 33 34 37 42 46 49 50 51 52 52 51 50 52 54 54 53 54 54 54 54 54
31 27 29 25 26 28 25 24 25 24 27 27 26 25 28 25 27 33 35 34 33 32 32 32 32 33 35 40 45 49 50 51 52 52 51 51 52 52 53 52 53 53 53 53
27 31 26 19 25 25 21 23 22 27 29 29 27 27 24 21 28 34 36 35 35 37 36 35 33 34 36 38 41 45 49 51 52 52 51 51 51 51 52 52 52 52 53 54
26 32 32 23 29 18 20 29 27 29 28 29 23 23 29 33 36 36 37 40 40 41 41 41 41 40 36 37 38 44 45 49 51 51 51 51 51 51 52 52 52 53 54 54
29 30 31 26 22 17 17 23 26 29 22 27 27 29 31 33 37 35 38 40 41 41 42 42 43 42 41 39 38 38 41 44 48 50 51 51 52 51 51 52 53 53 54 55
28 31 31 31 22 20 20 27 31 27 17 27 28 29 31 32 35 33 39 41 40 41 43 45 47 48 47 44 43 40 41 43 45 48 49 51 52 52 52 53 54 55 55 54
29 30 28 29 26 24 27 28 32 20 28 35 34 33 34 33 36 39 41 40 40 41 43 46 48 48 48 50 51 47 44 45 47 50 50 51 52 53 54 54 52 48 43 39
27 25 28 27 26 23 32 31 26 38 38 40 40 41 40 38 40 40 39 40 41 41 42 44 45 46 45 46 51 50 50 51 52 51 49 48 47 46 46 44 41 40 38 35
28 26 27 26 26 37 39 39 40 41 40 39 39 39 38 39 38 38 39 37 37 37 37 40 41 40 40 41 44 44 44 44 43 42 40 39 39 39 40 40 39 38 36 34
28 31 31 30 26 32 38 39 39 39 38 37 36 36 35 36 35 36 34 33 34 32 33 34 35 33 33 34 36 38 41 40 40 38 35 34 35 33 34 34 34 34 33 32
28 31 26 26 27 35 38 38 38 38 38 36 34 34 32 33 33 33 33 32 32 30 31 31 31 30 30 31 32 34 36 36 34 33 32 32 31 29 28 29 30 30 32 32
30 26 30 27 37 36 36 37 36 36 34 33 31 31 30 30 30 31 31 31 30 29 28 28 28 28 29 29 30 31 32 33 32 31 31 31 30 29 27 26 26 29 30 29

GFSCGP_sfc_dewp_063.txt.gz
Dewpoint
18 22 25 24 25 23 19 17 16 17 15 17 18 17 20 20 23 28 32 34 39 44 46 48 48 52 54 56 58 59 59 58 56 57 57 57 57 58 59 59 57 56 53 54
25 20 21 23 23 22 22 18 17 17 14 18 16 12 16 18 18 23 26 32 37 41 45 47 48 51 54 54 57 58 59 57 57 56 57 57 57 57 57 59 59 57 55 54
27 22 26 22 23 21 22 21 19 17 16 18 18 13 12 15 19 21 25 27 31 39 44 46 48 50 53 53 55 56 58 58 57 56 57 57 58 57 56 58 58 57 57 53
29 25 26 25 24 25 21 21 19 17 17 16 18 12 14 14 17 21 24 27 30 34 42 46 48 49 52 53 55 56 57 58 57 57 56 56 54 54 54 55 57 57 56 56
30 22 18 24 25 25 24 22 20 19 19 20 20 13 14 16 17 19 22 23 28 34 40 44 47 48 49 52 55 54 56 57 57 57 56 55 54 55 55 54 55 54 54 56
24 24 25 22 19 23 23 22 22 22 22 22 22 17 14 16 18 21 17 21 23 34 37 43 47 49 48 51 54 55 54 55 57 58 57 56 54 54 55 56 55 53 54 55
27 24 25 26 20 23 20 22 20 20 21 21 21 19 20 19 20 22 23 20 26 31 38 43 46 48 47 50 53 53 53 54 56 57 57 57 56 55 54 55 54 53 53 55
20 20 25 25 25 19 21 21 21 20 22 18 20 18 19 22 22 22 22 24 26 34 38 42 45 48 48 49 51 52 53 53 55 57 57 57 56 56 54 54 53 54 54 55
18 12 18 20 27 25 21 21 22 21 28 26 21 22 23 24 21 22 23 23 25 27 35 41 44 48 49 49 51 52 51 52 54 56 57 57 57 57 56 55 55 54 55 55
21 17 17 22 25 28 25 23 21 23 21 21 21 25 21 21 21 22 23 27 28 29 28 39 43 48 49 50 49 52 51 51 53 55 57 57 57 58 56 56 56 55 55 56
23 23 20 22 23 24 26 24 27 23 22 22 22 21 25 23 26 26 28 28 30 32 35 39 43 46 50 50 50 51 50 50 52 54 55 56 56 57 57 57 57 57 57 56
26 23 20 29 22 24 26 26 26 26 27 25 28 23 25 30 28 27 27 28 31 32 32 40 43 46 49 50 51 50 51 49 50 53 54 56 57 57 58 58 57 59 57 56
34 22 21 22 28 23 23 26 28 28 29 30 31 24 26 26 26 27 28 29 31 32 33 38 43 45 47 49 51 51 51 50 50 50 53 56 57 57 58 58 57 57 57 57
36 34 22 15 19 19 22 23 25 24 27 27 28 28 26 25 24 26 31 32 31 32 31 31 38 42 45 48 49 50 52 53 51 49 51 53 56 56 57 57 57 57 57 56
30 35 36 26 27 27 19 21 21 24 26 26 27 24 24 24 27 29 31 33 32 32 33 33 33 34 38 44 48 49 50 52 53 51 50 52 55 56 55 57 57 57 57 56
29 29 37 30 28 27 26 26 24 24 24 25 24 24 26 28 23 25 32 34 35 37 37 38 38 34 34 34 40 46 48 50 52 52 52 51 53 54 55 55 56 57 57 56
27 25 31 29 26 24 25 26 24 25 24 25 24 27 30 24 23 28 32 38 39 39 39 40 40 40 41 39 38 39 43 49 50 52 52 52 53 53 55 55 54 55 56 57
28 26 25 27 27 23 21 23 24 24 26 26 26 24 26 27 28 28 37 39 40 39 41 42 43 44 45 45 43 41 38 42 48 50 51 52 53 53 53 54 54 55 55 56
29 29 28 25 23 19 15 17 25 27 25 27 24 25 25 27 29 32 39 40 39 40 41 43 45 47 48 48 48 47 41 38 40 47 49 50 52 51 52 53 54 55 55 55
27 29 29 27 21 19 20 24 27 28 25 27 28 28 29 29 28 36 38 39 39 40 41 42 44 46 45 46 47 50 48 43 39 41 44 49 50 51 52 54 55 56 56 55
27 28 26 26 25 21 21 23 28 22 29 35 34 35 34 32 34 37 40 39 39 39 39 41 43 43 40 39 41 50 50 50 52 53 51 48 50 51 52 54 54 54 51 44
24 25 26 26 23 21 28 25 28 36 38 37 38 39 40 40 40 39 39 37 37 36 36 37 40 39 36 35 36 40 42 44 46 47 45 44 45 46 47 47 44 42 39 36
24 24 25 23 22 35 38 38 39 39 38 38 39 38 38 38 37 38 37 36 35 34 35 35 36 35 34 32 33 33 37 40 39 38 37 37 36 36 37 38 38 37 37 35
32 27 30 27 33 34 39 38 38 38 38 37 37 37 36 36 36 36 36 35 34 33 33 32 33 31 31 31 31 32 34 36 36 34 33 32 31 31 32 32 33 34 32 32
31 28 28 28 32 37 37 37 37 37 37 35 35 34 34 34 34 34 34 33 32 32 31 30 30 29 28 29 30 31 33 33 33 32 31 31 30 29 28 28 29 29 30 31
28 27 28 30 37 37 37 37 36 35 34 33 32 32 31 31 31 30 30 28 27 27 27 26 26 26 26 27 27 30 31 32 30 29 29 29 28 29 26 25 26 30 30 30

GFSCGP_sfc_dewp_066.txt.gz
Dewpoint
29 26 16 26 27 25 21 21 20 19 16 17 19 17 16 20 21 29 30 32 33 41 44 48 49 52 54 57 57 59 59 58 58 58 58 57 57 58 58 57 57 57 56 56
31 30 26 22 25 23 22 25 25 23 18 17 16 16 17 17 20 22 26 31 34 37 44 48 49 51 54 57 59 59 59 57 57 57 57 57 57 57 56 58 56 57 56 54
32 29 27 27 23 24 24 24 23 20 18 17 16 16 18 17 15 19 20 26 30 36 43 47 48 50 54 56 57 58 58 57 56 58 58 58 57 57 56 57 57 55 55 53
37 39 30 32 30 21 21 22 21 21 21 17 18 15 19 18 16 17 20 28 29 29 40 47 48 49 53 55 58 58 58 57 56 57 57 56 55 54 53 55 56 55 56 53
37 35 32 33 34 27 24 28 27 24 20 21 17 17 19 17 15 16 21 26 29 32 37 46 48 49 51 54 56 57 57 57 56 56 56 55 54 55 53 54 56 56 56 56
31 31 36 35 32 32 30 31 30 27 24 21 19 19 19 20 18 17 20 25 26 31 35 42 48 50 50 53 56 56 57 57 57 56 56 55 54 54 53 53 54 55 54 54
26 28 31 26 27 27 25 31 24 23 23 22 21 20 24 23 20 21 23 22 28 35 37 41 46 48 49 52 55 55 56 56 57 57 56 56 54 54 54 52 53 53 53 52
27 26 29 28 27 29 24 28 25 26 26 20 21 19 20 23 22 22 21 26 28 32 40 40 45 48 49 51 54 54 53 55 56 57 56 55 55 54 54 55 52 53 53 52
23 25 25 28 29 30 27 28 27 24 28 26 26 20 21 24 22 21 22 24 27 33 37 39 43 49 50 50 53 54 53 53 56 57 57 56 56 54 54 55 55 54 53 53
22 20 23 20 28 29 28 26 26 25 25 25 24 22 22 24 24 22 23 28 32 33 34 39 42 49 50 50 52 55 53 52 55 56 56 56 56 56 55 54 54 54 54 53
27 25 23 25 21 26 27 26 29 29 26 26 26 26 33 30 28 29 30 31 35 36 38 39 41 48 50 51 50 53 53 52 53 56 56 55 56 56 56 55 55 54 54 54
33 27 22 21 25 30 26 29 28 29 26 27 29 27 32 32 30 30 30 32 34 36 36 39 43 47 50 51 50 51 52 51 53 54 56 56 55 56 57 57 56 56 55 55
29 27 22 20 27 29 29 26 30 32 36 35 32 25 31 29 28 30 33 34 32 34 35 39 44 45 48 50 51 51 52 51 51 53 54 56 56 55 56 57 57 56 56 56
34 31 30 21 21 33 28 26 30 31 33 33 34 31 34 32 32 31 34 34 33 34 36 38 40 45 47 49 51 52 53 53 52 50 53 55 56 56 56 56 57 57 57 56
33 33 33 33 33 26 22 25 27 36 35 33 33 32 32 36 32 30 34 35 36 37 39 40 40 41 41 47 51 50 53 53 53 51 50 52 55 57 57 57 57 57 57 56
30 33 30 30 31 29 25 27 25 30 26 23 26 30 34 32 31 31 35 38 39 39 40 41 42 43 43 44 44 44 50 52 54 53 52 51 53 55 55 56 57 57 57 56
30 27 29 29 34 32 27 27 30 30 33 28 33 36 39 34 25 29 38 39 38 39 41 43 44 46 48 48 49 48 47 44 52 53 53 53 53 52 54 55 55 55 55 56
28 27 31 30 32 24 24 25 26 25 26 25 32 32 30 29 28 37 39 39 39 39 41 42 44 47 46 45 46 47 48 49 47 47 52 53 53 53 53 54 54 55 55 55
28 27 30 30 28 29 24 22 23 26 29 38 38 26 26 27 34 40 39 39 40 40 41 42 44 44 43 41 43 46 49 50 49 50 51 51 53 53 53 53 53 54 55 55
26 31 29 29 27 21 22 22 22 26 29 31 31 30 29 29 36 39 39 39 39 38 38 39 41 40 38 37 39 43 43 43 43 45 48 48 50 52 52 53 54 55 55 54
26 28 27 28 27 26 21 25 26 26 32 35 36 38 40 39 39 39 39 38 37 36 36 37 39 37 34 34 36 37 38 38 40 41 43 43 43 46 49 52 51 52 44 39
24 26 28 26 24 23 28 27 28 38 38 37 37 39 39 39 38 38 37 36 35 34 34 34 35 35 33 32 33 34 35 36 36 35 35 35 36 37 42 43 42 41 39 36
27 26 26 24 24 37 38 39 39 39 39 38 38 37 37 37 36 36 35 35 34 32 32 32 32 32 31 30 31 32 34 34 33 32 31 31 30 31 33 36 37 36 34 33
29 29 27 28 22 34 38 37 37 37 37 36 35 35 35 35 35 34 33 31 30 29 29 28 29 27 28 28 29 31 33 32 31 30 30 30 29 28 29 29 29 31 32 30
37 32 32 30 38 39 37 36 36 35 34 34 33 33 32 33 32 32 29 27 26 25 25 25 25 25 25 26 27 29 30 32 30 29 28 28 28 28 27 27 28 27 28 29
35 36 34 36 40 40 35 35 35 33 32 32 31 31 30 30 29 28 26 25 23 23 23 23 23 24 26 27 27 29 30 31 30 29 28 28 27 27 27 25 25 30 30 30

GFSCGP_sfc_dewp_069.txt.gz
Dewpoint
30 25 22 21 25 27 26 25 21 20 24 25 23 18 16 19 21 27 29 29 32 45 49 48 49 54 55 59 59 59 59 59 59 58 58 57 57 59 59 59 60 59 58 58
32 27 29 29 30 26 26 24 22 23 25 25 21 17 17 18 19 23 29 30 30 41 48 47 49 52 55 58 59 58 58 58 58 58 58 57 57 59 59 59 59 58 58 56
30 33 33 32 32 29 27 24 22 23 24 24 21 17 17 19 20 19 25 29 32 41 47 46 49 51 56 56 58 58 57 57 58 58 58 57 57 57 57 57 57 57 57 54
37 37 34 29 28 28 29 29 25 23 22 22 25 18 18 18 18 19 17 24 32 38 47 46 48 50 55 57 58 58 57 56 57 58 57 56 55 54 55 55 55 54 55 55
34 37 37 35 30 30 33 34 30 31 30 29 25 19 18 21 21 19 18 20 26 31 46 46 47 50 52 56 57 57 57 56 56 57 56 55 53 54 54 55 53 54 55 54
35 38 38 34 33 35 34 34 34 32 32 27 25 20 18 19 20 23 20 20 27 28 46 47 47 50 52 57 57 57 56 56 56 57 56 55 53 53 52 54 54 55 55 55
30 31 33 37 35 34 32 35 30 27 24 24 23 22 20 23 24 25 25 21 23 30 46 47 47 48 51 56 56 56 56 55 56 55 56 55 54 53 52 52 54 54 54 54
23 25 28 32 31 27 30 34 30 26 27 25 26 21 21 24 24 25 21 23 31 35 46 47 47 48 50 54 54 56 55 55 56 56 55 55 54 54 53 52 53 54 54 53
21 24 29 32 29 29 35 30 31 32 30 30 29 26 22 23 23 23 22 22 26 35 39 47 48 48 50 53 53 53 56 55 56 56 55 55 54 54 54 53 52 53 53 53
24 21 23 29 31 32 36 34 32 34 28 26 27 28 23 30 24 23 25 26 28 33 35 44 47 48 50 53 53 53 55 55 56 56 56 55 55 54 54 54 53 52 52 53
29 28 25 26 27 26 31 35 37 36 32 27 28 31 35 29 30 31 31 33 34 34 36 39 47 48 49 51 53 52 53 53 55 56 55 55 55 55 54 54 55 54 53 53
30 31 27 24 31 34 33 30 35 33 32 31 27 29 34 29 31 32 33 31 33 36 38 41 48 49 48 50 52 52 52 52 54 55 55 54 56 56 55 54 54 55 54 54
30 29 27 23 27 32 30 31 32 36 36 35 32 28 35 34 32 32 32 33 37 39 39 41 43 47 49 48 51 52 52 51 53 55 55 54 55 56 55 56 56 55 55 54
35 30 29 27 30 33 30 32 32 35 35 34 35 36 38 38 41 32 34 36 39 39 41 43 45 48 50 51 52 52 52 52 52 54 55 55 54 54 55 55 55 56 55 55
36 31 32 32 29 30 32 32 31 33 36 36 35 35 36 41 41 38 39 39 39 41 43 44 46 48 48 50 51 52 51 53 52 52 53 55 55 55 55 55 55 56 56 55
34 31 32 28 32 33 32 32 28 29 35 38 37 35 41 43 43 41 38 39 39 41 42 44 46 45 44 44 46 47 48 52 53 54 51 53 55 55 55 55 55 55 57 56
33 30 30 27 33 32 29 30 29 32 37 36 35 38 40 40 41 38 38 39 40 41 42 45 43 42 41 41 42 43 48 48 50 51 51 53 54 55 55 56 55 55 55 57
31 31 30 28 30 24 29 31 31 31 34 36 38 40 41 43 42 39 39 39 39 39 42 42 40 39 38 37 38 43 43 43 44 44 46 47 47 49 52 55 56 56 56 56
29 29 27 25 28 29 28 26 26 33 35 36 37 35 42 41 40 37 37 37 37 37 40 39 37 36 35 35 36 38 39 39 40 40 42 43 42 43 47 51 54 55 55 55
26 30 26 27 23 25 29 28 30 37 33 37 37 39 41 40 37 36 36 36 35 36 37 36 34 33 32 33 35 36 36 36 36 36 37 37 37 39 40 44 45 54 55 55
24 26 25 24 25 29 31 31 31 30 35 40 39 39 38 37 37 37 36 34 33 33 33 34 33 31 30 31 33 33 34 34 33 33 33 32 33 34 35 39 41 43 45 42
29 24 26 26 24 22 33 33 34 38 39 38 39 39 38 37 36 35 34 31 30 29 30 30 30 28 28 29 30 32 32 32 32 31 29 29 30 30 30 32 35 36 36 34
31 28 28 27 25 37 40 40 42 41 38 37 36 36 36 35 33 31 30 28 27 27 27 27 26 26 26 27 29 30 31 31 30 29 27 27 27 28 28 28 29 31 32 32
35 36 32 30 26 37 40 37 36 35 34 33 33 34 33 32 30 28 27 26 25 24 24 25 25 25 26 27 28 29 31 30 30 28 27 27 26 26 27 27 27 27 28 28
35 37 33 34 39 39 39 35 34 33 34 32 31 31 31 30 27 26 24 24 23 23 23 23 24 25 25 26 27 28 30 30 28 28 27 27 26 26 25 26 27 26 28 28
37 37 34 34 38 37 37 35 33 32 30 30 29 27 27 27 25 23 23 22 22 23 23 23 23 24 26 26 27 28 29 30 29 28 28 28 26 25 25 23 24 29 29 30

GFSCGP_sfc_dewp_072.txt.gz
Dewpoint
29 25 22 21 23 27 27 26 25 26 27 25 24 23 24 24 22 17 26 28 38 45 47 51 55 56 58 58 57 58 59 58 58 58 58 58 58 59 59 60 60 60 61 59
31 27 27 28 29 29 28 26 25 26 25 24 24 24 24 22 21 19 27 30 35 45 48 49 54 55 58 57 57 57 58 58 58 57 57 57 58 59 59 60 60 60 59 59
30 32 32 30 30 29 27 26 27 28 25 24 23 22 23 25 19 20 25 30 32 46 48 48 52 54 57 57 57 58 58 58 58 58 57 56 57 58 58 58 59 59 59 58
35 38 34 31 31 31 26 28 31 31 27 22 27 24 24 24 21 20 20 26 30 43 48 47 50 53 57 57 57 57 57 57 57 58 56 55 55 55 56 57 58 58 59 58
32 37 37 35 31 30 30 32 35 33 31 30 26 24 23 23 20 21 22 21 30 43 47 47 48 53 56 58 57 57 57 57 57 57 56 56 55 55 56 57 57 57 58 57
34 38 38 35 37 35 33 36 36 33 31 27 26 25 24 21 20 21 24 23 27 43 46 47 48 53 56 57 57 56 55 56 56 57 56 55 55 54 54 55 55 56 56 56
31 35 35 37 34 36 35 36 30 27 27 24 26 24 24 25 24 25 26 25 25 43 46 46 48 51 56 56 56 55 55 55 56 56 56 55 54 54 53 54 54 54 54 55
20 21 33 35 33 33 33 37 32 24 25 27 29 22 22 25 24 24 24 24 29 44 46 46 49 50 55 56 55 55 54 54 55 56 56 55 54 53 53 54 54 53 54 54
19 23 30 32 32 31 32 34 35 33 33 29 29 29 27 29 28 26 24 27 34 44 46 46 48 49 54 55 55 55 54 54 54 55 56 56 55 54 53 52 54 54 54 54
24 21 24 31 33 34 34 35 32 34 26 26 26 28 30 30 31 29 33 35 36 40 46 47 47 49 53 55 56 56 55 54 55 55 55 55 55 55 54 53 52 53 54 54
31 27 25 30 32 30 36 37 37 34 32 30 28 33 36 35 32 32 35 38 39 41 39 47 48 48 51 53 54 55 55 55 55 54 54 55 55 54 55 54 53 52 53 53
30 30 29 27 31 32 34 35 37 34 30 31 31 32 41 43 40 36 38 39 42 44 45 47 48 49 52 53 53 53 55 55 55 55 55 55 55 55 54 54 54 54 52 52
29 30 27 24 30 32 31 32 36 37 36 34 31 31 44 45 42 39 39 42 44 46 48 49 50 50 50 51 53 53 53 53 56 56 55 55 55 55 55 55 54 55 55 53
34 29 28 26 30 33 36 32 34 37 33 31 33 35 41 43 43 43 40 42 43 46 48 47 47 49 49 51 51 51 52 53 54 55 55 55 54 54 55 55 55 55 55 55
33 26 32 32 31 29 32 32 35 36 34 34 33 36 38 43 45 46 41 41 43 45 43 43 44 44 45 46 47 49 50 51 54 55 55 55 55 54 55 55 55 55 56 55
34 28 31 30 31 31 29 31 34 35 36 37 36 36 42 47 46 45 41 41 43 43 42 40 40 39 39 40 43 45 45 46 47 48 51 52 55 55 54 55 55 55 55 55
31 30 28 25 30 30 29 31 32 35 35 36 37 39 44 44 43 41 40 41 41 40 39 37 37 36 36 36 39 40 41 42 42 43 44 44 46 47 52 55 55 54 54 55
30 29 29 26 28 22 28 26 28 31 36 40 40 41 43 41 40 38 37 39 39 38 36 35 34 33 34 35 37 38 37 38 38 39 39 40 41 42 44 46 49 55 55 55
31 29 24 22 24 23 19 29 33 34 37 41 40 43 43 40 38 35 36 37 37 36 34 33 32 31 32 33 35 35 35 34 34 34 35 35 37 38 40 41 43 45 47 55
28 29 25 26 21 20 29 30 34 37 34 41 42 43 42 39 34 34 33 33 33 33 32 30 30 29 30 31 33 33 32 32 31 31 30 32 33 35 35 38 39 40 43 45
26 26 23 23 22 24 29 32 34 30 35 42 42 42 39 36 34 32 31 30 30 30 30 29 28 28 28 30 32 32 31 30 30 29 28 28 30 30 31 33 35 36 35 33
26 26 23 24 22 19 29 35 30 40 41 42 40 39 36 34 32 30 28 28 27 27 27 27 27 27 28 29 30 30 30 29 29 28 27 27 28 28 28 30 32 32 31 30
28 32 29 25 23 37 40 40 41 40 38 39 37 35 34 32 30 28 26 25 25 25 25 25 26 26 27 28 30 29 29 29 28 27 26 26 26 26 27 27 28 29 29 29
34 36 35 32 30 36 37 36 36 34 34 35 33 33 31 28 27 25 25 24 24 23 23 25 25 25 26 27 28 30 30 28 27 26 26 25 24 25 26 26 26 27 27 27
35 36 36 35 37 36 35 35 34 33 31 30 30 29 28 26 25 24 23 23 22 23 23 23 24 24 25 26 26 27 29 28 27 27 26 25 24 23 24 26 26 26 28 28
35 32 33 32 35 36 36 34 30 29 28 28 26 25 25 24 23 22 22 22 22 21 21 20 21 21 23 24 24 25 27 28 27 25 24 24 23 23 22 22 23 27 27 28

GFSCGP_sfc_dewp_075.txt.gz
Dewpoint
28 22 20 20 22 26 27 26 25 25 27 27 26 24 24 25 25 24 24 23 26 40 43 51 56 57 58 58 58 58 57 57 58 59 59 57 58 59 60 61 62 60 59 57
28 26 26 25 24 26 27 26 25 27 28 28 24 24 24 25 25 25 23 23 23 40 48 54 55 57 57 58 58 57 57 57 58 58 58 58 58 59 60 60 60 62 60 58
26 28 33 29 28 28 28 26 27 27 30 29 27 25 24 24 25 25 21 22 29 42 47 53 54 56 57 56 56 57 56 57 57 57 57 57 58 58 58 59 59 60 61 59
31 33 34 31 30 31 29 28 28 32 31 26 26 23 25 25 25 24 22 25 31 44 47 51 53 55 56 56 57 57 57 57 57 57 56 56 55 56 56 58 59 59 60 60
31 35 36 34 32 32 31 33 35 34 33 31 29 26 25 25 24 25 23 22 27 40 47 48 52 54 56 56 56 57 56 56 56 56 56 56 55 55 56 57 58 58 58 59
33 38 36 35 35 35 33 37 37 34 32 30 28 25 24 24 24 23 24 25 24 33 45 47 51 54 56 56 56 56 55 55 56 56 55 55 54 55 54 56 56 57 58 57
31 34 35 37 33 36 35 35 28 27 28 26 26 25 24 26 27 27 27 25 26 33 44 47 50 54 55 55 55 55 55 54 55 56 55 54 54 54 54 56 56 56 56 57
22 15 34 36 33 33 34 34 29 23 24 23 27 24 24 26 26 30 31 26 26 27 43 46 49 53 55 55 55 55 55 54 55 56 55 54 54 55 54 55 55 56 56 56
18 19 31 35 33 34 36 33 34 34 33 28 27 29 29 33 33 33 37 32 28 35 43 46 49 53 55 55 55 55 54 54 54 54 55 55 54 54 53 54 54 55 55 55
21 19 24 31 34 35 36 36 32 34 25 24 26 27 32 37 38 36 38 40 40 44 46 47 49 53 55 55 55 55 54 54 54 54 54 54 54 54 53 53 53 54 54 54
29 23 23 33 33 33 36 36 36 34 33 29 27 33 39 42 44 39 40 44 47 43 46 47 48 52 55 55 55 54 54 54 53 53 54 54 54 55 54 53 52 53 54 54
31 31 28 27 30 33 36 35 37 32 30 31 33 31 42 44 45 40 42 46 47 49 48 49 51 52 53 53 55 54 54 54 53 54 54 53 55 55 55 54 53 52 53 54
30 29 24 24 30 32 34 35 36 36 36 33 29 31 43 43 44 44 42 45 45 45 46 47 49 49 51 53 54 55 55 55 55 55 54 54 54 54 54 54 55 54 53 52
33 28 26 21 28 33 32 33 36 36 33 33 33 36 40 41 42 44 42 43 43 43 43 43 43 45 47 50 51 51 52 54 56 56 55 54 54 54 54 54 54 54 55 54
30 23 31 31 31 30 30 29 31 34 36 34 32 33 37 42 43 44 45 42 40 39 41 41 41 41 42 45 45 46 48 47 49 55 55 54 54 54 54 54 54 54 54 55
33 27 29 27 29 30 25 26 28 29 34 36 37 34 41 45 46 46 45 42 38 37 37 36 37 37 37 38 40 41 41 42 44 44 44 44 46 50 55 54 54 55 55 55
29 28 26 22 26 26 24 29 24 28 35 34 33 36 43 45 45 45 43 40 37 35 34 34 34 34 35 36 37 36 36 38 39 39 40 40 42 43 44 45 49 54 55 55
30 29 28 23 25 16 22 16 32 31 33 36 37 40 43 40 39 40 42 39 36 33 33 32 32 32 33 34 35 34 33 33 34 34 34 36 37 39 40 42 43 43 45 48
31 28 24 20 21 18 16 29 34 35 37 41 40 42 38 37 36 36 38 36 34 33 32 31 31 31 31 33 34 32 31 30 30 30 31 32 34 35 36 37 38 39 42 41
30 29 24 25 19 15 24 25 34 33 33 40 43 41 38 39 34 34 35 33 31 30 29 29 29 29 30 31 33 30 29 28 28 28 28 30 30 31 32 34 35 36 36 33
25 26 24 22 20 22 25 25 33 26 35 42 44 41 42 37 37 35 33 30 29 29 28 28 28 28 29 30 31 29 28 27 27 27 27 28 28 29 30 31 32 33 32 31
26 25 22 23 22 19 35 38 29 34 42 40 40 37 34 33 31 29 28 27 27 26 26 27 27 27 28 30 29 28 28 27 26 26 26 26 27 27 28 29 30 30 30 29
20 29 28 26 24 36 36 37 38 40 39 38 38 37 34 32 30 29 26 25 25 25 25 26 26 27 27 28 29 28 27 27 26 25 24 25 26 26 26 27 27 27 27 28
33 35 33 34 34 35 35 34 33 35 38 38 38 36 34 30 27 25 24 24 24 24 24 25 25 25 25 27 27 29 28 27 26 24 24 24 25 25 25 25 26 25 25 25
33 32 31 32 36 34 34 34 35 34 31 29 28 28 26 25 24 24 23 23 22 22 22 23 23 23 24 24 24 26 27 25 24 24 23 23 24 24 24 25 25 25 27 26
33 31 28 31 37 35 33 34 34 33 30 27 25 24 24 23 23 23 22 21 20 20 20 20 20 20 23 23 23 23 25 26 24 23 22 22 22 21 21 21 22 24 24 24

GFSCGP_sfc_dewp_078.txt.gz
Dewpoint
27 22 21 20 23 22 25 25 25 26 27 27 26 26 26 25 26 25 26 26 24 25 34 47 56 57 57 57 58 58 59 59 58 57 57 58 58 59 60 61 62 61 60 61
27 24 24 23 22 22 22 23 25 26 27 27 28 28 29 27 26 26 25 25 25 25 42 51 55 56 57 58 57 57 58 57 58 59 58 58 58 59 60 61 60 59 59 58
25 24 30 27 27 26 27 27 27 26 28 30 28 26 25 26 26 26 26 26 24 24 41 52 54 55 56 57 57 57 57 57 57 58 58 57 58 58 58 59 60 59 59 58
30 30 29 31 30 29 28 30 29 28 32 25 29 25 26 27 27 26 26 25 24 28 40 50 53 55 56 56 57 57 57 55 56 57 56 56 55 55 57 58 59 60 59 58
31 35 35 32 31 32 30 33 34 34 32 32 30 28 26 27 25 26 26 26 25 32 45 50 53 54 56 56 56 56 56 56 56 56 56 54 55 55 57 58 58 59 60 58
32 37 36 34 35 35 34 35 35 34 32 27 27 28 25 25 25 24 25 25 25 27 46 49 53 55 55 55 56 56 56 56 56 56 55 54 54 55 55 56 57 57 58 59
29 33 36 36 32 36 35 33 26 26 27 24 27 28 27 26 26 27 30 32 30 27 39 48 52 54 55 55 55 55 55 54 54 55 55 54 53 54 53 56 56 57 57 57
23 14 34 36 32 32 34 33 25 22 25 26 27 23 24 35 39 37 38 40 40 30 35 46 51 54 55 55 55 55 55 54 55 54 55 54 53 54 54 55 56 57 57 57
19 17 33 36 34 34 34 34 36 33 31 29 27 28 34 41 42 40 42 45 46 47 37 45 49 54 55 54 54 54 54 54 55 55 54 54 53 54 54 55 55 56 56 56
21 18 25 32 34 36 36 37 33 34 24 24 25 28 33 39 40 41 43 46 47 47 46 47 51 54 55 55 54 55 54 53 54 54 54 55 54 54 54 53 54 55 55 55
26 22 23 33 33 33 35 35 35 36 34 26 25 29 40 42 43 41 43 43 45 48 47 49 53 54 54 54 54 54 54 54 54 54 54 55 55 54 53 53 53 53 54 55
30 30 25 26 30 35 35 35 35 32 30 32 31 29 44 44 41 44 42 44 45 46 49 52 53 53 53 53 54 54 54 53 53 54 54 55 55 55 53 53 53 54 53 54
29 30 22 23 28 34 35 36 36 36 36 30 29 29 44 45 41 43 42 41 43 43 43 46 49 52 53 54 54 54 54 54 54 54 54 53 54 55 54 54 54 53 53 53
32 29 22 18 22 31 30 29 30 34 32 32 31 33 39 41 41 41 43 40 40 41 41 41 42 45 46 48 50 50 50 54 55 54 53 54 54 54 53 53 54 54 53 53
29 24 30 29 29 30 29 29 29 29 32 32 30 32 35 40 42 44 44 38 37 36 37 38 40 41 42 43 44 45 46 47 49 54 51 49 53 55 54 54 54 54 54 54
32 28 28 25 27 25 20 18 21 24 28 33 34 34 38 44 46 45 43 37 35 34 34 34 35 36 37 38 39 38 39 40 42 42 42 43 45 46 46 49 53 55 55 55
29 28 25 21 24 22 14 23 18 23 26 30 30 34 40 42 44 43 41 39 35 33 32 32 33 33 34 34 34 34 35 36 36 37 37 38 40 40 42 43 44 45 46 47
30 27 27 22 22 11 12 17 22 33 35 34 35 40 42 40 39 40 39 37 35 34 32 31 32 32 33 32 32 31 31 31 31 32 33 34 36 36 38 38 39 40 42 39
30 28 24 18 20 18 18 28 31 29 27 37 38 40 39 37 35 35 35 35 34 33 33 32 31 31 32 32 30 29 28 28 29 30 30 31 32 34 35 36 36 36 35 34
30 28 23 24 18 12 17 23 29 30 28 41 42 38 37 38 34 32 34 33 32 31 30 30 31 30 31 31 29 28 27 27 27 28 28 29 30 31 32 33 34 33 32 31
25 26 24 23 19 21 25 34 36 25 28 40 42 39 39 38 36 34 33 30 28 28 28 29 29 29 30 30 29 28 27 26 27 27 27 28 28 29 30 31 31 31 31 30
23 24 22 24 22 18 36 37 31 37 39 36 37 38 34 33 32 32 31 28 26 26 27 28 28 28 28 29 28 26 26 26 26 26 26 26 27 27 27 28 28 29 29 28
21 27 26 26 24 35 34 33 37 39 38 35 34 34 34 32 30 30 28 27 25 25 25 26 26 25 26 27 28 26 26 25 25 25 25 25 25 25 27 27 27 27 27 27
32 33 32 33 35 35 35 34 32 32 33 36 36 35 34 30 29 28 26 24 24 24 24 24 23 23 24 25 25 27 26 25 23 23 24 24 23 24 24 24 25 25 25 25
32 31 30 29 36 35 35 34 32 31 30 30 30 31 30 27 25 24 22 21 21 22 22 22 22 22 22 23 23 24 26 24 23 23 22 22 23 23 23 24 24 24 25 25
32 30 27 28 32 34 32 34 34 30 29 29 26 25 26 24 22 21 19 20 20 20 20 20 20 19 21 21 21 22 25 25 24 21 20 19 19 19 19 20 20 23 23 24

GFSCGP_sfc_dewp_081.txt.gz
Dewpoint
26 22 19 19 22 18 19 20 19 23 25 25 23 23 25 28 29 30 29 29 29 30 30 30 45 56 58 60 60 59 60 60 59 59 59 59 59 60 61 61 62 61 61 61
28 23 24 23 23 22 21 20 19 23 26 26 25 25 27 28 29 29 29 29 29 30 29 32 48 56 58 59 59 59 59 59 59 59 58 58 59 60 60 61 61 62 60 61
27 24 29 24 24 23 24 24 26 25 27 28 28 24 22 25 27 28 29 29 29 29 29 32 49 55 57 58 59 58 58 59 59 59 59 59 59 60 60 60 59 59 60 61
29 28 27 29 28 28 28 30 29 29 29 25 30 23 25 26 26 27 29 31 31 30 30 30 47 53 56 58 59 58 58 58 58 60 58 57 56 56 58 60 60 59 59 58
25 34 33 28 27 31 30 32 32 32 30 30 28 26 25 28 26 27 30 30 31 32 32 34 46 51 55 58 58 57 57 58 58 58 57 57 57 57 59 59 59 59 59 58
27 37 36 33 35 34 33 32 32 33 31 26 26 26 24 26 27 27 28 30 33 35 34 42 49 53 55 57 57 56 56 56 57 57 57 57 57 56 57 58 58 58 59 58
30 33 36 36 32 36 34 31 24 23 26 21 26 26 26 31 40 39 40 43 44 46 36 48 52 53 55 56 55 55 56 55 56 57 56 56 57 57 56 57 57 58 58 58
22 15 33 36 31 28 34 31 25 20 23 25 28 25 28 41 41 43 45 46 47 48 48 44 51 53 54 55 55 56 57 55 55 56 55 55 56 56 56 57 57 57 58 58
21 16 33 35 34 32 34 31 34 31 30 28 26 27 37 40 40 42 43 44 46 48 47 46 48 54 55 55 55 56 55 54 55 55 55 55 56 56 55 57 57 57 58 58
21 17 27 34 35 36 36 36 33 34 23 22 24 27 31 39 40 41 43 43 45 47 49 47 49 54 55 54 55 55 55 54 55 55 55 55 56 56 56 56 56 57 57 58
24 23 27 33 31 31 34 36 35 35 34 25 23 26 41 40 41 43 41 43 44 45 49 52 53 53 55 54 55 55 55 54 54 54 55 55 55 55 55 55 56 56 57 57
30 28 23 28 32 34 35 34 33 30 28 32 29 28 43 44 43 43 40 40 42 44 45 50 53 53 54 54 54 54 55 54 54 54 54 55 55 55 54 55 55 56 55 56
35 30 25 25 31 36 34 35 37 35 34 28 28 27 42 42 41 43 40 39 39 41 42 44 45 51 53 54 54 54 54 53 53 54 55 55 55 55 54 55 55 55 55 55
37 30 24 19 23 28 28 28 28 32 29 31 29 29 33 39 40 43 40 38 37 37 38 39 41 42 44 46 48 50 52 55 55 54 54 54 54 55 55 55 56 55 55 55
34 29 30 28 28 29 29 25 23 23 26 26 22 25 28 35 40 44 40 38 36 35 35 36 37 37 39 40 42 44 45 47 51 48 48 48 49 54 55 55 56 56 56 54
36 30 30 25 26 21 17 15 16 19 22 24 26 28 33 37 42 44 39 37 35 34 34 34 34 34 34 35 37 38 39 40 41 41 41 42 43 44 46 47 47 50 50 49
31 30 24 16 22 19 11 17 16 21 29 30 29 31 34 40 43 43 39 36 34 34 33 33 33 33 31 31 32 34 34 35 35 36 37 38 39 40 41 41 42 43 42 41
30 27 26 19 20 5 12 19 22 22 28 25 30 38 40 40 39 38 38 36 34 33 32 32 32 32 31 30 30 31 32 33 33 33 33 34 36 37 38 37 38 37 36 35
31 29 24 19 18 14 19 23 23 22 17 40 40 40 39 36 34 33 34 34 33 33 33 32 31 31 30 29 29 29 29 29 30 30 31 32 33 34 35 35 34 33 32 32
30 29 24 24 14 8 15 29 35 33 23 37 38 40 37 37 34 31 35 32 31 31 32 31 32 30 30 29 28 27 27 28 28 28 28 30 31 32 32 33 32 32 31 30
26 27 24 23 20 20 32 35 37 15 28 37 37 39 40 37 34 32 32 31 31 30 29 29 29 30 30 28 27 26 26 26 27 27 28 28 28 29 30 30 30 30 30 30
23 24 25 24 21 17 34 33 30 35 38 35 34 34 31 31 30 30 30 29 27 27 27 27 26 26 28 27 27 25 25 26 26 26 26 27 27 27 28 29 29 29 29 29
26 29 28 25 23 35 34 33 33 37 37 36 34 32 32 29 27 28 27 28 27 25 25 25 25 25 26 27 26 24 25 25 25 25 24 25 25 25 26 27 27 27 27 27
32 32 34 31 33 35 35 33 32 32 31 33 34 33 31 27 28 27 26 24 22 22 23 23 23 23 23 24 25 25 25 24 24 24 24 24 24 24 23 23 24 25 25 25
31 30 28 28 32 33 33 34 34 31 31 29 30 30 29 27 25 23 21 21 21 20 21 21 21 21 22 23 24 25 24 23 22 22 22 23 23 23 23 24 24 24 26 25
32 30 27 27 30 31 29 30 31 29 28 29 27 25 26 24 22 21 19 19 19 19 19 19 19 20 21 21 22 23 23 23 23 23 21 21 21 21 21 20 21 23 23 23

GFSCGP_sfc_dewp_084.txt.gz
Dewpoint
21 18 16 14 18 16 14 12 10 14 16 20 21 20 20 22 22 25 28 29 28 28 29 27 32 42 52 56 60 62 63 64 62 61 61 60 61 61 62 62 62 62 62 62
23 17 14 15 16 18 16 15 15 17 20 24 24 23 24 24 24 26 27 29 30 29 28 28 31 42 53 56 60 62 62 62 62 60 59 59 59 61 60 60 61 62 62 62
23 21 25 22 22 21 20 18 18 20 26 27 27 23 22 24 24 24 25 27 28 29 29 28 29 39 52 55 59 60 61 62 60 60 60 59 60 60 60 60 61 62 62 61
26 24 26 23 21 22 18 24 27 27 26 21 27 19 21 24 25 26 27 28 28 28 29 28 29 33 50 54 59 60 61 61 60 60 59 58 55 56 57 60 60 61 60 61
21 24 25 23 21 27 24 30 29 29 27 27 25 24 18 24 25 28 28 29 30 30 30 30 31 31 46 54 59 60 60 60 60 59 59 57 56 56 57 61 60 59 59 59
21 30 34 29 30 25 30 30 29 29 28 26 23 23 19 25 34 36 38 38 38 39 41 39 36 36 45 54 59 59 59 58 59 60 58 58 57 57 57 60 59 58 58 58
19 23 26 34 30 33 30 26 19 23 26 18 24 24 23 34 38 40 42 42 44 46 46 46 42 44 49 55 58 57 58 57 59 59 58 57 57 57 57 59 58 58 58 57
19 19 26 32 28 23 27 23 19 16 18 18 25 23 28 37 40 41 41 43 44 46 49 47 44 49 51 55 56 56 57 57 58 58 57 57 56 56 56 58 58 58 58 58
20 17 29 33 32 28 30 30 29 29 27 25 19 24 34 36 38 40 40 42 43 46 48 50 45 51 53 55 55 56 57 57 57 57 56 56 56 56 56 57 57 58 59 59
25 19 26 33 34 34 32 32 31 32 23 19 17 21 27 36 39 39 39 41 42 44 46 50 48 52 53 55 55 58 57 56 57 56 56 56 56 56 56 56 57 57 58 58
28 23 26 32 30 27 33 33 34 34 32 24 19 24 38 39 40 38 39 41 42 42 43 47 52 52 54 54 56 56 55 55 55 56 56 55 56 56 56 56 56 56 57 57
32 28 20 24 30 31 30 31 32 29 28 31 31 26 40 41 39 39 41 40 40 40 41 44 48 53 54 55 55 55 55 55 56 56 55 55 57 56 56 55 56 57 57 57
34 28 21 24 29 32 31 34 36 35 33 28 28 28 37 38 39 42 41 39 38 38 38 40 42 45 51 54 55 55 55 55 55 55 54 55 55 55 55 55 56 57 56 56
36 34 25 18 23 28 29 28 30 30 31 29 27 24 26 25 29 39 41 38 37 36 36 37 38 40 43 45 48 52 55 55 55 54 54 54 54 55 55 55 56 55 55 55
36 32 30 24 23 23 23 22 22 23 25 23 18 15 21 29 34 38 40 37 35 34 34 35 35 36 37 40 42 43 46 49 51 50 49 49 49 52 54 55 56 56 56 55
35 32 33 27 23 18 14 12 11 13 14 18 23 25 30 34 36 42 40 37 34 33 33 33 33 33 33 35 36 38 39 42 43 43 42 43 44 44 45 46 47 47 47 45
34 28 26 22 19 14 12 15 17 21 25 26 26 29 32 37 43 40 38 36 34 32 32 32 32 32 31 32 33 34 35 37 37 37 38 39 40 40 41 41 40 39 39 39
33 30 22 18 17 8 14 23 18 16 26 33 34 38 40 39 36 37 37 36 34 33 32 32 32 32 32 32 32 33 33 33 35 34 35 36 37 37 37 37 36 35 35 34
32 30 23 18 15 10 15 23 25 23 25 34 33 35 39 35 34 32 34 34 33 33 32 33 34 32 31 31 32 33 32 32 31 33 34 34 35 35 35 33 33 32 32 32
28 31 26 22 7 2 24 26 32 31 23 34 35 36 36 37 35 28 33 33 32 32 32 32 32 32 30 29 29 30 29 29 31 32 31 33 34 34 33 33 32 32 31 30
25 25 23 20 18 18 30 30 31 23 28 37 35 34 35 37 32 30 31 31 32 32 32 32 32 31 30 28 28 27 27 28 28 29 30 30 31 31 32 32 32 32 31 31
21 21 23 21 19 17 33 30 28 34 37 36 33 31 29 29 29 29 30 30 30 29 27 26 26 27 27 29 28 26 26 27 28 28 27 28 29 29 29 31 31 31 31 31
28 31 29 24 29 35 33 33 34 35 36 35 32 31 30 30 29 29 28 28 28 27 25 24 24 25 26 25 25 26 28 28 27 26 26 26 26 27 28 29 29 29 30 30
31 31 35 31 33 33 34 33 32 32 32 32 32 31 31 28 28 27 27 27 26 24 22 22 23 23 24 25 25 25 25 25 25 25 26 25 25 25 25 24 25 27 28 28
32 31 28 28 32 32 30 31 31 30 30 30 31 31 29 28 26 26 24 22 22 21 22 22 22 22 23 23 24 24 24 24 24 24 24 25 24 24 23 24 25 24 26 26
32 30 28 29 31 31 29 29 30 30 29 30 28 27 28 26 25 24 23 24 23 21 20 20 20 21 22 23 24 24 26 27 27 27 25 25 24 24 23 22 21 22 23 22

GFSCGP_sfc_dewp_090.txt.gz
Dewpoint
22 16 11 12 13 12 14 13 14 13 14 12 12 9 8 11 13 15 16 17 18 22 27 29 35 38 35 35 41 64 65 65 65 64 63 62 61 61 63 63 64 64 64 64
23 18 17 15 15 15 14 14 13 14 15 14 12 10 12 15 18 20 19 20 22 23 24 30 32 40 42 41 50 63 64 64 64 64 63 62 61 61 61 62 62 63 64 63
19 19 18 17 16 14 13 12 11 11 12 14 15 13 16 15 16 19 22 23 24 24 27 29 33 37 43 48 57 61 64 63 64 64 62 61 61 61 61 61 61 62 62 63
14 17 17 17 19 17 15 15 15 14 12 11 16 16 19 16 14 20 25 31 32 29 27 28 32 37 40 51 58 59 63 62 64 63 61 60 59 57 59 59 60 61 62 62
17 17 17 17 18 20 18 18 16 18 20 22 20 18 15 15 14 17 33 36 42 45 39 31 31 36 37 49 57 58 62 61 63 62 62 60 59 58 58 59 59 61 61 61
15 16 17 19 20 19 19 19 19 20 22 21 19 16 14 14 33 36 39 40 42 44 45 47 48 40 34 47 55 59 61 60 62 61 62 60 59 57 57 58 60 60 60 59
17 14 14 18 20 23 24 23 17 17 20 19 20 22 18 32 36 38 38 39 42 44 46 47 48 51 51 45 55 58 59 59 61 61 61 60 60 59 58 58 59 59 58 58
13 13 15 18 19 19 21 22 18 17 18 17 26 28 22 37 37 37 37 39 41 43 46 47 49 51 52 51 57 59 59 58 60 60 60 60 59 58 57 59 58 59 58 58
26 20 26 23 19 17 20 29 24 26 26 22 17 32 36 39 35 34 36 39 41 42 45 46 47 49 51 54 58 60 59 59 59 59 60 59 59 57 57 59 59 59 58 57
26 24 21 22 32 21 22 23 27 28 23 16 13 15 19 39 33 33 36 39 40 41 43 44 45 47 53 58 59 60 59 58 58 60 60 58 58 58 59 59 59 59 59 58
26 28 23 23 33 26 22 24 29 31 28 22 23 29 41 40 41 34 36 39 40 40 42 41 42 43 46 53 57 58 58 58 58 59 59 58 57 57 58 58 59 59 60 59
32 28 23 22 24 34 33 23 27 29 25 24 27 27 43 43 35 36 37 39 39 39 40 39 39 39 41 42 48 57 58 58 58 59 57 57 57 57 57 58 58 58 58 59
28 23 21 18 18 33 33 33 32 31 33 32 31 29 36 34 29 37 39 38 38 37 37 36 36 37 37 39 41 45 58 57 57 57 57 57 57 57 57 57 57 57 57 57
34 26 20 20 21 25 31 32 31 33 33 30 32 31 37 36 37 39 39 38 36 35 35 34 34 35 35 37 39 41 46 57 57 57 57 57 57 57 56 57 58 57 57 57
34 27 23 22 22 24 27 34 27 29 31 32 29 26 37 40 39 38 38 36 34 33 33 32 32 33 34 35 35 37 40 45 51 51 50 51 51 52 51 50 51 50 50 47
28 24 28 23 21 23 31 31 33 33 33 31 24 32 36 37 36 36 35 33 32 32 32 31 31 32 32 33 34 35 37 40 43 44 44 44 45 44 44 43 43 42 41 41
26 25 24 20 22 29 30 23 24 20 28 29 28 34 34 35 33 32 33 31 30 30 31 31 31 32 32 33 34 34 35 37 38 39 39 40 39 38 39 37 37 37 37 36
25 26 27 22 25 23 20 18 18 31 31 31 30 32 34 33 32 31 31 30 29 30 30 31 32 32 32 32 33 33 33 34 34 35 36 36 36 35 35 34 34 34 34 34
26 26 26 26 25 22 23 22 22 25 35 32 31 32 32 33 32 30 31 31 30 31 31 31 32 33 33 32 33 32 32 33 33 32 33 35 34 33 33 32 32 32 32 32
23 31 29 30 19 17 33 27 26 24 32 34 32 31 30 33 33 27 31 32 31 32 32 31 32 32 32 32 33 31 31 31 31 32 32 34 34 34 33 33 33 32 31 30
23 28 28 28 20 31 30 30 28 21 31 33 31 29 27 26 27 30 32 31 32 32 32 33 32 30 31 32 33 31 31 30 32 32 32 33 33 33 34 34 34 33 32 31
22 22 23 24 20 24 32 30 28 32 34 32 30 28 27 28 29 30 31 31 31 31 32 31 30 30 32 32 31 30 30 32 33 32 32 32 31 32 33 33 34 34 33 32
29 31 32 32 30 33 31 31 31 33 33 32 31 30 29 28 29 29 30 30 29 30 30 29 28 29 31 32 33 29 30 31 29 28 29 29 30 30 30 28 30 32 32 30
32 30 31 32 33 30 30 31 30 31 32 32 32 32 30 28 29 29 30 30 28 29 29 29 28 27 27 28 31 31 32 32 29 28 27 26 25 25 26 26 25 24 27 27
30 30 28 30 31 30 29 30 30 30 30 29 31 32 31 28 28 28 28 27 28 28 28 28 26 25 25 25 26 28 28 28 29 29 28 26 24 23 22 23 23 23 24 26
31 29 27 27 30 31 30 29 30 29 30 29 27 28 29 27 26 26 26 27 26 26 27 26 26 25 25 25 25 26 28 28 28 27 27 27 25 23 21 19 19 21 22 22

GFSCGP_sfc_dewp_093.txt.gz
Dewpoint
20 14 13 13 14 15 14 12 11 13 15 13 13 15 13 13 11 10 11 12 13 17 18 20 27 31 28 29 34 62 64 65 65 64 64 63 63 63 62 63 63 62 63 62
23 19 19 17 14 15 14 12 13 15 15 13 11 11 15 14 14 14 14 14 15 16 18 20 22 30 34 30 41 62 64 65 64 64 64 63 62 60 61 62 63 63 62 62
18 22 23 20 17 16 16 15 14 13 13 13 12 12 13 14 15 17 18 17 18 18 19 21 23 27 34 35 51 63 63 64 63 63 61 61 60 60 59 59 60 62 63 62
19 18 18 18 17 17 16 19 18 16 15 14 14 12 17 20 21 20 18 30 25 43 44 33 27 30 33 38 60 63 63 63 63 62 61 60 59 59 59 59 60 61 62 63
20 19 18 17 16 18 19 23 20 20 16 22 21 20 20 22 19 15 40 41 43 44 46 46 48 50 42 48 62 63 63 63 63 61 60 60 58 58 59 59 59 60 61 61
19 18 16 16 18 20 22 21 21 20 18 17 19 20 18 18 18 40 42 44 44 45 45 47 48 50 50 51 59 62 62 62 62 61 60 59 58 57 57 57 58 59 61 61
21 22 20 14 13 20 24 21 19 18 18 17 24 28 24 35 39 43 43 42 45 45 46 47 47 48 49 51 52 61 61 62 62 61 60 59 58 57 56 57 58 58 58 57
21 17 23 23 15 18 21 21 24 16 16 17 25 28 27 41 40 43 41 41 43 44 45 44 45 47 48 53 55 57 60 62 61 61 60 59 58 57 57 58 58 56 56 57
27 22 25 23 25 27 21 23 28 28 25 22 21 22 32 39 39 42 39 40 41 42 42 42 42 44 45 48 58 58 59 60 61 60 59 59 59 57 58 58 58 57 58 57
24 22 23 22 31 28 29 23 26 30 25 21 19 18 33 38 39 42 38 39 40 40 40 40 40 41 42 46 52 59 60 59 60 60 60 59 58 58 58 58 57 58 58 57
29 27 23 25 26 30 28 28 28 30 29 23 24 30 40 38 40 42 38 38 38 38 37 37 37 39 39 42 45 49 58 59 59 59 59 58 57 59 58 58 58 58 58 57
30 28 23 19 21 21 32 34 35 28 25 29 28 28 39 40 41 44 38 37 36 35 35 35 35 36 37 38 41 43 47 57 57 59 58 58 57 57 58 59 59 59 58 58
29 23 16 9 17 27 31 32 34 34 33 27 26 32 38 41 41 37 36 35 34 33 33 33 34 34 35 36 38 40 43 48 58 58 57 58 57 57 57 58 57 58 59 59
31 26 19 13 15 21 22 25 26 33 31 31 33 34 38 39 38 36 35 33 33 32 31 31 32 33 34 35 36 38 40 44 56 57 57 57 57 57 56 57 57 57 56 57
30 24 25 24 24 24 23 22 25 31 35 31 33 34 36 36 36 34 33 32 31 30 30 31 31 32 32 34 35 36 38 41 45 50 50 50 50 50 49 49 48 47 46 46
32 25 24 22 21 21 22 25 32 33 35 35 32 35 36 34 34 33 31 30 29 29 29 29 30 31 32 32 34 35 37 40 39 41 43 45 44 43 43 42 42 41 40 40
23 23 21 16 22 22 24 31 29 32 36 35 33 34 34 31 31 30 30 29 28 28 28 29 30 31 32 32 33 34 34 36 37 36 37 37 39 38 38 37 37 37 37 37
21 23 25 20 22 18 29 29 35 33 31 31 31 32 32 31 30 29 29 28 28 28 28 29 30 31 32 32 33 34 34 34 33 33 34 35 35 35 35 34 34 34 34 34
22 22 24 22 21 30 32 32 30 31 31 31 30 30 31 30 29 28 29 29 29 29 29 30 31 31 32 32 32 32 32 32 32 32 33 33 33 33 33 32 32 32 32 31
21 25 26 26 22 22 30 30 31 32 27 30 29 28 29 32 29 24 30 30 30 31 31 30 31 31 31 32 32 32 31 30 31 31 32 33 34 33 32 32 32 31 30 30
23 27 24 23 23 27 30 30 31 23 28 30 28 26 25 24 26 29 31 31 31 31 31 31 31 30 30 32 32 30 30 30 31 32 32 31 32 32 33 33 32 31 30 29
22 26 28 28 25 20 30 29 28 32 32 30 28 26 25 28 28 28 28 29 29 29 29 30 29 30 31 31 30 28 27 29 29 28 29 29 29 30 30 32 32 32 31 29
28 32 29 30 28 32 29 31 32 33 32 31 28 28 28 25 26 26 27 28 29 28 28 28 27 27 28 31 30 27 28 29 27 26 26 26 26 27 27 26 27 28 30 28
30 31 32 30 30 29 30 30 31 31 31 30 28 27 28 26 26 27 27 28 27 28 27 27 25 25 25 27 30 31 31 29 27 25 24 24 24 24 24 24 25 25 25 24
28 28 31 31 32 30 29 30 31 29 28 28 30 29 27 25 26 25 26 26 26 26 26 25 24 24 25 26 27 29 31 30 29 27 25 24 23 22 22 23 23 23 25 24
30 29 26 24 30 29 29 30 30 30 29 27 26 25 27 25 25 25 24 26 25 25 25 24 25 24 24 25 26 27 27 28 27 27 27 24 22 20 18 18 19 22 23 23

GFSCGP_sfc_dewp_096.txt.gz
Dewpoint
21 13 12 12 14 17 16 15 14 13 13 15 15 14 12 13 15 14 14 14 13 13 14 19 22 25 27 28 33 62 65 66 66 65 64 63 63 63 63 63 63 62 63 63
25 16 16 16 16 15 14 13 12 13 14 15 13 12 11 12 14 15 15 16 16 16 16 16 20 21 28 29 31 57 64 65 65 65 64 63 63 62 63 63 63 62 62 62
23 21 23 20 19 18 16 14 14 15 15 14 12 12 13 15 15 16 17 18 21 23 20 19 18 22 24 32 33 56 63 64 65 65 64 63 60 60 59 61 62 62 62 62
16 16 17 17 19 20 17 18 17 17 18 15 14 13 17 17 19 21 22 27 43 45 46 46 46 48 50 47 38 52 62 64 64 64 63 62 61 60 60 60 59 61 63 62
21 20 18 18 18 18 17 22 21 21 19 17 18 18 15 19 18 20 26 44 45 46 47 47 48 48 50 51 53 60 63 64 64 63 63 62 60 59 59 59 59 59 62 62
21 22 19 18 17 18 20 22 21 21 19 16 17 18 16 18 27 40 43 46 46 47 46 46 46 48 49 50 54 61 63 63 63 62 61 61 59 58 59 58 58 59 59 60
18 17 20 23 21 19 19 21 19 18 17 14 16 18 18 26 40 41 42 43 44 43 44 44 43 44 45 46 50 56 62 62 62 62 61 60 58 59 58 58 58 58 59 60
25 21 23 24 24 22 18 19 19 18 18 18 22 22 27 41 41 43 42 44 41 41 41 40 41 42 42 44 48 55 61 62 62 61 60 60 59 58 58 58 58 59 59 59
25 24 22 23 24 27 25 21 24 24 24 24 23 23 34 39 40 41 41 42 40 38 38 37 39 39 40 43 46 52 60 61 61 61 60 59 59 57 57 58 58 57 56 55
26 21 23 23 20 21 28 29 24 27 20 17 21 21 29 36 37 40 41 39 36 35 35 35 36 38 39 42 44 48 55 60 60 60 60 59 58 58 58 58 57 57 56 56
27 26 22 22 20 21 17 27 32 32 27 20 19 25 38 37 39 39 40 35 34 33 33 33 34 36 37 39 42 43 45 55 57 57 60 59 58 58 58 58 57 57 57 57
29 25 23 18 19 19 19 23 34 29 27 28 26 27 39 39 41 40 35 33 33 32 32 32 33 34 35 36 37 40 42 46 53 56 59 58 59 58 58 58 57 57 57 57
27 22 16 10 12 22 23 23 31 33 32 28 24 28 38 39 36 36 34 32 31 31 31 31 31 32 33 35 36 37 39 43 47 57 58 57 58 58 58 58 58 58 58 57
29 25 18 13 14 22 22 23 25 29 25 27 28 32 37 36 36 35 32 31 30 29 30 30 30 31 32 33 35 36 38 41 45 57 56 57 56 56 56 55 54 55 57 58
27 22 24 24 22 21 20 19 20 21 24 29 32 33 33 35 33 31 30 30 28 28 29 29 30 30 31 32 33 35 37 39 42 44 49 51 51 51 50 48 47 47 46 46
31 18 24 18 18 17 20 21 22 23 32 33 35 33 34 33 31 30 29 28 27 27 28 28 29 29 30 31 32 33 35 37 39 40 40 43 43 43 43 42 42 41 41 41
25 21 19 13 19 20 17 20 20 33 35 35 31 34 33 30 28 28 28 27 27 28 28 29 29 29 31 31 32 33 34 35 36 36 37 38 38 37 37 38 37 37 37 37
21 19 20 16 20 13 30 34 32 32 33 34 33 31 30 28 28 28 28 27 26 27 28 29 29 30 31 32 32 32 32 33 34 33 33 34 34 33 33 33 33 34 34 34
21 21 20 18 18 21 28 33 32 32 28 31 28 29 29 28 26 26 29 28 28 28 29 29 30 30 31 31 32 32 31 31 31 32 32 32 32 32 32 31 31 31 31 31
20 22 21 23 19 18 28 30 30 35 25 28 26 25 30 30 26 23 29 30 29 29 29 29 29 29 29 30 31 28 28 28 29 30 31 32 33 32 31 30 30 30 30 29
22 23 21 21 21 26 29 30 30 23 25 28 26 25 25 24 26 29 30 30 30 29 29 28 28 29 29 29 29 27 27 26 28 29 29 29 30 32 32 32 31 30 29 28
24 25 25 25 22 19 30 29 27 31 30 28 26 26 25 25 25 25 27 27 27 26 26 26 26 26 28 29 27 26 25 27 28 27 26 26 27 28 29 30 31 30 28 27
25 29 26 28 23 30 32 31 34 32 29 30 28 28 26 26 24 25 26 27 26 25 25 24 24 25 27 29 29 26 27 27 26 25 25 25 25 25 26 26 27 26 27 25
29 30 29 26 29 29 30 30 31 30 29 31 30 27 28 25 25 25 26 25 25 25 24 24 23 24 25 27 28 30 30 28 26 24 23 23 24 24 24 25 25 23 23 23
26 27 28 26 29 29 29 31 30 29 29 29 28 28 25 25 24 24 23 23 24 24 23 23 23 23 23 25 26 28 29 30 26 22 22 22 21 22 23 24 24 23 24 23
28 28 25 23 29 28 28 30 32 29 28 27 24 24 24 23 23 23 23 23 23 23 23 22 22 21 22 22 23 24 26 27 27 26 24 21 19 18 19 19 21 24 25 25

GFSCGP_sfc_dewp_099.txt.gz
Dewpoint
21 14 11 11 14 17 18 16 15 14 14 14 13 12 13 15 13 14 15 16 16 16 17 17 17 19 23 26 29 53 63 66 66 65 64 64 64 65 65 65 64 64 64 63
25 16 16 16 15 14 14 13 12 13 14 14 13 13 14 14 12 13 14 16 16 17 17 20 22 20 21 23 30 45 61 65 65 65 64 64 64 65 65 64 64 64 63 63
22 24 25 20 19 17 17 15 15 15 16 16 14 15 16 17 18 19 19 19 24 40 46 48 48 46 46 38 32 43 59 64 65 65 64 61 61 61 61 62 62 63 63 63
18 19 17 16 19 21 19 21 20 19 17 15 16 15 17 18 18 19 23 30 45 46 46 45 45 46 48 49 51 45 57 64 65 65 64 62 61 61 61 62 62 61 62 62
19 21 19 18 18 18 17 21 20 20 19 17 17 17 17 18 17 25 42 46 46 45 45 44 44 45 46 46 48 53 52 62 63 64 64 62 61 61 61 61 59 61 61 61
20 22 21 19 20 19 19 17 20 20 19 16 16 16 14 15 27 40 43 42 42 42 43 43 43 44 45 44 47 50 57 61 63 64 64 62 61 59 59 60 59 59 60 61
24 19 20 25 22 24 22 19 15 16 17 14 20 20 17 38 41 41 41 42 41 39 40 41 40 40 41 43 44 48 53 62 63 64 63 62 61 59 59 59 59 58 58 57
23 16 23 22 26 23 24 19 16 15 18 17 23 20 22 39 41 40 40 41 39 38 37 37 38 38 39 41 44 44 49 62 63 63 62 61 59 59 59 59 59 58 58 58
24 23 23 23 22 18 22 23 26 24 22 21 19 23 37 39 39 41 40 39 37 36 34 35 36 36 37 39 42 44 48 61 62 62 60 59 59 59 59 58 58 58 58 59
26 17 23 23 17 19 24 27 24 27 20 16 18 21 22 35 37 39 39 37 36 34 33 33 33 34 36 38 41 44 46 51 60 61 61 60 59 59 58 58 58 58 57 57
24 23 20 18 17 16 16 16 25 30 28 24 18 21 37 37 39 40 36 35 34 33 31 31 31 33 34 37 39 42 43 46 51 58 60 59 59 58 58 58 57 57 56 56
27 23 21 17 19 20 19 27 30 17 19 25 25 25 38 37 37 37 35 35 32 30 30 30 31 32 32 34 36 39 40 43 47 51 58 57 59 59 58 57 57 57 56 56
25 20 15 8 12 19 20 21 26 29 28 23 23 28 37 36 36 36 35 31 29 29 29 29 30 31 32 33 34 36 39 41 43 48 57 58 58 58 58 57 57 57 57 55
28 23 17 11 13 23 21 20 20 23 18 21 22 24 35 36 35 33 33 29 28 28 28 28 29 30 31 32 33 35 37 39 40 43 55 57 58 58 57 58 58 58 56 57
25 21 23 23 23 23 20 18 19 19 20 19 21 28 34 34 32 32 29 28 28 27 28 28 28 30 30 32 32 33 35 37 38 39 41 45 51 52 52 50 50 49 49 50
28 17 24 22 19 17 17 17 18 20 23 23 21 29 35 34 32 28 28 27 26 26 27 28 28 29 29 31 32 32 33 35 36 36 36 38 41 44 43 42 43 43 41 41
25 22 18 12 15 16 13 20 20 19 32 30 30 32 32 29 27 26 26 26 25 26 26 27 28 29 30 30 32 31 32 33 34 34 35 34 35 36 36 36 36 36 37 37
20 19 18 14 17 8 23 32 29 28 32 34 33 33 31 27 27 27 27 25 25 26 26 27 28 28 30 30 30 30 30 31 31 32 33 34 33 32 32 32 32 33 33 34
21 19 12 11 15 18 23 31 30 29 26 30 29 30 28 27 25 25 28 28 27 28 28 28 29 29 29 29 30 29 28 28 28 29 30 32 32 32 31 30 30 31 31 31
21 21 15 18 16 16 25 30 35 35 22 28 25 26 29 28 26 22 28 28 27 28 27 27 29 28 28 28 28 26 26 26 26 27 28 29 32 31 30 30 30 30 30 29
19 21 17 17 17 23 28 31 34 26 24 27 25 26 29 26 26 27 28 27 27 27 28 28 28 28 27 27 26 24 23 24 26 27 27 27 28 30 30 30 29 29 29 28
25 23 21 22 20 18 30 30 27 29 29 27 25 26 25 25 25 25 26 26 25 25 25 26 26 26 29 27 25 23 23 25 25 25 25 25 26 27 28 28 28 28 27 26
22 27 25 25 23 30 30 29 33 31 28 28 26 26 25 23 23 24 24 24 24 25 25 25 25 25 26 27 27 24 25 24 24 23 23 24 25 25 26 25 25 25 25 25
28 31 27 25 28 28 29 29 30 29 28 28 27 27 25 23 23 23 23 23 23 24 23 24 23 22 23 25 26 28 26 24 22 22 22 23 24 23 24 24 24 23 23 23
26 28 26 25 28 28 28 28 28 28 27 26 26 25 24 23 23 23 22 22 23 23 23 22 21 21 21 22 23 25 26 26 22 20 20 20 20 21 23 24 23 23 25 25
28 26 24 21 28 27 27 30 29 26 25 25 23 22 24 22 22 23 21 21 21 20 20 19 20 19 20 21 21 22 24 25 25 24 21 19 18 19 19 21 23 26 26 25

GFSCGP_sfc_dewp_105.txt.gz
Dewpoint
20 18 17 18 17 15 16 16 13 14 15 15 18 16 15 16 17 18 19 20 20 28 45 47 47 48 48 50 51 52 51 44 51 62 65 64 63 64 64 64 66 65 65 64
20 18 20 21 18 15 13 13 14 16 17 17 17 17 18 18 18 19 19 28 44 45 44 45 45 46 46 47 49 49 51 52 50 56 62 63 63 64 64 65 65 65 65 65
23 23 23 17 16 16 18 18 18 18 19 19 18 15 16 18 19 34 45 45 43 41 41 42 42 43 44 44 46 46 48 50 53 55 62 65 64 64 64 64 64 64 66 65
20 22 23 22 21 21 19 19 18 17 18 13 18 11 15 17 18 38 43 42 41 39 39 39 40 40 41 42 43 44 46 49 51 55 59 62 60 60 62 63 63 64 64 64
15 18 18 17 17 19 17 21 21 20 19 18 16 14 14 18 16 34 42 42 40 39 37 37 37 38 39 40 40 42 43 46 50 52 56 61 61 61 63 63 64 65 64 64
17 21 20 19 21 20 21 20 20 21 20 16 15 14 9 14 21 37 42 41 38 37 36 36 36 37 37 38 39 40 41 43 46 50 54 60 62 62 61 63 63 64 63 63
20 18 22 25 23 22 22 20 13 13 16 11 17 16 13 26 40 40 40 38 37 36 35 35 34 35 36 36 36 38 39 41 44 48 53 57 62 61 62 62 63 63 62 63
10 15 21 21 15 13 17 21 15 10 12 15 21 17 17 40 39 40 38 37 36 35 33 32 32 32 34 35 36 36 38 40 44 47 51 59 62 63 63 63 63 62 61 61
21 19 21 18 17 15 18 22 23 20 23 17 14 19 36 37 36 38 37 36 34 33 31 31 32 32 33 34 35 37 37 39 43 47 50 62 63 62 62 63 64 63 62 62
24 16 22 21 17 15 17 13 15 27 12 5 4 15 19 32 34 36 35 34 32 30 30 30 31 31 33 34 35 36 37 39 42 45 49 59 63 62 61 62 62 62 62 62
21 16 17 16 12 10 10 10 18 23 25 12 3 11 34 35 34 33 33 32 31 30 29 29 29 30 31 33 34 34 36 37 40 43 47 52 60 61 60 60 61 61 61 60
25 22 13 11 19 21 18 21 23 15 11 21 19 13 37 34 35 34 32 31 30 30 28 28 28 29 29 30 32 33 34 36 39 41 45 55 59 59 59 59 59 59 59 60
25 19 9 13 17 19 19 19 25 26 23 18 15 14 36 35 34 32 30 29 29 29 28 27 27 28 28 29 30 31 33 35 37 39 41 45 48 56 59 59 58 58 58 58
27 19 10 2 10 18 19 19 19 21 18 13 14 17 21 22 31 30 29 29 29 29 28 26 27 28 28 28 29 30 31 33 36 37 38 38 40 42 48 58 58 58 58 57
27 18 20 17 17 21 19 18 19 18 18 16 17 18 22 23 31 30 29 28 27 27 26 26 27 28 27 27 28 28 30 31 33 36 36 36 36 37 38 42 47 57 57 56
28 21 23 17 18 17 14 13 16 15 16 16 14 18 21 31 30 27 27 27 26 26 25 25 26 26 26 27 27 28 29 30 31 33 34 36 36 34 34 35 37 39 40 41
25 23 17 12 13 10 6 11 15 18 24 21 21 23 30 28 26 25 26 26 25 25 25 25 26 27 27 27 28 28 29 29 29 30 31 33 34 35 33 32 33 34 34 35
22 21 18 12 14 1 14 29 29 28 27 28 29 34 30 26 26 26 27 26 24 25 25 26 27 26 28 28 28 28 28 28 27 27 28 30 31 33 34 33 31 31 32 32
21 19 18 12 11 11 18 26 28 26 25 29 28 27 26 26 25 25 27 26 26 27 27 27 28 28 27 27 27 26 26 27 26 26 27 28 29 29 31 31 31 31 30 31
21 21 18 16 10 9 21 26 28 32 23 28 28 27 26 27 25 21 26 26 26 27 27 27 27 28 27 27 27 25 24 25 25 26 27 28 28 28 28 28 29 30 29 28
21 22 17 16 15 17 25 28 33 23 21 26 27 29 30 23 24 25 26 26 27 26 26 27 27 26 27 28 26 24 23 23 26 27 27 27 28 28 29 29 30 30 29 28
19 18 18 19 16 14 27 27 23 26 27 26 26 26 23 24 24 24 24 24 24 24 24 25 25 25 26 27 25 23 23 25 25 26 26 27 27 28 29 28 29 29 30 28
22 26 23 24 22 28 29 28 30 30 27 27 25 26 25 23 22 23 23 23 23 23 24 23 22 22 24 25 25 23 24 23 24 24 25 27 27 27 28 28 28 28 29 29
28 31 25 26 27 26 28 28 28 28 27 27 27 25 25 22 23 22 23 23 22 23 22 20 20 20 21 22 24 25 25 23 23 23 24 25 25 25 27 26 27 27 27 27
26 28 25 25 27 26 27 27 27 26 26 25 26 25 24 23 22 21 21 20 21 20 19 19 18 18 19 19 21 23 22 19 14 18 21 22 22 23 23 26 26 26 28 27
27 25 24 22 28 25 25 27 27 25 25 25 23 23 23 21 20 20 19 20 20 19 18 18 18 18 19 19 20 21 22 21 19 17 17 19 19 20 21 21 21 24 24 24

GFSCGP_sfc_dewp_108.txt.gz
Dewpoint
21 17 16 17 19 16 13 13 12 13 14 13 15 15 16 17 18 19 19 20 21 32 41 44 47 48 49 49 50 51 53 55 54 43 51 57 63 64 62 64 65 65 65 66
15 16 13 13 16 16 15 15 15 15 17 19 18 16 17 17 18 19 19 22 36 39 41 43 44 46 47 47 48 49 49 52 53 52 46 53 58 60 61 63 65 66 65 66
19 18 21 18 19 19 19 17 16 16 16 17 17 14 11 14 17 21 32 39 40 40 40 41 41 43 44 45 46 46 47 48 51 54 54 52 57 59 59 61 63 65 66 66
23 22 23 20 19 18 16 16 17 15 14 9 17 5 10 12 17 27 36 39 41 40 39 39 39 41 42 43 45 45 46 47 48 51 53 54 53 55 57 59 60 63 65 66
23 16 16 20 17 19 16 14 16 17 16 16 14 11 4 13 16 26 37 41 39 39 39 38 38 38 39 41 43 44 44 45 46 48 50 52 54 57 57 58 61 63 64 65
19 18 20 17 17 18 18 19 18 19 17 14 11 8 -2 10 13 30 40 39 39 39 38 38 38 37 37 39 41 42 43 43 45 46 48 50 53 56 58 58 60 62 64 64
17 17 20 23 20 21 19 19 14 13 14 8 12 8 7 23 33 36 39 38 38 38 37 36 34 35 36 38 39 39 39 40 42 43 45 48 50 56 58 60 60 62 63 63
15 17 20 19 19 17 18 18 12 5 4 6 17 12 18 36 38 39 37 36 36 36 36 34 33 34 35 36 37 37 37 38 39 40 43 46 48 51 57 61 60 61 62 62
18 16 20 18 17 16 17 19 20 20 18 15 8 13 34 36 38 37 36 35 34 33 33 33 33 33 34 34 36 35 36 36 38 40 42 45 48 52 59 62 62 62 63 63
27 19 22 21 17 13 17 15 19 22 11 2 -3 3 11 31 33 34 34 33 34 33 32 32 32 32 33 33 34 35 36 36 37 39 42 45 47 52 61 62 62 62 64 63
26 23 18 18 16 14 10 10 12 18 16 9 2 2 33 35 34 33 31 32 32 32 31 30 30 31 31 32 33 33 34 34 36 39 41 44 50 61 61 62 63 63 63 63
24 18 12 11 17 18 13 12 10 16 8 13 14 11 35 35 33 33 31 32 31 32 31 30 30 30 30 30 31 31 32 33 34 37 40 43 48 54 60 61 62 63 62 62
23 15 8 7 15 19 15 18 20 24 21 15 15 15 33 33 32 32 31 30 31 31 30 29 29 29 28 29 28 29 31 32 33 36 39 40 43 45 49 59 60 61 60 60
23 15 7 -3 9 15 17 16 16 20 20 13 10 12 17 22 22 26 30 31 31 30 28 27 28 29 28 28 28 28 30 31 32 34 36 37 39 41 43 46 52 59 59 59
23 16 13 11 9 13 10 11 14 14 15 17 17 19 21 19 21 31 30 29 28 28 27 27 27 28 27 28 29 29 29 30 30 32 33 35 37 37 37 39 40 43 49 56
26 21 19 13 13 12 10 9 10 11 14 14 11 18 16 23 30 29 29 28 27 27 27 27 26 27 27 27 28 29 29 30 29 30 31 33 35 35 35 35 36 36 37 39
23 21 17 11 8 8 8 10 9 8 15 17 21 25 25 28 27 28 27 26 26 26 27 28 28 28 28 29 30 29 29 30 29 28 29 30 32 33 34 33 32 33 33 35
19 21 16 10 15 5 23 24 25 24 27 29 28 29 32 30 28 27 28 27 26 27 27 28 29 28 30 30 29 30 30 29 29 28 28 29 30 30 32 32 31 31 30 32
20 17 17 14 11 11 18 28 28 28 26 30 29 30 28 27 26 26 28 28 28 29 29 29 30 30 30 29 30 30 28 29 28 29 29 30 30 29 29 29 29 30 29 28
22 20 19 17 13 9 26 27 28 31 22 28 30 28 28 30 27 24 28 28 28 29 29 28 29 30 28 29 30 28 28 28 28 29 30 32 31 30 30 30 29 29 29 27
22 22 20 18 18 18 26 30 32 22 23 27 28 31 30 26 27 27 29 28 29 29 29 30 29 26 27 29 29 26 26 27 29 30 31 31 32 32 32 32 32 31 30 29
20 20 21 22 20 16 28 27 25 27 28 28 28 30 26 26 26 27 27 27 27 27 27 27 25 26 28 28 27 26 26 28 30 30 29 30 31 32 32 32 32 32 32 30
26 28 28 26 25 30 30 29 31 31 28 28 26 27 26 25 25 26 26 26 26 26 23 21 20 21 23 25 26 25 24 27 29 29 28 29 30 31 31 30 30 30 31 30
30 30 29 26 28 28 29 29 29 29 28 28 28 27 26 25 25 25 26 26 25 22 20 18 18 18 19 21 22 23 21 24 27 27 28 29 28 27 28 28 28 27 28 28
26 28 25 26 27 26 26 28 28 28 28 27 28 27 26 25 25 25 24 23 21 19 19 18 17 17 18 18 20 20 18 16 15 17 19 22 23 25 24 25 25 25 26 26
26 26 26 25 29 26 26 28 29 27 27 26 25 25 26 25 24 23 23 22 21 20 19 18 17 17 18 19 21 22 22 21 21 21 19 21 21 22 22 22 20 20 21 21

GFSCGP_sfc_dewp_111.txt.gz
Dewpoint
26 21 20 21 23 21 20 18 17 16 16 17 18 15 14 15 16 17 16 18 20 22 30 40 44 46 48 49 49 50 51 53 53 52 49 45 55 58 61 62 66 67 66 66
22 20 21 21 20 19 18 17 17 15 14 15 14 14 15 16 17 18 18 19 21 27 36 40 42 44 46 46 48 48 48 50 51 51 52 52 51 53 56 61 63 65 67 68
22 17 17 19 19 15 15 16 16 14 15 16 17 14 12 12 13 14 17 22 33 36 37 39 40 42 44 44 45 45 46 47 49 51 50 52 53 53 56 57 58 62 66 68
26 25 21 21 21 18 17 17 17 16 15 12 10 6 10 12 13 16 25 34 37 37 38 38 39 40 41 42 45 45 45 46 46 48 49 51 51 52 49 56 56 60 64 66
27 27 25 23 23 23 19 19 16 15 15 14 11 8 11 12 11 21 31 37 38 39 39 39 39 38 38 41 42 44 44 44 45 46 48 48 50 51 53 55 59 61 62 65
24 25 25 18 17 17 18 16 16 15 13 12 12 10 9 7 10 21 37 37 38 38 38 38 37 37 37 39 41 43 43 42 43 44 46 46 47 49 51 54 56 60 60 64
22 22 24 20 21 20 17 18 15 12 13 12 11 8 11 20 32 33 37 36 37 37 37 37 36 35 37 38 39 40 40 40 41 42 43 43 44 47 49 52 56 58 61 64
25 26 21 21 19 19 18 16 16 18 16 15 12 10 18 35 37 36 35 35 33 34 35 34 34 35 35 36 37 38 38 38 39 40 40 40 41 44 46 50 53 57 60 62
24 21 25 20 18 17 16 19 18 20 22 17 17 18 33 36 35 36 34 32 32 32 33 34 34 34 35 35 37 38 37 37 37 38 39 39 41 43 45 48 53 56 61 62
26 27 23 20 18 17 15 18 22 20 13 9 7 9 11 35 35 34 32 31 31 31 31 33 33 34 34 35 35 37 37 36 36 37 37 38 40 43 45 47 50 57 61 62
26 24 22 21 18 15 16 15 15 16 18 16 13 13 34 37 35 33 30 29 30 30 30 32 32 32 33 33 34 34 34 34 35 35 35 37 40 43 47 53 55 60 62 62
27 26 23 20 17 18 16 16 16 20 14 12 10 5 34 34 31 30 29 28 28 30 31 31 31 32 31 31 31 31 32 33 33 34 35 37 40 42 46 50 59 60 61 62
28 23 18 14 14 17 14 15 15 17 17 15 18 15 32 30 29 31 26 27 28 30 30 30 30 30 30 30 30 30 30 31 32 33 34 35 38 39 41 44 49 51 60 60
28 20 15 8 7 15 16 11 13 18 23 15 10 9 20 24 21 19 25 29 29 30 29 29 29 30 30 30 30 29 29 30 30 31 32 33 35 37 38 41 43 45 48 58
23 19 15 12 9 7 10 11 13 12 16 18 15 18 17 16 18 25 29 28 27 28 28 28 28 29 29 29 29 30 30 30 30 30 31 31 34 35 36 37 37 38 41 42
25 22 20 15 11 9 10 8 6 7 11 11 8 14 15 17 26 28 29 28 28 27 27 27 28 30 30 30 29 30 31 31 31 30 30 31 32 33 34 34 34 34 35 35
24 21 17 15 7 8 8 9 7 6 9 10 19 18 26 28 33 28 28 27 26 27 27 28 29 30 30 30 31 31 32 32 31 30 31 30 31 31 31 33 32 32 32 32
21 20 18 13 14 6 17 22 23 20 19 20 25 28 30 32 30 28 28 27 27 28 28 29 29 30 31 32 31 32 32 32 32 31 31 31 31 30 30 29 29 30 30 29
19 17 18 14 11 10 19 30 28 27 23 27 29 28 29 28 27 26 27 28 29 30 29 29 30 30 31 31 32 31 30 31 31 31 32 32 32 31 30 29 29 29 28 28
19 19 19 17 13 11 28 26 26 28 22 27 27 28 28 30 29 26 29 29 29 30 30 29 29 30 29 30 30 30 29 29 30 31 31 32 33 32 32 32 31 31 30 28
22 21 18 17 18 25 25 30 30 23 24 28 28 32 30 29 27 28 30 29 30 30 31 31 29 28 29 30 29 29 29 29 30 31 31 31 32 32 32 32 33 32 32 31
21 20 23 23 24 20 28 27 25 29 29 28 32 33 28 27 28 28 28 28 29 29 28 24 23 27 29 29 28 25 27 30 31 30 29 29 30 31 31 32 32 32 32 31
27 30 29 26 26 30 28 30 32 32 29 29 28 30 28 27 27 28 27 27 28 26 20 17 17 19 21 22 22 26 28 29 30 30 29 29 28 29 30 29 29 28 28 27
29 29 30 27 28 28 29 29 30 30 29 29 30 29 28 26 27 27 27 27 25 19 17 15 16 17 19 19 19 21 21 24 26 26 28 29 28 26 25 26 26 25 25 27
28 28 26 26 27 27 26 28 29 29 29 28 29 29 28 27 26 27 26 25 20 18 17 16 16 16 18 18 19 19 20 20 19 19 20 22 23 23 23 23 22 23 24 23
28 28 28 28 29 28 28 29 30 28 28 27 26 27 28 27 26 26 25 23 21 19 17 16 16 15 17 19 20 21 22 21 23 22 22 23 22 23 22 23 24 21 20 20

GFSCGP_sfc_dewp_114.txt.gz
Dewpoint
26 25 24 24 25 23 21 20 19 20 19 20 20 16 17 19 18 19 21 20 20 22 34 42 46 48 48 50 50 50 53 55 54 54 54 55 54 54 62 63 66 66 66 66
22 24 26 26 23 22 21 20 19 19 18 19 17 15 15 16 17 17 19 20 20 22 36 41 43 45 47 47 48 48 48 49 50 50 51 53 54 55 55 56 59 64 66 66
26 24 23 20 18 17 17 17 19 16 14 17 17 14 15 17 19 18 19 20 26 30 39 39 40 43 46 46 47 45 46 47 48 50 48 50 52 54 55 53 53 61 64 67
25 23 21 21 20 19 17 20 20 17 17 18 17 14 16 15 12 15 17 32 37 37 37 38 39 40 42 44 46 45 46 45 45 47 47 48 48 49 51 52 54 56 60 60
27 25 23 25 26 25 23 23 25 23 23 24 17 15 15 15 11 14 28 38 38 38 38 38 37 37 38 42 43 45 44 43 43 45 46 46 46 47 48 49 51 53 57 59
27 28 26 26 30 28 20 18 23 25 21 19 18 15 13 12 17 17 37 37 37 38 37 37 37 37 37 40 42 43 42 41 42 43 43 44 44 44 45 47 48 51 53 57
25 24 24 28 26 23 20 20 17 23 19 17 15 13 14 36 35 38 37 36 36 35 35 34 34 34 37 38 39 39 40 39 40 40 40 41 41 42 42 43 46 48 50 54
20 22 21 25 26 22 20 21 24 17 17 18 28 23 28 36 39 38 35 33 32 32 33 33 33 35 35 37 37 38 37 37 37 37 38 38 39 39 41 42 44 46 49 51
23 22 25 24 25 22 22 22 25 25 26 21 20 28 37 35 34 33 32 31 30 29 30 31 31 34 35 35 36 37 36 35 36 37 37 37 38 38 39 40 42 44 47 49
23 21 30 26 19 18 17 16 21 30 23 15 14 14 28 34 33 33 31 30 29 28 28 30 31 34 34 34 33 35 35 34 34 35 35 35 37 38 39 41 43 44 45 48
22 26 28 27 22 18 17 15 17 19 18 21 14 17 36 36 37 35 30 29 27 28 29 30 31 32 32 32 32 33 33 33 32 33 33 35 36 37 40 41 43 45 48 49
30 28 26 24 21 18 17 19 19 20 16 18 17 15 35 37 34 30 28 28 28 28 28 29 30 31 31 30 30 31 32 32 32 32 33 34 35 36 38 39 41 44 48 55
31 30 21 19 24 19 17 17 17 22 23 18 18 16 32 29 26 30 29 28 28 28 28 29 30 30 30 30 30 31 32 31 31 31 32 33 34 34 36 38 39 41 46 49
32 26 25 22 19 16 18 16 13 18 21 18 16 15 18 29 24 22 27 29 27 29 28 28 29 29 29 30 29 31 33 32 31 31 32 32 32 33 34 36 37 37 39 41
26 21 21 19 15 13 9 8 12 11 14 17 20 20 20 18 23 27 28 27 27 27 27 27 27 28 27 28 30 31 32 33 33 32 31 31 32 32 33 34 34 34 34 37
27 24 21 18 15 11 9 6 6 7 9 11 10 15 16 18 29 30 29 28 27 27 27 26 27 28 28 29 31 31 32 32 33 33 32 32 32 31 30 31 31 32 32 31
26 23 19 15 12 8 8 10 7 8 9 10 17 20 29 30 32 29 29 27 26 27 26 27 28 30 29 30 31 30 31 32 32 32 32 32 32 31 30 29 29 28 29 30
22 22 19 16 14 7 10 22 22 21 21 23 26 28 30 29 28 27 28 27 26 26 26 27 29 29 30 31 31 32 32 31 31 31 31 32 32 32 31 30 29 28 28 27
21 21 19 15 11 11 15 28 27 24 19 26 28 28 29 28 26 26 27 26 27 28 28 29 30 30 30 30 31 31 30 30 29 30 30 31 31 31 31 31 30 30 29 28
13 18 21 16 12 11 26 27 25 26 20 26 26 28 29 28 26 24 28 28 29 30 30 28 29 29 28 29 30 29 28 28 28 29 30 31 30 30 30 30 32 32 31 29
19 18 16 17 18 24 26 28 28 21 21 26 26 28 34 27 26 27 29 29 30 31 31 31 29 28 29 28 26 26 27 27 28 27 27 28 29 28 29 30 30 30 30 29
20 20 21 21 21 19 27 28 24 27 28 28 32 31 26 27 27 28 28 28 29 29 28 22 23 26 28 30 28 25 25 28 29 28 26 23 24 27 26 25 26 27 26 26
25 30 29 26 25 27 28 27 30 30 28 29 29 30 28 27 26 27 27 27 28 27 20 17 18 19 21 22 23 25 26 27 27 27 27 26 23 22 24 22 22 23 25 22
29 29 29 26 27 26 27 27 28 28 29 30 30 30 28 26 27 27 27 27 27 21 17 15 16 17 19 20 21 21 23 24 24 24 25 25 26 24 22 21 20 20 20 21
28 26 26 26 26 25 26 27 27 28 28 29 30 29 28 28 27 27 26 27 24 18 16 15 16 17 18 19 21 21 21 22 21 22 23 23 23 24 23 21 20 19 19 19
28 28 28 28 28 28 27 28 29 28 28 28 27 27 29 27 26 26 26 26 22 20 17 15 15 16 18 20 21 22 24 24 23 23 23 24 24 24 23 24 22 21 21 20

GFSCGP_sfc_dewp_117.txt.gz
Dewpoint
27 25 24 23 24 25 24 23 22 22 22 21 20 18 18 18 20 19 22 21 21 37 43 45 45 45 45 45 45 46 47 48 48 48 48 49 51 52 54 57 59 60 67 65
22 22 26 27 27 26 25 22 20 19 19 18 18 16 16 17 16 17 17 18 20 40 42 43 43 43 44 44 45 45 45 45 46 46 46 48 49 52 52 55 56 58 59 63
24 24 24 24 23 23 23 21 19 17 20 23 21 20 16 18 17 17 18 18 23 40 39 40 41 41 42 43 43 43 44 43 45 45 45 46 47 48 49 49 51 52 54 57
29 29 27 25 23 20 19 24 24 23 27 23 25 21 23 22 20 20 19 35 36 38 38 37 37 38 40 40 42 42 42 42 42 42 43 43 44 44 45 46 47 48 49 52
28 29 28 28 26 24 23 30 21 19 24 27 23 22 20 20 18 24 36 38 38 38 37 36 36 37 38 38 40 40 40 40 40 40 40 41 41 42 43 44 44 45 47 49
29 29 28 27 27 29 31 27 23 21 24 23 23 22 20 19 24 38 40 37 36 35 34 34 35 35 36 37 38 38 38 38 38 38 38 38 38 38 39 40 41 43 45 47
25 27 28 29 27 31 31 24 21 20 20 17 20 20 19 38 39 40 37 34 34 33 33 33 34 34 35 35 36 35 36 35 35 35 36 36 36 37 37 38 40 40 42 44
21 22 25 31 28 29 28 22 24 19 19 20 24 22 33 41 40 41 35 31 30 30 31 31 33 33 33 33 33 34 33 33 34 34 34 34 34 36 36 37 38 39 41 42
21 23 25 26 26 29 25 21 25 25 26 23 21 31 37 39 38 39 38 37 36 34 34 32 32 32 32 31 33 33 32 32 32 32 32 33 34 34 35 37 38 39 40 41
25 22 29 30 22 22 22 20 25 29 21 18 18 20 32 37 37 37 35 32 28 29 29 31 32 32 31 31 31 32 32 31 31 31 32 32 34 35 35 36 37 39 40 42
28 26 28 30 26 19 19 19 20 28 25 21 20 22 36 37 38 34 32 29 28 28 29 30 31 31 30 30 30 31 32 32 31 31 32 33 34 35 36 36 38 39 41 42
31 31 27 28 28 26 22 23 22 20 16 20 21 19 38 38 37 34 29 29 28 28 29 29 29 30 29 29 29 30 31 31 31 30 32 33 34 34 34 35 36 38 39 40
30 28 22 22 26 29 27 21 23 25 25 21 21 22 35 34 31 32 30 28 27 28 28 28 28 28 28 28 29 30 30 31 30 31 32 32 33 33 33 34 35 36 36 38
33 29 25 20 24 26 22 21 19 21 21 18 18 18 23 32 31 29 29 28 27 27 27 27 27 27 28 27 29 29 29 31 30 32 32 32 33 32 32 32 33 34 34 35
27 22 25 23 21 21 25 21 16 16 19 19 18 22 24 28 29 29 29 28 27 27 27 27 27 27 27 28 29 29 29 30 32 31 32 32 33 33 31 30 30 31 32 33
28 25 23 21 19 18 15 11 10 12 14 13 11 18 32 31 30 29 27 27 26 26 26 26 26 26 27 29 29 28 29 30 32 31 31 32 33 32 32 30 30 29 29 31
27 25 22 19 18 15 12 15 16 12 24 23 18 29 30 28 27 27 27 26 25 26 25 25 25 27 28 29 29 29 30 31 30 30 31 31 32 32 32 32 30 29 29 29
27 25 23 20 17 9 23 25 24 22 26 29 29 29 28 26 26 27 27 25 24 25 24 25 26 27 29 29 30 31 30 30 29 28 29 29 30 30 30 31 30 29 29 28
26 24 20 16 16 17 21 26 23 21 24 27 27 30 27 26 25 25 26 26 26 25 25 26 28 28 28 28 30 29 29 28 26 26 27 28 28 27 29 28 29 29 28 27
21 21 20 19 14 4 24 27 27 27 17 26 27 27 29 27 22 20 27 28 28 26 27 27 29 29 27 27 28 27 27 28 26 23 23 25 25 25 25 27 27 28 27 26
19 20 17 18 14 22 26 29 28 16 15 25 27 28 32 25 24 25 27 28 29 30 29 30 28 28 29 29 28 25 26 26 27 27 23 22 23 22 22 24 25 24 24 24
19 19 17 16 13 15 27 28 24 26 28 28 29 27 25 25 25 26 27 28 28 29 29 25 24 25 26 26 26 25 24 26 27 25 24 23 22 22 20 20 21 22 21 20
21 23 26 22 20 28 28 28 31 31 28 29 28 28 27 25 25 26 26 27 28 28 24 21 20 20 22 22 23 23 24 24 25 25 24 23 23 22 21 18 18 18 19 19
28 31 25 25 27 26 27 28 29 29 29 30 30 28 27 25 25 25 26 27 27 24 18 18 19 19 20 22 23 23 23 24 24 24 24 24 24 22 21 19 19 18 18 17
27 27 27 25 26 26 27 27 27 28 29 29 29 28 27 27 26 26 26 27 25 18 17 18 18 19 20 20 21 22 23 23 22 22 23 23 23 23 22 22 20 19 20 20
28 27 28 24 27 28 27 28 28 27 27 28 27 27 28 27 25 26 25 26 24 20 18 17 17 18 20 21 22 22 22 23 23 23 22 23 23 22 22 22 21 23 20 19

GFSCGP_sfc_dewp_120.txt.gz
Dewpoint
30 25 23 24 25 25 26 24 23 24 24 21 20 19 19 19 18 19 19 21 31 43 45 44 44 44 44 44 44 44 44 45 45 45 45 46 46 48 50 53 55 56 59 61
26 24 26 26 25 24 24 25 24 25 24 21 19 19 20 20 21 21 18 18 38 43 42 42 42 42 42 42 43 42 42 42 43 43 43 45 44 48 48 50 48 52 50 52
23 24 25 26 25 25 25 23 23 22 23 25 24 23 23 25 25 24 25 24 39 41 39 39 39 40 40 40 40 40 40 40 40 41 41 41 42 43 44 43 44 45 47 49
29 28 27 27 27 26 23 23 24 25 21 19 25 21 23 23 23 27 37 38 38 37 37 37 37 37 38 39 39 39 39 38 37 39 38 39 39 39 41 41 42 42 44 44
29 29 29 28 28 29 28 30 30 26 24 22 22 21 21 22 20 34 37 37 37 37 36 38 38 37 36 36 37 36 37 36 36 36 37 37 36 37 38 39 39 40 41 43
31 32 30 29 29 29 29 26 23 22 21 21 19 22 20 33 37 36 36 34 35 34 35 36 36 35 34 34 35 34 34 34 34 35 35 35 35 35 35 36 37 39 40 41
29 28 27 29 27 30 30 29 26 20 18 17 23 22 30 37 37 37 35 35 33 33 34 35 34 32 32 32 32 31 32 32 32 32 32 32 33 34 34 35 36 37 38 39
22 21 24 30 28 27 30 30 26 19 18 18 22 18 31 38 38 39 39 38 38 35 35 36 34 33 31 31 31 31 31 31 30 31 31 32 32 33 34 35 35 37 37 38
22 21 26 24 27 29 26 24 27 26 26 23 21 30 37 39 37 37 38 37 38 39 37 34 32 31 30 30 31 31 31 31 31 31 31 31 32 32 33 34 35 36 37 38
23 20 29 30 23 23 26 26 23 28 21 19 19 20 28 35 34 37 36 36 36 36 35 34 33 32 31 30 30 30 31 31 31 30 30 31 31 32 33 33 34 36 37 38
28 25 26 29 24 20 19 19 21 28 27 21 19 17 34 36 37 36 34 31 29 29 29 29 29 29 29 28 28 29 30 30 29 30 30 30 31 33 34 34 35 36 36 37
31 28 25 27 28 24 23 21 23 24 21 22 20 16 38 38 38 34 28 28 28 28 28 28 28 28 27 27 28 29 28 29 31 31 31 30 31 32 32 32 33 34 35 36
30 27 22 22 25 28 27 24 24 27 26 21 19 18 36 36 35 31 28 27 27 27 27 27 27 27 26 26 28 27 27 28 30 31 32 32 32 33 31 31 32 32 32 34
34 28 23 18 22 26 23 25 23 24 25 24 21 20 22 33 31 28 29 28 27 27 26 26 25 25 26 27 27 26 29 29 30 30 31 31 32 33 33 32 31 31 31 31
28 24 26 25 25 26 31 29 25 21 21 19 19 22 28 29 29 28 28 27 26 26 25 25 25 25 25 26 26 27 29 29 30 30 30 30 32 33 33 32 32 32 31 31
28 25 22 20 21 19 21 22 18 14 15 17 13 27 29 28 28 27 26 26 25 25 25 25 24 26 26 27 28 28 28 29 30 29 29 29 29 31 31 31 31 30 29 30
26 25 21 19 18 14 13 16 14 13 27 25 19 28 28 27 28 27 25 25 25 24 24 24 24 26 26 27 28 28 28 28 27 27 28 28 27 27 29 29 29 28 28 28
26 25 24 21 17 12 23 26 25 26 26 29 30 29 28 26 26 26 26 25 24 23 23 23 24 25 26 27 28 29 27 25 24 24 25 26 25 25 26 27 26 27 27 26
29 25 20 16 17 18 23 25 22 20 23 26 29 27 26 25 24 25 26 25 24 22 23 23 24 23 25 26 28 28 29 28 24 22 22 23 23 22 23 24 24 25 25 25
25 24 19 18 13 3 14 27 28 24 15 25 26 28 26 24 18 21 27 26 24 21 22 23 26 28 28 28 28 27 27 27 25 24 22 22 21 19 19 21 22 22 23 23
20 20 17 17 13 19 26 28 29 17 14 24 26 26 30 26 22 25 26 27 25 23 26 29 27 26 26 27 27 25 25 24 25 25 23 22 22 20 19 19 20 20 21 21
17 18 16 15 10 11 26 27 24 24 25 26 25 27 26 25 25 25 26 27 28 27 29 27 24 25 26 26 25 24 23 25 25 25 23 22 21 22 21 20 20 19 19 19
19 21 19 21 17 25 27 24 29 31 28 28 24 26 26 25 25 25 25 26 27 27 27 24 23 23 24 24 24 23 24 24 25 24 24 21 22 22 21 19 20 20 19 18
28 30 22 24 25 26 28 29 29 27 27 27 27 26 26 23 24 25 26 26 26 27 26 23 21 21 20 21 22 23 24 24 24 24 23 23 24 21 22 20 19 19 20 20
26 28 26 25 27 27 27 27 28 28 27 28 28 26 25 24 24 25 26 26 26 25 23 21 21 20 21 22 22 22 22 24 21 21 22 22 22 23 21 21 18 17 21 21
26 28 23 19 26 25 25 28 28 27 26 27 26 26 27 26 25 26 25 26 25 20 20 19 19 19 19 20 20 21 23 22 22 21 21 21 21 21 21 20 18 19 18 21

GFSCGP_sfc_dewp_123.txt.gz
Dewpoint
30 29 25 26 25 26 25 25 24 24 25 25 24 22 22 20 21 23 23 23 42 43 43 42 42 43 42 42 42 42 42 42 42 43 43 45 43 45 46 50 49 53 51 52
27 26 28 27 26 25 24 23 23 25 26 25 23 22 24 23 24 25 25 26 42 41 40 40 40 39 39 39 40 39 40 39 40 41 42 42 42 45 45 44 45 48 46 49
26 26 28 26 25 24 24 24 24 24 24 24 24 22 22 24 26 30 38 34 41 39 38 37 37 37 37 36 37 37 36 36 37 38 38 38 40 40 42 39 40 42 43 45
27 26 24 24 25 25 23 25 25 27 26 24 23 22 24 23 33 36 35 36 37 37 37 36 37 37 37 36 35 34 35 34 34 35 36 36 37 36 38 38 38 39 40 42
29 29 30 28 27 29 28 31 29 28 26 22 22 22 21 34 35 33 33 34 35 36 36 36 36 35 35 35 33 33 33 33 33 33 33 34 34 35 36 36 36 37 39 40
30 32 30 29 29 29 30 29 28 26 22 24 23 20 21 32 35 32 33 33 33 34 34 34 34 34 35 34 32 31 32 31 31 31 31 32 32 32 33 34 35 36 38 39
29 30 31 32 30 30 29 27 27 23 19 18 22 20 26 36 36 35 35 35 36 37 35 34 33 32 32 31 31 30 31 31 31 31 31 31 31 32 32 33 34 34 36 37
22 21 24 27 27 27 29 28 24 19 18 18 22 19 27 37 37 36 36 37 38 38 38 36 36 34 33 32 31 30 30 31 31 31 31 31 31 31 32 33 33 34 36 36
23 22 25 27 28 28 27 27 30 25 24 23 21 28 34 37 36 37 38 38 38 39 37 36 34 34 33 32 32 32 31 30 30 31 30 30 30 30 32 33 33 34 35 36
24 21 27 29 23 23 26 28 23 26 20 19 20 21 24 35 34 35 38 38 37 37 34 32 31 30 30 29 29 30 30 30 30 31 30 29 30 30 32 32 33 33 34 35
24 24 25 28 24 22 19 21 23 28 25 21 18 19 32 34 35 36 36 35 34 29 29 28 28 28 27 27 28 28 28 29 30 31 32 29 30 30 31 31 32 32 33 33
31 29 25 26 28 24 22 21 23 22 20 23 20 17 29 36 36 36 34 29 29 28 27 27 27 27 27 27 27 28 28 29 31 29 31 31 31 32 31 31 31 32 32 32
31 26 24 24 24 27 26 25 24 27 25 21 20 19 38 38 36 32 29 28 28 27 27 26 26 26 26 26 27 28 29 29 29 29 29 30 29 30 31 31 30 31 31 31
34 27 23 19 20 25 25 25 24 25 24 23 23 22 27 34 30 29 27 27 27 26 26 25 25 26 26 27 27 27 28 29 28 28 27 27 28 29 29 30 29 29 29 29
30 25 26 26 25 28 29 28 28 26 27 25 23 23 28 31 29 28 27 26 25 25 25 25 25 25 26 26 27 27 28 29 28 27 26 26 27 27 28 28 29 29 29 28
28 25 23 21 22 22 25 28 27 27 26 23 21 25 28 28 28 27 27 26 25 24 24 24 25 26 26 26 25 25 25 25 26 25 25 25 26 26 26 27 27 27 27 27
26 27 26 24 20 15 14 21 24 23 25 24 16 24 28 27 26 26 25 25 24 24 23 24 25 26 27 27 28 24 22 22 22 22 23 23 24 24 24 25 24 24 24 25
27 28 28 24 17 12 22 26 27 25 27 29 29 28 27 27 27 26 25 25 24 24 23 24 25 25 23 21 22 25 24 23 21 21 21 21 21 21 21 22 22 23 24 24
31 29 25 19 17 17 22 24 20 20 20 26 28 27 26 25 24 24 26 25 21 19 21 23 24 20 19 24 26 27 26 24 22 21 21 21 20 19 19 19 20 21 22 23
28 27 23 18 14 5 14 27 27 23 15 25 27 26 25 24 20 16 25 24 22 22 24 25 25 24 26 27 27 26 25 25 22 22 22 22 21 19 19 19 19 20 21 22
26 22 21 18 15 18 24 27 28 14 14 25 25 27 27 23 21 23 24 21 23 25 27 28 27 25 26 27 26 24 24 24 24 23 22 21 21 21 20 21 21 20 20 21
22 20 19 17 13 13 27 27 22 21 25 26 24 22 27 26 25 24 23 23 25 27 27 27 25 25 26 26 25 24 23 24 25 24 22 21 21 22 21 20 21 21 19 19
17 21 18 20 19 25 27 23 27 28 25 27 24 22 26 24 24 25 25 26 27 27 26 26 24 24 24 25 25 23 23 24 24 24 23 22 22 22 20 18 20 21 20 18
28 28 23 24 25 25 27 27 27 26 27 24 24 23 23 22 24 24 25 26 25 26 25 25 23 21 21 22 22 23 24 23 23 22 23 23 22 21 20 18 19 20 20 19
27 28 25 25 26 27 27 27 27 28 27 26 24 23 22 23 23 24 24 25 25 25 24 21 20 20 20 20 20 22 22 22 20 20 20 20 20 20 19 17 17 18 20 20
27 26 23 21 27 25 25 27 27 26 26 25 24 24 25 24 24 25 24 25 24 22 20 20 19 19 19 19 19 20 21 21 21 19 20 20 19 19 19 16 15 18 18 19

GFSCGP_sfc_dewp_126.txt.gz
Dewpoint
33 32 30 33 27 26 25 24 24 24 25 24 25 25 25 24 23 23 25 27 42 40 38 38 37 36 36 36 36 35 36 36 37 38 38 43 42 45 47 44 47 46 46 49
27 27 31 29 27 26 25 24 23 24 26 25 24 24 25 25 28 36 38 40 39 37 36 36 36 35 34 33 34 35 34 34 34 35 36 38 39 43 44 40 42 43 43 46
28 29 29 27 26 25 24 24 24 24 25 25 25 24 23 32 35 35 36 36 36 35 35 34 33 33 33 33 32 33 33 32 33 33 33 34 37 37 39 36 38 38 40 42
26 27 26 26 24 25 23 25 25 25 27 25 24 22 24 34 33 33 34 35 35 35 34 34 34 33 33 33 33 32 32 31 31 32 32 32 33 33 35 35 36 37 39 41
28 30 28 25 24 26 25 30 29 29 27 24 23 22 25 35 31 32 32 33 33 34 33 33 33 33 33 32 32 31 32 32 31 31 32 31 31 32 33 34 34 36 38 39
29 31 29 29 30 30 31 30 29 26 24 24 26 23 20 31 32 32 34 35 35 35 34 34 34 33 32 32 31 30 30 31 32 32 32 31 31 31 31 33 33 35 35 37
29 30 31 31 29 30 29 27 24 21 20 21 22 21 21 35 34 34 34 35 36 37 38 38 37 36 35 34 32 30 30 31 31 31 31 31 30 31 31 31 32 33 34 35
22 20 27 29 30 27 28 27 25 19 18 18 23 20 22 36 36 36 35 37 38 37 38 37 35 34 32 31 30 31 30 30 31 31 30 30 30 31 31 31 31 32 34 34
23 22 25 28 29 28 27 27 29 26 24 23 22 24 33 36 36 36 36 37 37 37 37 35 33 31 30 29 29 29 29 29 29 30 31 31 30 30 30 30 31 32 33 33
26 22 25 26 23 23 26 28 23 25 20 18 19 20 22 32 34 36 36 37 37 38 34 31 29 29 28 28 29 29 29 29 30 31 30 31 31 31 31 30 30 31 31 32
26 25 24 28 24 21 22 25 26 27 25 20 17 18 27 32 35 35 35 38 36 32 28 27 27 27 27 27 27 27 29 29 30 30 28 30 31 30 32 31 30 31 31 31
29 26 23 25 29 27 23 25 25 25 21 25 21 19 30 34 35 36 35 31 29 27 26 26 26 26 26 26 27 27 28 29 29 29 29 29 30 30 29 30 30 30 30 30
32 29 26 24 23 27 25 24 25 27 25 21 21 20 38 37 37 36 29 28 27 27 26 26 25 26 26 27 27 27 28 28 29 29 27 27 27 28 27 29 29 29 29 29
36 28 25 20 20 25 26 26 23 25 21 20 20 21 33 36 34 29 28 27 26 26 25 25 25 25 26 26 27 26 26 28 28 27 27 26 27 27 28 28 28 28 27 27
33 27 27 26 26 26 24 26 27 23 23 23 23 24 26 30 31 28 27 26 25 25 25 24 24 24 25 25 24 24 23 24 25 25 25 25 27 27 27 26 27 27 26 27
29 28 25 22 24 24 24 27 28 28 27 26 25 25 29 28 27 27 26 26 25 25 24 24 24 25 25 25 25 26 24 22 23 22 22 23 24 25 24 25 25 25 25 26
28 28 28 25 23 22 22 25 26 26 25 23 19 22 27 27 27 26 26 26 26 24 24 24 24 24 24 24 26 26 25 24 22 21 22 21 22 21 21 22 22 22 24 25
31 29 29 26 21 15 21 26 27 26 26 28 28 27 27 27 26 26 26 26 25 24 24 23 21 22 22 22 24 27 26 24 22 21 21 21 20 20 20 20 20 20 22 23
31 31 27 22 19 18 19 24 23 21 19 27 27 27 26 26 24 25 26 26 26 22 17 21 23 22 22 25 27 27 26 24 22 21 20 21 20 20 20 20 19 20 21 22
35 32 28 21 17 8 14 26 26 22 14 26 27 27 26 25 22 13 24 22 20 20 22 24 25 26 26 26 27 26 25 23 21 21 21 21 21 20 19 20 20 20 20 21
28 28 24 22 17 18 21 28 26 13 13 25 27 27 26 22 20 17 22 20 19 23 25 27 26 25 26 27 27 24 24 23 24 23 22 22 21 20 20 21 21 20 19 19
25 24 23 22 19 15 27 27 21 21 25 26 24 22 26 24 24 23 22 22 24 25 26 26 26 25 27 26 25 23 23 24 25 24 22 21 21 20 21 20 21 19 18 16
21 26 22 24 22 26 27 24 27 27 26 26 23 22 24 23 23 22 22 23 25 25 25 26 25 24 25 25 25 23 24 24 24 23 23 22 20 20 20 19 20 19 18 16
28 27 24 22 24 26 27 28 27 26 27 23 23 22 26 24 24 24 24 24 23 24 24 25 24 23 21 22 23 22 23 23 23 21 21 21 19 17 18 18 18 18 17 16
28 27 25 24 26 27 27 26 26 27 26 23 21 20 20 22 22 23 23 23 24 24 24 24 21 20 20 20 20 21 21 21 17 18 18 19 18 17 16 15 17 17 18 17
27 26 24 22 27 25 26 26 27 26 25 24 22 22 22 23 22 23 22 23 23 23 22 20 19 19 19 18 19 20 20 19 19 18 18 18 18 17 16 15 13 18 18 17